ftp/pub/palmer/observations_modified/2019/August/original_files/AR190807_BASE.txt
Download
Sample DateTime Unit Id WS Avg 2min WD Avg 2min WGS 10min WGD 10min Air Temp Rel Humidity Dew Point Pyranometer Quantum Air Pressure Snow Level Rainfall PW Current Visibility CBase 1 CBase 2 CBase 3 Vert Vis
2019/08/07 00:00:01 BASE 7.54 267 10.75 273 -5.8 87 -7.6 0 0 960.7 NA 0.0000 -SN BR 9999 390 0 0 0
2019/08/07 00:01:01 BASE 7.25 267 10.75 273 -5.8 87 -7.6 0 0 960.7 NA 0.0000 -SN BR 9999 330 0 0 0
2019/08/07 00:02:00 BASE 7.28 268 10.65 257 -5.8 87 -7.6 0 0 960.8 NA 0.0000 -SN BR 8000 300 1480 0 0
2019/08/07 00:03:01 BASE 6.91 263 10.65 257 -5.8 88 -7.5 0 0 960.7 NA 0.0000 -SN BR 9999 360 0 0 0
2019/08/07 00:04:01 BASE 6.44 264 10.65 257 -5.8 88 -7.5 0 0 960.7 NA 0.0000 -SN BR 9999 360 0 0 0
2019/08/07 00:05:00 BASE 6.65 270 10.65 257 -5.8 88 -7.5 0 0 960.7 NA 0.0000 -SN BR 9999 360 0 0 0
2019/08/07 00:06:01 BASE 6.88 268 10.65 257 -5.8 88 -7.5 0 0 960.6 NA 0.0000 -SN 9999 360 0 0 0
2019/08/07 00:07:00 BASE 7.37 274 9.31 270 -5.8 88 -7.5 0 0 960.6 NA 0.0000 -SN 9999 1210 0 0 0
2019/08/07 00:08:01 BASE 8.23 281 9.36 284 -5.8 88 -7.5 0 0 960.6 NA 0.0000 -SN 9999 520 0 0 0
2019/08/07 00:09:00 BASE 8.13 280 9.36 284 -5.8 88 -7.5 0 0 960.6 NA 0.0000 -SN 8000 0 0 0 2890
2019/08/07 00:10:01 BASE 8.35 279 10.19 256 -5.8 88 -7.5 0 0 960.6 NA 0.0000 -SN BR 7000 0 0 0 2920
2019/08/07 00:11:01 BASE 9.04 270 10.19 256 -5.8 87 -7.5 0 0 960.6 NA 0.0000 -SN BR 6000 0 0 0 2890
2019/08/07 00:12:01 BASE 8.70 268 10.19 256 -5.8 87 -7.6 0 0 960.6 NA 0.0000 -SN BR 5000 260 0 0 0
2019/08/07 00:13:00 BASE 8.66 270 10.60 265 -5.8 87 -7.6 0 0 960.6 NA 0.0000 -SN BR 5000 0 0 0 2850
2019/08/07 00:14:01 BASE 8.70 268 10.60 265 -5.8 87 -7.7 0 0 960.6 NA 0.0000 -SN BR 9000 0 0 0 3310
2019/08/07 00:15:01 BASE 7.63 270 10.60 265 -5.8 86 -7.7 0 0 960.6 NA 0.0000 -SN BR 9999 0 0 0 3250
2019/08/07 00:16:00 BASE 7.42 276 10.60 265 -5.8 86 -7.7 0 0 960.6 NA 0.0000 -SN BR 9999 0 0 0 3050
2019/08/07 00:17:01 BASE 7.65 275 10.60 265 -5.8 86 -7.8 0 0 960.6 NA 0.0000 -SN BR 9999 720 0 0 0
2019/08/07 00:18:01 BASE 7.27 270 10.60 265 -5.8 86 -7.8 0 0 960.6 NA 0.0000 -SN BR 9999 620 0 0 0
2019/08/07 00:19:01 BASE 6.78 273 10.60 265 -5.8 86 -7.8 0 0 960.6 NA 0.0000 -SN BR 9999 0 0 0 2950
2019/08/07 00:20:00 BASE 7.20 276 10.60 265 -5.8 86 -7.7 0 0 960.6 NA 0.0000 -SN BR 9999 1050 0 0 0
2019/08/07 00:21:01 BASE 7.90 270 10.60 265 -5.8 86 -7.8 0 0 960.6 NA 0.0000 -SN BR 9999 0 0 0 2990
2019/08/07 00:22:00 BASE 7.35 263 10.60 265 -5.7 86 -7.8 0 0 960.6 NA 0.0000 -SN 9999 1380 0 0 0
2019/08/07 00:23:01 BASE 7.67 270 9.98 268 -5.7 85 -7.8 0 0 960.6 NA 0.0000 -SN 9999 0 0 0 3120
2019/08/07 00:24:02 BASE 8.45 278 9.47 270 -5.7 85 -7.8 0 0 960.6 NA 0.0000 -SN 9999 2760 0 0 0
2019/08/07 00:25:00 BASE 7.28 273 9.47 270 -5.7 85 -7.8 0 0 960.6 NA 0.0000 -SN 9999 1610 0 0 0
2019/08/07 00:26:00 BASE 6.35 271 9.47 270 -5.7 85 -7.9 0 0 960.6 NA 0.0000 -SN 9999 2760 0 0 0
2019/08/07 00:27:01 BASE 6.39 265 9.47 270 -5.7 85 -7.9 0 0 960.6 NA 0.0000 -SN 9999 2720 0 0 0
2019/08/07 00:28:01 BASE 6.04 265 9.47 270 -5.7 84 -7.9 0 0 960.6 NA 0.0000 -SN 9999 2130 0 0 0
2019/08/07 00:29:01 BASE 6.55 274 9.47 270 -5.7 84 -8.0 0 0 960.6 NA 0.0000 -SN 9999 2200 0 0 0
2019/08/07 00:30:00 BASE 7.45 273 9.31 280 -5.7 84 -8.0 0 0 960.6 NA 0.0000 -SN 9999 2330 0 0 0
2019/08/07 00:31:00 BASE 7.54 270 9.31 280 -5.7 84 -8.0 0 0 960.6 NA 0.0000 -SN 9999 2720 3280 0 0
2019/08/07 00:32:00 BASE 7.00 274 9.31 280 -5.7 83 -8.1 0 0 960.6 NA 0.0000 9999 2790 0 0 0
2019/08/07 00:33:01 BASE 6.62 276 9.21 279 -5.7 83 -8.1 0 0 960.6 NA 0.0000 9999 2820 0 0 0
2019/08/07 00:34:00 BASE 6.12 277 8.95 270 -5.7 83 -8.1 0 0 960.6 NA 0.0000 9999 2820 0 0 0
2019/08/07 00:35:01 BASE 6.52 279 9.11 285 -5.7 83 -8.2 0 0 960.6 NA 0.0000 9999 2720 0 0 0
2019/08/07 00:36:01 BASE 7.01 276 9.11 285 -5.7 83 -8.2 0 0 960.6 NA 0.0000 9999 2230 2760 0 0
2019/08/07 00:37:01 BASE 7.02 271 9.11 285 -5.7 82 -8.2 0 0 960.6 NA 0.0000 9999 2200 0 0 0
2019/08/07 00:38:01 BASE 7.06 269 9.11 285 -5.7 82 -8.2 0 0 960.6 NA 0.0000 9999 2530 0 0 0
2019/08/07 00:39:01 BASE 6.36 268 9.11 285 -5.7 82 -8.3 0 0 960.6 NA 0.0000 9999 2920 0 0 0
2019/08/07 00:40:01 BASE 6.02 271 9.11 285 -5.7 82 -8.3 0 0 960.6 NA 0.0000 9999 2590 3220 0 0
2019/08/07 00:41:01 BASE 5.97 271 9.11 285 -5.7 82 -8.2 0 0 960.6 NA 0.0000 9999 2660 0 0 0
2019/08/07 00:42:00 BASE 6.38 262 9.11 285 -5.7 82 -8.2 0 0 960.6 NA 0.0000 9999 2430 0 0 0
2019/08/07 00:43:01 BASE 6.18 257 9.11 285 -5.7 82 -8.3 0 0 960.6 NA 0.0000 9999 2790 0 0 0
2019/08/07 00:44:01 BASE 5.92 262 9.11 285 -5.7 82 -8.3 0 0 960.5 NA 0.0000 9999 1970 2850 0 0
2019/08/07 00:45:01 BASE 5.93 270 9.05 280 -5.7 82 -8.4 0 0 960.5 NA 0.0000 9999 2360 2850 0 0
2019/08/07 00:46:01 BASE 5.55 276 8.54 259 -5.7 81 -8.4 0 0 960.5 NA 0.0000 9999 1670 2920 0 0
2019/08/07 00:47:01 BASE 5.67 278 8.54 259 -5.7 81 -8.4 0 0 960.4 NA 0.0000 9999 3080 0 0 0
2019/08/07 00:48:01 BASE 5.29 272 8.54 259 -5.7 81 -8.4 0 0 960.5 NA 0.0000 9999 2030 3310 0 0
2019/08/07 00:49:01 BASE 4.25 271 8.54 259 -5.7 81 -8.4 0 0 960.4 NA 0.0000 9999 2430 3350 0 0
2019/08/07 00:50:01 BASE 4.79 272 8.54 259 -5.7 81 -8.4 0 0 960.5 NA 0.0000 9999 1940 3280 0 0
2019/08/07 00:51:00 BASE 5.58 270 8.54 259 -5.7 81 -8.4 0 0 960.5 NA 0.0000 9999 2230 0 0 0
2019/08/07 00:52:01 BASE 4.85 264 7.82 270 -5.7 81 -8.4 0 0 960.5 NA 0.0000 9999 2260 0 0 0
2019/08/07 00:53:01 BASE 5.01 263 7.82 270 -5.7 81 -8.5 0 0 960.5 NA 0.0000 9999 2260 0 0 0
2019/08/07 00:54:01 BASE 5.75 265 7.25 275 -5.7 81 -8.5 0 0 960.5 NA 0.0000 9999 2260 0 0 0
2019/08/07 00:55:01 BASE 5.29 260 7.25 275 -5.7 81 -8.5 0 0 960.5 NA 0.0000 9999 2230 0 0 0
2019/08/07 00:56:01 BASE 5.38 257 7.51 267 -5.7 81 -8.5 0 0 960.5 NA 0.0000 9999 2590 3510 0 0
2019/08/07 00:57:00 BASE 6.08 257 7.51 267 -5.7 81 -8.5 0 0 960.6 NA 0.0000 9999 2200 2760 0 0
2019/08/07 00:58:01 BASE 6.16 257 7.51 267 -5.7 81 -8.5 0 0 960.6 NA 0.0000 9999 2130 0 0 0
2019/08/07 00:59:01 BASE 5.97 260 7.51 267 -5.7 81 -8.5 0 0 960.5 NA 0.0000 9999 2230 0 0 0
2019/08/07 01:00:02 BASE 5.57 274 7.51 267 -5.8 81 -8.5 0 0 960.4 NA 0.0000 9999 2490 0 0 0
2019/08/07 01:01:01 BASE 5.86 283 7.51 267 -5.7 81 -8.5 0 0 960.4 NA 0.0000 9999 2460 0 0 0
2019/08/07 01:02:00 BASE 6.20 284 7.51 267 -5.7 81 -8.4 0 0 960.4 NA 0.0000 9999 2300 0 0 0
2019/08/07 01:03:00 BASE 6.16 287 7.51 267 -5.7 81 -8.4 0 0 960.4 NA 0.0000 9999 2330 0 0 0
2019/08/07 01:04:01 BASE 6.13 282 7.51 267 -5.6 80 -8.5 0 0 960.4 NA 0.0000 9999 1570 0 0 0
2019/08/07 01:05:01 BASE 6.06 279 7.51 267 -5.6 80 -8.5 0 0 960.4 NA 0.0000 9999 2490 0 0 0
2019/08/07 01:06:01 BASE 5.62 283 7.25 276 -5.6 80 -8.6 0 0 960.4 NA 0.0000 9999 2530 0 0 0
2019/08/07 01:07:01 BASE 5.57 285 7.25 276 -5.6 79 -8.7 0 0 960.4 NA 0.0000 9999 2690 0 0 0
2019/08/07 01:08:00 BASE 5.77 279 7.25 276 -5.6 79 -8.7 0 0 960.4 NA 0.0000 9999 2620 0 0 0
2019/08/07 01:09:01 BASE 5.37 271 7.25 276 -5.6 79 -8.7 0 0 960.4 NA 0.0000 9999 2590 0 0 0
2019/08/07 01:10:00 BASE 4.98 271 6.84 273 -5.6 79 -8.7 0 0 960.4 NA 0.0000 9999 2690 0 0 0
2019/08/07 01:11:00 BASE 5.53 277 7.00 278 -5.6 79 -8.8 0 0 960.4 NA 0.0000 9999 2660 0 0 0
2019/08/07 01:12:00 BASE 5.91 281 7.00 278 -5.7 79 -8.8 0 0 960.4 NA 0.0000 9999 2690 0 0 0
2019/08/07 01:13:00 BASE 6.01 283 7.25 283 -5.7 79 -8.8 0 0 960.4 NA 0.0000 9999 2720 0 0 0
2019/08/07 01:14:00 BASE 5.96 281 7.25 283 -5.7 79 -8.8 0 0 960.4 NA 0.0000 9999 2890 0 0 0
2019/08/07 01:15:01 BASE 5.26 280 7.25 283 -5.7 78 -8.9 0 0 960.4 NA 0.0000 9999 2920 0 0 0
2019/08/07 01:16:01 BASE 5.22 280 7.25 283 -5.7 78 -8.9 0 0 960.4 NA 0.0000 9999 2990 0 0 0
2019/08/07 01:17:01 BASE 5.81 282 7.25 283 -5.7 78 -8.9 0 0 960.4 NA 0.0000 9999 2950 0 0 0
2019/08/07 01:18:00 BASE 5.74 285 7.25 283 -5.7 78 -9.0 0 0 960.4 NA 0.0000 9999 3050 0 0 0
2019/08/07 01:19:01 BASE 5.61 282 7.31 281 -5.7 77 -9.0 0 0 960.4 NA 0.0000 9999 3050 0 0 0
2019/08/07 01:20:01 BASE 6.09 276 7.31 281 -5.7 77 -9.0 0 0 960.4 NA 0.0000 9999 2990 0 0 0
2019/08/07 01:21:01 BASE 5.73 273 7.31 281 -5.7 77 -9.0 0 0 960.4 NA 0.0000 9999 3080 0 0 0
2019/08/07 01:22:01 BASE 5.29 273 7.31 281 -5.7 77 -9.1 0 0 960.4 NA 0.0000 9999 3080 0 0 0
2019/08/07 01:23:01 BASE 5.64 273 7.31 281 -5.7 77 -9.1 0 0 960.4 NA 0.0000 9999 2920 3540 0 0
2019/08/07 01:24:02 BASE 5.85 269 7.31 281 -5.7 77 -9.1 0 0 960.4 NA 0.0000 9999 3280 0 0 0
2019/08/07 01:25:01 BASE 6.20 260 7.31 281 -5.7 77 -9.1 0 0 960.4 NA 0.0000 9999 3120 0 0 0
2019/08/07 01:26:01 BASE 6.20 259 7.31 281 -5.7 77 -9.0 0 0 960.4 NA 0.0000 9999 3080 0 0 0
2019/08/07 01:27:01 BASE 5.60 265 7.31 281 -5.7 78 -9.0 0 0 960.4 NA 0.0000 9999 3150 0 0 0
2019/08/07 01:28:00 BASE 4.76 263 7.31 281 -5.7 78 -8.9 0 0 960.4 NA 0.0000 9999 1840 3220 0 0
2019/08/07 01:29:00 BASE 4.26 263 7.10 265 -5.8 79 -8.9 0 0 960.5 NA 0.0000 9999 1940 3280 0 0
2019/08/07 01:30:01 BASE 4.76 265 7.10 265 -5.8 79 -8.8 0 0 960.6 NA 0.0000 9999 3250 0 0 0
2019/08/07 01:31:01 BASE 5.02 260 7.10 265 -5.8 79 -8.8 0 0 960.6 NA 0.0000 9999 3220 0 0 0
2019/08/07 01:32:00 BASE 4.26 260 7.10 265 -5.8 80 -8.7 0 0 960.6 NA 0.0000 9999 3220 0 0 0
2019/08/07 01:33:01 BASE 4.48 272 7.10 265 -5.8 80 -8.7 0 0 960.6 NA 0.0000 9999 3220 0 0 0
2019/08/07 01:34:01 BASE 5.84 280 7.10 265 -5.8 80 -8.7 0 0 960.6 NA 0.0000 9999 3250 0 0 0
2019/08/07 01:35:01 BASE 6.43 279 7.67 281 -5.8 80 -8.7 0 0 960.6 NA 0.0000 9999 3220 0 0 0
2019/08/07 01:36:01 BASE 6.24 281 7.67 281 -5.8 80 -8.7 0 0 960.6 NA 0.0000 9999 3250 0 0 0
2019/08/07 01:37:01 BASE 5.83 279 7.67 281 -5.8 80 -8.7 0 0 960.6 NA 0.0000 9999 1670 3410 0 0
2019/08/07 01:38:01 BASE 5.18 277 7.67 281 -5.8 80 -8.7 0 0 960.6 NA 0.0000 9999 1740 3450 0 0
2019/08/07 01:39:00 BASE 4.86 289 7.67 281 -5.8 79 -8.8 0 0 960.5 NA 0.0000 9999 3350 0 0 0
2019/08/07 01:40:01 BASE 5.40 297 7.67 281 -5.7 79 -8.8 0 0 960.5 NA 0.0000 9999 2260 0 0 0
2019/08/07 01:41:01 BASE 5.49 289 7.67 281 -5.7 79 -8.8 0 0 960.5 NA 0.0000 9999 2330 3450 0 0
2019/08/07 01:42:01 BASE 4.82 284 7.67 281 -5.7 79 -8.8 0 0 960.6 NA 0.0000 9999 2260 3480 0 0
2019/08/07 01:43:01 BASE 4.54 290 7.67 281 -5.7 79 -8.8 0 0 960.6 NA 0.0000 9999 3540 0 0 0
2019/08/07 01:44:01 BASE 4.84 300 7.67 281 -5.7 79 -8.8 0 0 960.6 NA 0.0000 9999 3510 0 0 0
2019/08/07 01:45:01 BASE 4.52 306 7.00 288 -5.8 79 -8.8 0 0 960.6 NA 0.0000 9999 3610 0 0 0
2019/08/07 01:46:01 BASE 4.08 306 7.00 288 -5.8 79 -8.8 0 0 960.6 NA 0.0000 9999 3510 0 0 0
2019/08/07 01:47:01 BASE 4.43 317 7.00 288 -5.8 79 -8.8 0 0 960.6 NA 0.0000 9999 3380 0 0 0
2019/08/07 01:48:00 BASE 4.62 345 7.00 288 -5.8 79 -8.9 0 0 960.6 NA 0.0000 9999 3280 0 0 0
2019/08/07 01:49:01 BASE 4.14 3 7.00 288 -5.9 79 -9.0 0 0 960.6 NA 0.0000 9999 2990 3710 0 0
2019/08/07 01:50:00 BASE 4.28 357 5.76 290 -5.9 79 -9.1 0 0 960.6 NA 0.0000 9999 2360 3250 0 0
2019/08/07 01:51:01 BASE 4.63 347 5.35 299 -6.0 78 -9.2 0 0 960.6 NA 0.0000 9999 2400 0 0 0
2019/08/07 01:52:00 BASE 4.59 346 5.35 299 -6.1 78 -9.3 0 0 960.6 NA 0.0000 9999 3220 0 0 0
2019/08/07 01:53:01 BASE 4.56 349 5.35 299 -6.1 78 -9.3 0 0 960.6 NA 0.0000 9999 3220 0 0 0
2019/08/07 01:54:01 BASE 4.35 1 5.30 337 -6.1 78 -9.3 0 0 960.6 NA 0.0000 9999 3220 0 0 0
2019/08/07 01:55:01 BASE 4.23 5 5.30 337 -6.1 78 -9.3 0 0 960.6 NA 0.0000 9999 3350 0 0 0
2019/08/07 01:56:01 BASE 4.47 7 5.50 7 -6.1 78 -9.3 0 0 960.6 NA 0.0000 9999 3380 0 0 0
2019/08/07 01:57:01 BASE 5.31 3 6.17 352 -6.1 78 -9.2 0 0 960.6 NA 0.0000 9999 3450 0 0 0
2019/08/07 01:58:01 BASE 5.49 355 6.17 352 -6.1 78 -9.2 0 0 960.6 NA 0.0000 9999 3450 0 0 0
2019/08/07 01:59:01 BASE 4.71 1 6.17 352 -6.1 78 -9.2 0 0 960.6 NA 0.0000 9999 3450 0 0 0
2019/08/07 02:00:01 BASE 4.60 2 6.17 352 -6.0 78 -9.2 0 0 960.6 NA 0.0000 9999 3540 0 0 0
2019/08/07 02:01:00 BASE 4.77 357 6.17 352 -6.0 78 -9.2 0 0 960.6 NA 0.0000 9999 3510 0 0 0
2019/08/07 02:02:01 BASE 4.75 352 6.17 352 -6.0 78 -9.1 0 0 960.6 NA 0.0000 9999 3510 0 0 0
2019/08/07 02:03:00 BASE 4.76 3 6.17 352 -6.0 79 -9.1 0 0 960.6 NA 0.0000 9999 3480 0 0 0
2019/08/07 02:04:01 BASE 4.91 11 6.17 352 -6.0 79 -9.1 0 0 960.6 NA 0.0000 9999 2920 0 0 0
2019/08/07 02:05:01 BASE 5.05 3 6.17 352 -6.0 79 -9.0 0 0 960.6 NA 0.0000 9999 3450 0 0 0
2019/08/07 02:06:00 BASE 4.71 349 6.17 352 -6.0 79 -9.1 0 0 960.6 NA 0.0000 9999 3510 0 0 0
2019/08/07 02:07:01 BASE 4.29 340 5.66 5 -6.0 79 -9.1 0 0 960.6 NA 0.0000 9999 3510 0 0 0
2019/08/07 02:08:00 BASE 3.84 338 5.66 5 -6.0 79 -9.0 0 0 960.6 NA 0.0000 9999 3580 0 0 0
2019/08/07 02:09:01 BASE 4.18 332 6.07 331 -5.9 79 -9.0 0 0 960.6 NA 0.0000 9999 3540 0 0 0
2019/08/07 02:10:01 BASE 4.89 334 6.07 331 -5.9 79 -8.9 0 0 960.6 NA 0.0000 9999 3380 0 0 0
2019/08/07 02:11:01 BASE 5.41 335 6.58 319 -5.8 79 -8.9 0 0 960.6 NA 0.0000 9999 3350 0 0 0
2019/08/07 02:12:01 BASE 5.93 331 6.94 341 -5.8 79 -8.8 0 0 960.6 NA 0.0000 9999 3350 0 0 0
2019/08/07 02:13:01 BASE 5.37 341 6.94 341 -5.8 79 -8.9 0 0 960.6 NA 0.0000 9999 3740 0 0 0
2019/08/07 02:14:01 BASE 4.32 346 6.94 341 -5.9 79 -8.9 0 0 960.6 NA 0.0000 9999 3670 0 0 0
2019/08/07 02:15:01 BASE 4.68 329 6.94 341 -5.9 79 -9.0 0 0 960.6 NA 0.0000 9999 3450 0 0 0
2019/08/07 02:16:01 BASE 6.44 314 7.92 308 -5.9 79 -9.0 0 0 960.6 NA 0.0000 9999 3810 0 0 0
2019/08/07 02:17:01 BASE 7.32 311 7.92 308 -5.9 79 -9.0 0 0 960.6 NA 0.0000 9999 3280 0 0 0
2019/08/07 02:18:00 BASE 7.00 319 7.92 308 -5.8 78 -9.1 0 0 960.6 NA 0.0000 9999 2760 4100 0 0
2019/08/07 02:19:01 BASE 5.93 333 7.92 308 -5.7 77 -9.1 0 0 960.6 NA 0.0000 9999 3150 0 0 0
2019/08/07 02:20:01 BASE 4.85 337 7.92 308 -5.7 77 -9.2 0 0 960.6 NA 0.0000 9999 3020 0 0 0
2019/08/07 02:21:01 BASE 4.88 343 7.92 308 -5.8 76 -9.2 0 0 960.6 NA 0.0000 9999 2950 4100 0 0
2019/08/07 02:22:01 BASE 4.86 345 7.92 308 -5.8 76 -9.3 0 0 960.6 NA 0.0000 9999 3050 0 0 0
2019/08/07 02:23:01 BASE 5.27 355 7.92 308 -5.9 77 -9.3 0 0 960.6 NA 0.0000 9999 3640 0 0 0
2019/08/07 02:24:02 BASE 5.62 11 7.92 308 -6.0 77 -9.4 0 0 960.6 NA 0.0000 9999 2690 0 0 0
2019/08/07 02:25:00 BASE 5.96 14 7.92 308 -6.0 77 -9.4 0 0 960.6 NA 0.0000 9999 2490 3380 0 0
2019/08/07 02:26:00 BASE 6.87 16 7.82 17 -6.0 77 -9.4 0 0 960.6 NA 0.0000 9999 2300 3540 4760 0
2019/08/07 02:27:01 BASE 7.03 11 7.82 17 -6.0 77 -9.4 0 0 960.6 NA 0.0000 9999 2260 4530 0 0
2019/08/07 02:28:00 BASE 7.17 4 8.13 353 -6.0 77 -9.4 0 0 960.6 NA 0.0000 9999 2360 4070 0 0
2019/08/07 02:29:01 BASE 6.73 1 8.13 353 -6.0 76 -9.5 0 0 960.6 NA 0.0000 9999 4330 0 0 0
2019/08/07 02:30:00 BASE 6.31 3 8.13 353 -6.0 76 -9.5 0 0 960.6 NA 0.0000 9999 4690 0 0 0
2019/08/07 02:31:00 BASE 6.11 7 8.13 353 -6.0 76 -9.6 0 0 960.6 NA 0.0000 9999 4760 0 0 0
2019/08/07 02:32:00 BASE 5.13 357 8.13 353 -6.0 76 -9.6 0 0 960.6 NA 0.0000 9999 4890 0 0 0
2019/08/07 02:33:00 BASE 4.96 351 8.13 353 -6.0 75 -9.7 0 0 960.6 NA 0.0000 9999 4630 0 0 0
2019/08/07 02:34:00 BASE 6.12 8 8.13 353 -6.0 75 -9.7 0 0 960.6 NA 0.0000 9999 4760 0 0 0
2019/08/07 02:35:00 BASE 6.98 12 8.13 353 -6.1 75 -9.8 0 0 960.6 NA 0.0000 9999 4630 0 0 0
2019/08/07 02:36:00 BASE 6.73 7 8.13 353 -6.1 75 -9.8 0 0 960.6 NA 0.0000 9999 4950 0 0 0
2019/08/07 02:37:01 BASE 6.66 4 8.13 353 -6.1 75 -9.8 0 0 960.6 NA 0.0000 9999 2890 4990 0 0
2019/08/07 02:38:01 BASE 6.18 4 8.03 2 -6.1 75 -9.8 0 0 960.7 NA 0.0000 9999 4590 0 0 0
2019/08/07 02:39:00 BASE 5.68 9 8.03 2 -6.1 74 -9.9 0 0 960.6 NA 0.0000 9999 4590 0 0 0
2019/08/07 02:40:00 BASE 5.89 10 7.77 20 -6.1 74 -9.9 0 0 960.6 NA 0.0000 9999 4660 0 0 0
2019/08/07 02:41:00 BASE 6.11 7 7.77 20 -6.1 74 -10.0 0 0 960.6 NA 0.0000 9999 4560 0 0 0
2019/08/07 02:42:00 BASE 6.13 1 7.77 20 -6.1 74 -9.9 0 0 960.6 NA 0.0000 9999 2660 4720 0 0
2019/08/07 02:43:00 BASE 5.92 358 7.77 20 -6.1 74 -9.9 0 0 960.6 NA 0.0000 9999 4860 0 0 0
2019/08/07 02:44:01 BASE 6.04 4 7.77 20 -6.0 74 -9.9 0 0 960.6 NA 0.0000 9999 4490 0 0 0
2019/08/07 02:45:00 BASE 6.42 2 7.61 3 -6.0 74 -9.9 0 0 960.6 NA 0.0000 9999 4530 0 0 0
2019/08/07 02:46:00 BASE 6.66 358 7.61 3 -6.0 74 -9.9 0 0 960.6 NA 0.0000 9999 4720 0 0 0
2019/08/07 02:47:01 BASE 6.79 4 7.72 1 -6.0 74 -9.9 0 0 960.6 NA 0.0000 9999 4760 0 0 0
2019/08/07 02:48:00 BASE 7.01 2 8.08 2 -6.1 74 -9.9 0 0 960.6 NA 0.0000 9999 4720 0 0 0
2019/08/07 02:49:01 BASE 6.75 6 8.08 2 -6.0 74 -9.9 0 0 960.6 NA 0.0000 9999 4690 0 0 0
2019/08/07 02:50:00 BASE 6.34 9 8.08 2 -6.0 74 -9.9 0 0 960.6 NA 0.0000 9999 2590 4530 0 0
2019/08/07 02:51:00 BASE 6.50 1 8.08 2 -6.0 74 -9.9 0 0 960.6 NA 0.0000 9999 2590 4890 0 0
2019/08/07 02:52:01 BASE 6.64 0 8.08 2 -6.0 74 -9.9 0 0 960.6 NA 0.0000 9999 2820 0 0 0
2019/08/07 02:53:01 BASE 6.73 3 8.08 2 -6.0 74 -9.9 0 0 960.6 NA 0.0000 9999 3020 4720 0 0
2019/08/07 02:54:01 BASE 6.66 359 8.08 2 -6.0 74 -9.9 0 0 960.7 NA 0.0000 9999 3050 4690 0 0
2019/08/07 02:55:00 BASE 6.72 0 8.08 2 -6.0 74 -9.9 0 0 960.7 NA 0.0000 9999 2790 4820 0 0
2019/08/07 02:56:00 BASE 6.73 359 8.08 2 -6.0 74 -9.9 0 0 960.7 NA 0.0000 9999 2720 4790 0 0
2019/08/07 02:57:01 BASE 6.30 356 8.08 2 -6.0 74 -9.9 0 0 960.7 NA 0.0000 9999 2790 0 0 0
2019/08/07 02:58:01 BASE 6.02 357 7.87 7 -6.0 73 -9.9 0 0 960.7 NA 0.0000 9999 2890 0 0 0
2019/08/07 02:59:01 BASE 6.09 1 7.87 7 -5.9 73 -10.0 0 0 960.7 NA 0.0000 9999 2890 4860 0 0
2019/08/07 03:00:01 BASE 6.45 9 7.87 7 -5.9 73 -9.9 0 0 960.7 NA 0.0000 9999 4890 0 0 0
2019/08/07 03:01:01 BASE 6.43 8 7.87 7 -5.9 73 -9.9 0 0 960.7 NA 0.0000 9999 2620 4990 0 0
2019/08/07 03:02:01 BASE 6.31 3 7.87 7 -5.9 74 -9.9 0 0 960.7 NA 0.0000 9999 2620 5020 0 0
2019/08/07 03:03:01 BASE 6.03 1 7.87 7 -5.9 74 -9.8 0 0 960.8 NA 0.0000 9999 2720 0 0 0
2019/08/07 03:04:01 BASE 6.29 3 7.87 7 -5.9 74 -9.7 0 0 960.7 NA 0.0000 9999 2720 0 0 0
2019/08/07 03:05:01 BASE 6.92 5 7.56 4 -5.9 75 -9.7 0 0 960.7 NA 0.0000 9999 2790 5350 0 0
2019/08/07 03:06:00 BASE 7.23 5 8.59 8 -5.9 75 -9.7 0 0 960.7 NA 0.0000 9999 2820 4990 0 0
2019/08/07 03:07:00 BASE 7.94 7 8.95 7 -5.9 75 -9.7 0 0 960.7 NA 0.0000 9999 2820 4990 0 0
2019/08/07 03:08:00 BASE 7.73 7 8.95 7 -5.9 74 -9.8 0 0 960.8 NA 0.0000 9999 2620 0 0 0
2019/08/07 03:09:01 BASE 6.80 4 8.95 7 -6.0 74 -9.8 0 0 960.8 NA 0.0000 9999 2490 5510 0 0
2019/08/07 03:10:01 BASE 7.02 3 8.95 7 -6.0 74 -9.8 0 0 960.8 NA 0.0000 9999 2560 0 0 0
2019/08/07 03:11:00 BASE 7.42 3 8.95 7 -6.0 74 -9.8 0 0 960.8 NA 0.0000 9999 2620 0 0 0
2019/08/07 03:12:01 BASE 6.86 5 8.95 7 -6.0 75 -9.8 0 0 960.8 NA 0.0000 9999 2660 0 0 0
2019/08/07 03:13:01 BASE 6.25 6 8.95 7 -6.0 75 -9.7 0 0 960.7 NA 0.0000 9999 2590 0 0 0
2019/08/07 03:14:01 BASE 6.46 4 8.95 7 -6.0 76 -9.6 0 0 960.7 NA 0.0000 9999 0 0 0 0
2019/08/07 03:15:00 BASE 6.74 5 8.95 7 -6.0 76 -9.6 0 0 960.7 NA 0.0000 9999 0 0 0 0
2019/08/07 03:16:01 BASE 6.66 5 8.95 7 -6.0 76 -9.6 0 0 960.7 NA 0.0000 9999 0 0 0 0
2019/08/07 03:17:01 BASE 6.63 6 8.08 8 -6.1 76 -9.6 0 0 960.6 NA 0.0000 9999 0 0 0 0
2019/08/07 03:18:01 BASE 6.86 5 8.08 8 -6.1 76 -9.6 0 0 960.6 NA 0.0000 9999 0 0 0 0
2019/08/07 03:19:01 BASE 7.09 6 8.08 8 -6.1 76 -9.7 0 0 960.6 NA 0.0000 9999 0 0 0 0
2019/08/07 03:20:01 BASE 7.05 7 7.87 3 -6.1 76 -9.7 0 0 960.6 NA 0.0000 9999 0 0 0 0
2019/08/07 03:21:01 BASE 6.79 8 7.72 5 -6.2 76 -9.7 0 0 960.6 NA 0.0000 9999 0 0 0 0
2019/08/07 03:22:00 BASE 6.42 7 7.72 5 -6.2 76 -9.7 0 0 960.6 NA 0.0000 9999 0 0 0 0
2019/08/07 03:23:01 BASE 6.49 3 7.72 5 -6.2 76 -9.7 0 0 960.6 NA 0.0000 9999 0 0 0 0
2019/08/07 03:24:02 BASE 6.76 360 7.97 3 -6.2 76 -9.7 0 0 960.6 NA 0.0000 9999 5910 0 0 0
2019/08/07 03:25:01 BASE 6.81 359 7.97 3 -6.2 76 -9.7 0 0 960.6 NA 0.0000 9999 6200 0 0 0
2019/08/07 03:26:01 BASE 6.93 2 7.97 3 -6.2 77 -9.6 0 0 960.6 NA 0.0000 9999 6070 0 0 0
2019/08/07 03:27:01 BASE 6.86 3 7.97 3 -6.2 77 -9.6 0 0 960.6 NA 0.0000 9999 6040 0 0 0
2019/08/07 03:28:01 BASE 6.51 1 7.97 3 -6.2 77 -9.6 0 0 960.6 NA 0.0000 9999 6040 0 0 0
2019/08/07 03:29:01 BASE 6.69 0 7.97 3 -6.2 77 -9.6 0 0 960.6 NA 0.0000 9999 5970 0 0 0
2019/08/07 03:30:00 BASE 6.87 3 7.97 3 -6.2 77 -9.6 0 0 960.6 NA 0.0000 9999 5910 0 0 0
2019/08/07 03:31:01 BASE 6.64 3 7.97 3 -6.3 77 -9.6 0 0 960.6 NA 0.0000 9999 2490 5940 0 0
2019/08/07 03:32:01 BASE 6.85 0 7.97 3 -6.3 77 -9.6 0 0 960.6 NA 0.0000 9999 6040 0 0 0
2019/08/07 03:33:01 BASE 7.27 358 7.97 3 -6.3 77 -9.6 0 0 960.6 NA 0.0000 9999 6070 0 0 0
2019/08/07 03:34:01 BASE 7.40 359 7.97 355 -6.3 78 -9.6 0 0 960.6 NA 0.0000 9999 6040 0 0 0
2019/08/07 03:35:00 BASE 7.34 359 7.97 355 -6.3 78 -9.6 0 0 960.6 NA 0.0000 9999 2690 6000 0 0
2019/08/07 03:36:00 BASE 6.90 360 7.97 355 -6.3 78 -9.5 0 0 960.6 NA 0.0000 9999 2590 6070 0 0
2019/08/07 03:37:01 BASE 6.73 359 7.97 355 -6.3 78 -9.5 0 0 960.6 NA 0.0000 9999 2530 6100 0 0
2019/08/07 03:38:00 BASE 6.96 358 7.97 355 -6.3 78 -9.5 0 0 960.6 NA 0.0000 9999 2690 6040 0 0
2019/08/07 03:39:01 BASE 7.08 3 7.97 355 -6.4 78 -9.6 0 0 960.6 NA 0.0000 9999 6040 0 0 0
2019/08/07 03:40:01 BASE 7.38 6 8.03 8 -6.4 78 -9.6 0 0 960.6 NA 0.0000 9999 6070 0 0 0
2019/08/07 03:41:01 BASE 7.76 5 8.59 11 -6.4 78 -9.6 0 0 960.6 NA 0.0000 9999 2530 6100 0 0
2019/08/07 03:42:01 BASE 7.55 3 8.59 11 -6.5 78 -9.6 0 0 960.7 NA 0.0000 9999 2560 6070 0 0
2019/08/07 03:43:01 BASE 7.22 359 8.59 11 -6.5 79 -9.6 0 0 960.7 NA 0.0000 9999 2560 6170 0 0
2019/08/07 03:44:00 BASE 7.02 360 8.59 11 -6.5 79 -9.5 0 0 960.6 NA 0.0000 9999 2720 6170 0 0
2019/08/07 03:45:00 BASE 6.60 3 8.59 11 -6.5 79 -9.4 0 0 960.6 NA 0.0000 9999 6170 0 0 0
2019/08/07 03:46:01 BASE 6.62 1 8.59 11 -6.4 80 -9.4 0 0 960.6 NA 0.0000 9999 6170 0 0 0
2019/08/07 03:47:01 BASE 6.73 1 8.59 11 -6.4 80 -9.3 0 0 960.6 NA 0.0000 9999 2490 6140 0 0
2019/08/07 03:48:00 BASE 7.21 3 8.64 3 -6.4 80 -9.3 0 0 960.6 NA 0.0000 9999 2530 0 0 0
2019/08/07 03:49:01 BASE 7.73 3 8.64 1 -6.4 80 -9.3 0 0 960.6 NA 0.0000 9999 2590 0 0 0
2019/08/07 03:50:01 BASE 7.82 1 8.64 1 -6.4 80 -9.3 0 0 960.6 NA 0.0000 9999 2590 0 0 0
2019/08/07 03:51:01 BASE 7.95 4 8.64 6 -6.4 80 -9.3 0 0 960.6 NA 0.0000 9999 2530 0 0 0
2019/08/07 03:52:00 BASE 7.98 3 8.85 354 -6.4 79 -9.4 0 0 960.6 NA 0.0000 9999 2490 3150 6370 0
2019/08/07 03:53:01 BASE 7.91 3 8.85 354 -6.4 79 -9.4 0 0 960.7 NA 0.0000 9999 6200 0 0 0
2019/08/07 03:54:01 BASE 8.02 7 8.90 360 -6.4 78 -9.5 0 0 960.7 NA 0.0000 9999 2590 6370 0 0
2019/08/07 03:55:01 BASE 7.88 10 8.90 360 -6.4 78 -9.6 0 0 960.7 NA 0.0000 9999 2620 0 0 0
2019/08/07 03:56:01 BASE 7.67 9 8.90 360 -6.4 78 -9.6 0 0 960.8 NA 0.0000 9999 2300 2850 0 0
2019/08/07 03:57:01 BASE 7.90 8 8.90 360 -6.4 78 -9.6 0 0 960.7 NA 0.0000 9999 2330 0 0 0
2019/08/07 03:58:01 BASE 7.92 8 8.90 360 -6.4 78 -9.6 0 0 960.8 NA 0.0000 9999 2300 0 0 0
2019/08/07 03:59:01 BASE 7.89 9 8.90 360 -6.4 78 -9.6 0 0 960.8 NA 0.0000 9999 2460 0 0 0
2019/08/07 04:00:01 BASE 7.87 9 8.90 360 -6.4 78 -9.6 0 0 960.8 NA 0.0000 9999 2530 0 0 0
2019/08/07 04:01:54 BASE 8.06 8 8.95 6 -6.4 78 -9.6 0 0 960.8 NA 0.0000 9999 2690 6430 0 0
2019/08/07 04:02:01 BASE 8.15 8 9.21 6 -6.4 78 -9.6 0 0 M NA 0.0000 M 2760 6330 0 0
2019/08/07 04:03:01 BASE 9.42 12 11.42 20 -6.4 78 -9.6 0 0 960.8 NA 0.0000 9999 2490 0 0 0
2019/08/07 04:04:00 BASE 10.58 16 11.47 18 -6.4 78 -9.6 0 0 960.8 NA 0.0000 9999 3080 6500 0 0
2019/08/07 04:05:00 BASE 10.50 16 11.47 18 -6.4 78 -9.6 0 0 960.8 NA 0.0000 9999 3220 6530 0 0
2019/08/07 04:06:00 BASE 10.56 16 11.68 12 -6.4 78 -9.6 0 0 960.8 NA 0.0000 9999 6460 0 0 0
2019/08/07 04:07:00 BASE 10.83 17 11.73 17 -6.4 78 -9.6 0 0 960.8 NA 0.0000 9999 2560 3410 6430 0
2019/08/07 04:08:00 BASE 10.70 18 11.73 17 -6.4 78 -9.7 0 0 960.8 NA 0.0000 9999 3380 6500 0 0
2019/08/07 04:09:00 BASE 10.39 19 11.73 17 -6.5 78 -9.7 0 0 960.8 NA 0.0000 9999 3410 6400 0 0
2019/08/07 04:10:00 BASE 10.22 22 11.73 17 -6.5 78 -9.7 0 0 960.8 NA 0.0000 9999 3410 6560 0 0
2019/08/07 04:11:00 BASE 10.55 24 11.73 19 -6.6 78 -9.7 0 0 960.8 NA 0.0000 9999 6370 0 0 0
2019/08/07 04:12:00 BASE 10.77 24 11.73 19 -6.6 79 -9.7 0 0 960.8 NA 0.0000 9999 6400 0 0 0
2019/08/07 04:13:00 BASE 10.71 25 11.73 19 -6.7 79 -9.7 0 0 960.8 NA 0.0000 9999 6590 0 0 0
2019/08/07 04:14:00 BASE 10.60 25 11.73 19 -6.8 80 -9.7 0 0 960.8 NA 0.0000 9999 4270 6370 0 0
2019/08/07 04:15:00 BASE 10.70 25 11.73 19 -6.9 80 -9.7 0 0 960.8 NA 0.0000 9999 6630 0 0 0
2019/08/07 04:16:00 BASE 10.66 24 11.88 21 -6.9 81 -9.7 0 0 960.8 NA 0.0000 9999 3970 6560 0 0
2019/08/07 04:17:00 BASE 10.73 22 11.88 21 -6.9 81 -9.6 0 0 960.8 NA 0.0000 9999 3970 6660 0 0
2019/08/07 04:18:00 BASE 11.16 21 12.14 22 -6.9 82 -9.6 0 0 960.8 NA 0.0000 9999 3710 6560 0 0
2019/08/07 04:19:00 BASE 11.29 22 12.24 22 -6.9 82 -9.5 0 0 960.8 NA 0.0000 9999 3280 0 0 0
2019/08/07 04:20:00 BASE 11.13 22 12.24 22 -6.9 82 -9.5 0 0 960.8 NA 0.0000 9999 2990 0 0 0
2019/08/07 04:21:00 BASE 10.81 21 12.24 22 -6.9 82 -9.4 0 0 960.9 NA 0.0000 9999 3050 3610 0 0
2019/08/07 04:22:00 BASE 10.87 21 12.24 22 -6.9 83 -9.3 0 0 960.8 NA 0.0000 9999 3080 0 0 0
2019/08/07 04:23:00 BASE 11.28 20 12.60 15 -6.8 83 -9.3 0 0 960.8 NA 0.0000 9999 3120 0 0 0
2019/08/07 04:24:00 BASE 11.65 20 13.22 16 -6.8 83 -9.2 0 0 960.8 NA 0.0000 9999 3180 0 0 0
2019/08/07 04:25:00 BASE 11.78 21 13.22 16 -6.7 83 -9.1 0 0 960.8 NA 0.0000 9999 3280 0 0 0
2019/08/07 04:26:00 BASE 11.38 20 13.22 16 -6.7 84 -9.0 0 0 960.8 NA 0.0000 9999 3050 0 0 0
2019/08/07 04:27:00 BASE 11.29 18 13.22 16 -6.7 84 -9.0 0 0 960.8 NA 0.0000 9999 3020 0 0 0
2019/08/07 04:28:00 BASE 11.39 19 13.22 16 -6.7 84 -8.9 0 0 960.8 NA 0.0000 9999 3080 0 0 0
2019/08/07 04:29:00 BASE 11.16 21 13.22 16 -6.7 84 -8.9 0 0 960.8 NA 0.0000 9999 3020 0 0 0
2019/08/07 04:30:00 BASE 11.10 21 13.22 16 -6.7 84 -8.9 0 0 960.8 NA 0.0000 9999 2990 4330 0 0
2019/08/07 04:31:00 BASE 11.44 21 13.22 16 -6.7 84 -9.0 0 0 960.8 NA 0.0000 9999 3970 5450 6230 0
2019/08/07 04:32:00 BASE 11.62 19 13.22 16 -6.7 84 -8.9 0 0 960.8 NA 0.0000 9999 3940 6100 0 0
2019/08/07 04:33:00 BASE 11.49 19 13.22 16 -6.7 84 -8.9 0 0 960.8 NA 0.0000 9999 3870 6140 0 0
2019/08/07 04:34:00 BASE 11.74 18 12.71 22 -6.7 85 -8.9 0 0 960.8 NA 0.0000 9999 3810 5680 0 0
2019/08/07 04:35:00 BASE 11.92 18 12.81 28 -6.7 85 -8.8 0 0 960.8 NA 0.0000 9999 3900 4720 6170 0
2019/08/07 04:36:00 BASE 11.54 21 13.02 13 -6.7 85 -8.8 0 0 960.8 NA 0.0000 9999 3810 4560 6430 0
2019/08/07 04:37:00 BASE 11.69 20 13.22 18 -6.7 85 -8.8 0 0 960.8 NA 0.0000 9999 3640 6040 0 0
2019/08/07 04:38:00 BASE 11.78 19 13.22 18 -6.7 85 -8.8 0 0 960.8 NA 0.0000 9999 3740 4950 5740 0
2019/08/07 04:39:00 BASE 11.27 19 13.22 18 -6.7 85 -8.8 0 0 960.8 NA 0.0000 9999 3970 4990 6730 0
2019/08/07 04:40:00 BASE 10.70 20 13.22 18 -6.7 85 -8.8 0 0 960.8 NA 0.0000 9999 3970 6690 0 0
2019/08/07 04:41:00 BASE 10.66 21 13.22 18 -6.7 85 -8.8 0 0 960.8 NA 0.0000 9999 3480 4890 6890 0
2019/08/07 04:42:00 BASE 11.01 21 13.22 18 -6.7 85 -8.8 0 0 960.8 NA 0.0000 9999 3410 4720 0 0
2019/08/07 04:43:00 BASE 10.96 22 13.22 18 -6.7 85 -8.8 0 0 960.8 NA 0.0000 9999 3310 0 0 0
2019/08/07 04:44:00 BASE 10.77 22 13.22 18 -6.7 85 -8.8 0 0 960.8 NA 0.0000 9999 3480 0 0 0
2019/08/07 04:45:00 BASE 10.63 23 13.22 18 -6.8 85 -8.8 0 0 960.8 NA 0.0000 9999 3410 0 0 0
2019/08/07 04:46:00 BASE 10.38 23 13.22 18 -6.8 86 -8.8 0 0 960.8 NA 0.0000 9999 3350 0 0 0
2019/08/07 04:47:00 BASE 10.35 22 12.55 18 -6.8 86 -8.8 0 0 960.8 NA 0.0000 9999 3080 0 0 0
2019/08/07 04:48:00 BASE 10.09 21 12.55 18 -6.8 86 -8.7 0 0 960.9 NA 0.0000 9999 3050 0 0 0
2019/08/07 04:49:00 BASE 9.77 20 12.45 17 -6.8 86 -8.7 0 0 960.9 NA 0.0000 9999 3120 0 0 0
2019/08/07 04:50:00 BASE 9.77 20 12.45 17 -6.8 86 -8.7 0 0 960.9 NA 0.0000 9999 3180 0 0 0
2019/08/07 04:51:00 BASE 9.75 21 12.04 20 -6.8 86 -8.7 0 0 960.9 NA 0.0000 9999 3250 0 0 0
2019/08/07 04:52:00 BASE 10.14 22 12.04 18 -6.8 86 -8.7 0 0 960.9 NA 0.0000 9999 3220 0 0 0
2019/08/07 04:53:00 BASE 10.53 22 12.04 18 -6.8 86 -8.7 0 0 960.9 NA 0.0000 9999 3220 0 0 0
2019/08/07 04:54:00 BASE 10.26 23 12.04 18 -6.8 86 -8.7 0 0 960.9 NA 0.0000 9999 3410 0 0 0
2019/08/07 04:55:00 BASE 10.16 21 12.04 18 -6.8 86 -8.6 0 0 960.9 NA 0.0000 9999 3450 0 0 0
2019/08/07 04:56:00 BASE 10.37 19 12.04 18 -6.7 87 -8.6 0 0 960.9 NA 0.0000 9999 3480 0 0 0
2019/08/07 04:57:00 BASE 10.10 20 12.04 18 -6.7 87 -8.5 0 0 960.9 NA 0.0000 9999 3410 0 0 0
2019/08/07 04:58:00 BASE 9.26 19 12.04 18 -6.7 87 -8.5 0 0 960.9 NA 0.0000 9999 3380 0 0 0
2019/08/07 04:59:00 BASE 9.06 19 12.04 18 -6.7 87 -8.5 0 0 961.0 NA 0.0000 9999 3350 0 0 0
2019/08/07 05:00:00 BASE 9.90 19 12.04 18 -6.6 87 -8.4 0 0 960.9 NA 0.0000 9999 3310 0 0 0
2019/08/07 05:01:00 BASE 10.26 19 12.04 18 -6.6 87 -8.4 0 0 960.9 NA 0.0000 9999 3310 0 0 0
2019/08/07 05:02:00 BASE 10.25 19 11.73 19 -6.6 87 -8.4 0 0 960.9 NA 0.0000 9999 3220 0 0 0
2019/08/07 05:03:00 BASE 10.47 20 11.73 19 -6.6 87 -8.4 0 0 960.9 NA 0.0000 9999 3450 0 0 0
2019/08/07 05:04:00 BASE 10.55 21 11.73 19 -6.6 87 -8.4 0 0 961.0 NA 0.0000 9999 3480 0 0 0
2019/08/07 05:05:00 BASE 10.68 20 11.73 19 -6.6 87 -8.4 0 0 961.0 NA 0.0000 9999 3310 0 0 0
2019/08/07 05:06:00 BASE 10.65 20 11.73 19 -6.6 87 -8.4 0 0 961.0 NA 0.0000 9999 3280 5610 0 0
2019/08/07 05:07:00 BASE 10.66 19 11.73 19 -6.5 87 -8.3 0 0 960.9 NA 0.0000 9999 3380 0 0 0
2019/08/07 05:08:00 BASE 11.02 19 11.78 24 -6.5 87 -8.3 0 0 960.9 NA 0.0000 9999 3310 0 0 0
2019/08/07 05:09:00 BASE 10.98 19 11.78 24 -6.5 87 -8.4 0 0 960.9 NA 0.0000 9999 3350 0 0 0
2019/08/07 05:10:00 BASE 10.86 18 11.78 24 -6.5 87 -8.3 0 0 960.9 NA 0.0000 9999 3350 0 0 0
2019/08/07 05:11:00 BASE 10.75 18 11.78 24 -6.5 86 -8.4 0 0 960.9 NA 0.0000 9999 3280 0 0 0
2019/08/07 05:12:00 BASE 10.35 18 11.78 24 -6.5 86 -8.4 0 0 960.9 NA 0.0000 9999 3280 0 0 0
2019/08/07 05:13:00 BASE 10.32 19 11.78 24 -6.5 86 -8.4 0 0 960.9 NA 0.0000 9999 3310 4000 0 0
2019/08/07 05:14:00 BASE 10.41 20 11.78 24 -6.5 86 -8.4 0 0 961.0 NA 0.0000 9999 3350 0 0 0
2019/08/07 05:15:00 BASE 9.80 20 11.78 24 -6.5 86 -8.4 0 0 961.0 NA 0.0000 9999 3380 3970 0 0
2019/08/07 05:16:00 BASE 9.52 21 11.78 24 -6.5 86 -8.5 0 0 961.0 NA 0.0000 9999 3380 4100 0 0
2019/08/07 05:17:00 BASE 9.28 21 11.78 24 -6.5 86 -8.5 0 0 961.0 NA 0.0000 9999 3380 0 0 0
2019/08/07 05:18:00 BASE 8.99 23 11.37 13 -6.5 86 -8.5 0 0 961.0 NA 0.0000 9999 3610 0 0 0
2019/08/07 05:19:00 BASE 9.07 24 11.37 13 -6.5 86 -8.5 0 0 961.0 NA 0.0000 9999 3410 6790 0 0
2019/08/07 05:20:00 BASE 9.12 23 11.21 24 -6.5 86 -8.5 0 0 961.0 NA 0.0000 9999 6560 0 0 0
2019/08/07 05:21:00 BASE 8.91 24 11.21 24 -6.5 86 -8.5 0 0 961.0 NA 0.0000 9999 6170 0 0 0
2019/08/07 05:22:00 BASE 8.27 25 11.21 24 -6.5 86 -8.5 0 0 961.0 NA 0.0000 9999 6100 0 0 0
2019/08/07 05:23:00 BASE 7.68 26 11.21 24 -6.5 86 -8.5 0 0 961.0 NA 0.0000 9999 6460 0 0 0
2019/08/07 05:24:00 BASE 7.71 28 10.29 19 -6.5 86 -8.5 0 0 961.1 NA 0.0000 9999 6530 0 0 0
2019/08/07 05:25:00 BASE 8.10 29 10.19 19 -6.5 86 -8.5 0 0 961.1 NA 0.0000 9999 6500 0 0 0
2019/08/07 05:26:00 BASE 7.66 30 10.03 19 -6.6 85 -8.6 0 0 961.1 NA 0.0000 9999 6860 0 0 0
2019/08/07 05:27:00 BASE 7.14 30 10.03 19 -6.6 85 -8.6 0 0 961.1 NA 0.0000 9999 6760 0 0 0
2019/08/07 05:28:00 BASE 7.24 29 10.03 19 -6.6 85 -8.7 0 0 961.1 NA 0.0000 9999 6760 0 0 0
2019/08/07 05:29:00 BASE 6.86 30 9.77 20 -6.6 85 -8.7 0 0 961.1 NA 0.0000 9999 5940 6530 0 0
2019/08/07 05:30:00 BASE 6.47 29 9.41 23 -6.6 85 -8.7 0 0 961.1 NA 0.0000 9999 6730 0 0 0
2019/08/07 05:31:00 BASE 6.34 26 8.69 32 -6.5 85 -8.6 0 0 961.1 NA 0.0000 9999 6430 0 0 0
2019/08/07 05:32:00 BASE 6.07 26 8.69 32 -6.5 85 -8.6 0 0 961.2 NA 0.0000 9999 6560 0 0 0
2019/08/07 05:33:00 BASE 5.87 26 8.69 32 -6.5 85 -8.6 0 0 961.2 NA 0.0000 9999 6590 0 0 0
2019/08/07 05:34:00 BASE 5.82 24 8.69 32 -6.5 85 -8.6 0 0 961.2 NA 0.0000 9999 6730 0 0 0
2019/08/07 05:35:00 BASE 5.83 21 8.08 28 -6.5 85 -8.6 0 0 961.2 NA 0.0000 9999 6730 0 0 0
2019/08/07 05:36:00 BASE 6.14 23 8.08 28 -6.5 85 -8.7 0 0 961.2 NA 0.0000 9999 6590 0 0 0
2019/08/07 05:37:00 BASE 6.21 24 8.08 28 -6.5 85 -8.7 0 0 961.2 NA 0.0000 9999 6690 0 0 0
2019/08/07 05:38:00 BASE 5.85 19 7.41 31 -6.5 84 -8.7 0 0 961.2 NA 0.0000 9999 3580 6530 0 0
2019/08/07 05:39:00 BASE 5.73 18 7.25 28 -6.6 84 -8.8 0 0 961.2 NA 0.0000 9999 6560 0 0 0
2019/08/07 05:40:00 BASE 5.86 21 7.00 20 -6.6 84 -8.8 0 0 961.2 NA 0.0000 9999 6730 0 0 0
2019/08/07 05:41:00 BASE 5.79 22 7.00 20 -6.6 84 -8.8 0 0 961.2 NA 0.0000 9999 6920 0 0 0
2019/08/07 05:42:00 BASE 5.59 22 7.00 20 -6.6 84 -8.8 0 0 961.2 NA 0.0000 9999 6960 0 0 0
2019/08/07 05:43:00 BASE 5.38 22 7.00 20 -6.6 84 -8.9 0 0 961.2 NA 0.0000 9999 7050 0 0 0
2019/08/07 05:44:00 BASE 5.28 22 7.00 20 -6.6 83 -8.9 0 0 961.3 NA 0.0000 9999 6860 0 0 0
2019/08/07 05:45:00 BASE 5.38 23 7.00 20 -6.6 83 -9.0 0 0 961.3 NA 0.0000 9999 6890 0 0 0
2019/08/07 05:46:00 BASE 5.40 23 6.69 20 -6.6 83 -9.1 0 0 961.4 NA 0.0000 9999 6660 0 0 0
2019/08/07 05:47:00 BASE 5.65 23 6.69 22 -6.7 83 -9.1 0 0 961.4 NA 0.0000 9999 7190 0 0 0
2019/08/07 05:48:00 BASE 5.69 20 6.69 22 -6.7 83 -9.1 0 0 961.4 NA 0.0000 9999 7250 0 0 0
2019/08/07 05:49:00 BASE 5.43 20 6.69 22 -6.7 83 -9.1 0 0 961.4 NA 0.0000 9999 7250 0 0 0
2019/08/07 05:50:00 BASE 5.20 23 6.69 22 -6.7 83 -9.1 0 0 961.4 NA 0.0000 9999 6560 0 0 0
2019/08/07 05:51:00 BASE 5.18 25 6.69 22 -6.7 83 -9.1 0 0 961.4 NA 0.0000 9999 5940 6460 0 0
2019/08/07 05:52:00 BASE 5.41 24 6.69 22 -6.6 83 -9.1 0 0 961.4 NA 0.0000 9999 5970 6660 0 0
2019/08/07 05:53:00 BASE 5.53 21 6.69 22 -6.6 82 -9.1 0 0 961.4 NA 0.0000 9999 7090 0 0 0
2019/08/07 05:54:01 BASE 5.47 22 6.69 22 -6.6 82 -9.2 0 0 961.4 NA 0.0000 9999 6990 0 0 0
2019/08/07 05:55:00 BASE 5.18 18 6.69 22 -6.7 82 -9.2 0 0 961.4 NA 0.0000 9999 7150 0 0 0
2019/08/07 05:56:00 BASE 5.03 13 6.69 22 -6.6 82 -9.2 0 0 961.5 NA 0.0000 9999 7190 0 0 0
2019/08/07 05:57:00 BASE 5.34 15 6.28 13 -6.6 82 -9.2 0 0 961.5 NA 0.0000 9999 7190 0 0 0
2019/08/07 05:58:00 BASE 5.10 13 6.22 20 -6.6 82 -9.1 0 0 961.5 NA 0.0000 9999 4400 7450 0 0
2019/08/07 05:59:00 BASE 4.40 4 5.97 10 -6.6 82 -9.1 0 0 961.5 NA 0.0000 9999 5050 7190 0 0
2019/08/07 06:00:00 BASE 4.33 354 5.97 10 -6.5 82 -9.0 0 0 961.5 NA 0.0000 9999 4300 5480 0 0
2019/08/07 06:01:00 BASE 4.62 356 5.97 10 -6.5 83 -8.9 0 0 961.6 NA 0.0000 9999 3900 0 0 0
2019/08/07 06:02:00 BASE 4.26 355 5.97 10 -6.4 83 -8.9 0 0 961.6 NA 0.0000 9999 3900 0 0 0
2019/08/07 06:03:00 BASE 4.07 356 5.97 10 -6.3 82 -8.9 0 0 961.6 NA 0.0000 9999 3710 0 0 0
2019/08/07 06:04:00 BASE 4.12 3 5.97 10 -6.3 82 -8.8 0 0 961.6 NA 0.0000 9999 3510 0 0 0
2019/08/07 06:05:00 BASE 3.93 5 5.97 10 -6.3 82 -8.8 0 0 961.6 NA 0.0000 9999 3580 0 0 0
2019/08/07 06:06:01 BASE 3.73 5 5.97 10 -6.3 82 -8.9 0 0 961.7 NA 0.0000 9999 6860 0 0 0
2019/08/07 06:07:00 BASE 3.39 10 5.30 343 -6.3 82 -8.9 0 0 961.7 NA 0.0000 9999 4990 5580 0 0
2019/08/07 06:08:00 BASE 2.92 14 5.30 343 -6.4 82 -8.9 0 0 961.7 NA 0.0000 9999 5120 5870 0 0
2019/08/07 06:09:00 BASE 2.94 9 5.30 343 -6.4 82 -9.0 0 0 961.7 NA 0.0000 9999 4360 5120 0 0
2019/08/07 06:10:00 BASE 3.50 2 5.30 343 -6.4 82 -9.0 0 0 961.7 NA 0.0000 9999 3970 4860 5610 0
2019/08/07 06:11:00 BASE 4.09 359 5.04 351 -6.5 82 -9.0 0 0 961.7 NA 0.0000 9999 4300 0 0 0
2019/08/07 06:12:00 BASE 4.18 359 5.04 351 -6.4 82 -9.0 0 0 961.7 NA 0.0000 9999 3940 0 0 0
2019/08/07 06:13:00 BASE 4.22 356 5.50 360 -6.4 82 -9.0 0 0 961.7 NA 0.0000 9999 3970 0 0 0
2019/08/07 06:14:00 BASE 4.78 353 6.02 355 -6.4 82 -9.0 0 0 961.7 NA 0.0000 9999 3640 0 0 0
2019/08/07 06:15:00 BASE 5.00 353 6.02 355 -6.3 81 -9.0 0 0 961.7 NA 0.0000 9999 3810 0 0 0
2019/08/07 06:16:00 BASE 4.78 357 6.02 355 -6.3 81 -9.0 0 0 961.8 NA 0.0000 9999 3900 0 0 0
2019/08/07 06:17:00 BASE 4.03 5 6.02 355 -6.4 81 -9.1 0 0 961.8 NA 0.0000 9999 3940 0 0 0
2019/08/07 06:18:00 BASE 3.34 9 6.02 355 -6.4 81 -9.2 0 0 961.8 NA 0.0000 9999 3640 0 0 0
2019/08/07 06:19:00 BASE 3.47 3 6.02 355 -6.5 80 -9.3 0 0 961.8 NA 0.0000 9999 3540 0 0 0
2019/08/07 06:20:00 BASE 3.60 359 6.02 355 -6.5 80 -9.3 0 0 961.8 NA 0.0000 9999 3310 0 0 0
2019/08/07 06:21:00 BASE 3.57 360 6.02 355 -6.6 80 -9.4 0 0 961.8 NA 0.0000 9999 3350 0 0 0
2019/08/07 06:22:00 BASE 4.09 354 6.02 355 -6.6 81 -9.4 0 0 961.9 NA 0.0000 9999 3350 0 0 0
2019/08/07 06:23:00 BASE 4.86 347 6.02 355 -6.6 81 -9.3 0 0 961.9 NA 0.0000 9999 3180 0 0 0
2019/08/07 06:24:00 BASE 5.92 348 7.25 352 -6.6 81 -9.3 0 0 961.9 NA 0.0000 9999 3710 4430 6230 0
2019/08/07 06:25:00 BASE 6.50 350 7.25 352 -6.5 81 -9.3 0 0 962.0 NA 0.0000 9999 6430 0 0 0
2019/08/07 06:26:00 BASE 6.49 349 7.41 352 -6.5 80 -9.4 0 0 962.0 NA 0.0000 9999 6860 0 0 0
2019/08/07 06:27:00 BASE 6.97 351 7.87 353 -6.5 80 -9.4 0 0 962.0 NA 0.0000 9999 2330 3380 6760 0
2019/08/07 06:28:00 BASE 7.31 350 8.54 346 -6.5 79 -9.4 0 0 962.0 NA 0.0000 9999 6860 0 0 0
2019/08/07 06:29:00 BASE 6.93 352 8.54 346 -6.5 79 -9.5 0 0 962.0 NA 0.0000 9999 6790 0 0 0
2019/08/07 06:30:00 BASE 6.58 357 8.54 346 -6.5 79 -9.5 0 0 962.0 NA 0.0000 9999 6920 0 0 0
2019/08/07 06:31:00 BASE 6.81 2 8.54 346 -6.5 79 -9.5 0 0 962.0 NA 0.0000 9999 3610 6820 0 0
2019/08/07 06:32:00 BASE 7.37 6 8.54 346 -6.5 79 -9.5 0 0 962.0 NA 0.0000 9999 3640 6860 0 0
2019/08/07 06:33:00 BASE 8.23 7 9.98 8 -6.5 79 -9.5 0 0 962.0 NA 0.0000 9999 3580 6920 0 0
2019/08/07 06:34:00 BASE 9.54 8 11.73 13 -6.5 79 -9.5 0 0 962.0 NA 0.0000 9999 3050 0 0 0
2019/08/07 06:35:00 BASE 10.78 12 12.45 14 -6.5 79 -9.5 0 0 962.0 NA 0.0000 9999 3510 0 0 0
2019/08/07 06:36:00 BASE 11.73 15 12.71 16 -6.6 79 -9.5 0 0 961.9 NA 0.0000 9999 3480 0 0 0
2019/08/07 06:37:00 BASE 11.78 15 12.71 16 -6.7 79 -9.6 0 0 962.0 NA 0.0000 9999 3510 0 0 0
2019/08/07 06:38:00 BASE 11.14 16 12.71 16 -6.7 80 -9.6 0 0 962.0 NA 0.0000 9999 2300 3480 0 0
2019/08/07 06:39:00 BASE 10.99 17 12.71 16 -6.8 80 -9.6 0 0 962.0 NA 0.0000 9999 2200 3410 0 0
2019/08/07 06:40:00 BASE 11.06 17 12.71 16 -6.8 80 -9.6 0 0 962.0 NA 0.0000 9999 2230 3020 0 0
2019/08/07 06:41:00 BASE 11.27 18 12.71 16 -6.8 81 -9.6 0 0 962.0 NA 0.0000 9999 2330 3540 0 0
2019/08/07 06:42:00 BASE 11.51 20 12.71 16 -6.8 81 -9.5 0 0 962.0 NA 0.0000 9999 2170 3510 0 0
2019/08/07 06:43:00 BASE 11.50 20 12.71 16 -6.8 81 -9.5 0 0 962.1 NA 0.0000 9999 2430 0 0 0
2019/08/07 06:44:00 BASE 10.98 19 12.71 16 -6.8 81 -9.5 0 0 962.1 NA 0.0000 9999 1710 0 0 0
2019/08/07 06:45:00 BASE 10.52 19 12.71 16 -6.8 82 -9.4 0 0 962.1 NA 0.0000 9999 1640 0 0 0
2019/08/07 06:46:00 BASE 10.50 20 12.35 20 -6.8 82 -9.4 0 0 962.1 NA 0.0000 9999 1610 0 0 0
2019/08/07 06:47:00 BASE 10.36 22 12.35 20 -6.9 82 -9.4 0 0 962.1 NA 0.0000 9999 1640 0 0 0
2019/08/07 06:48:00 BASE 9.92 23 12.35 20 -6.9 82 -9.4 0 0 962.2 NA 0.0000 9999 1640 0 0 0
2019/08/07 06:49:00 BASE 9.88 22 12.35 20 -7.0 82 -9.4 0 0 962.1 NA 0.0000 9999 1480 0 0 0
2019/08/07 06:50:00 BASE 10.12 23 12.35 20 -7.0 83 -9.4 0 0 962.2 NA 0.0000 9999 1440 0 0 0
2019/08/07 06:51:00 BASE 9.52 24 12.09 20 -7.0 83 -9.5 0 0 962.2 NA 0.0000 9999 1440 0 0 0
2019/08/07 06:52:00 BASE 9.31 23 12.04 20 -7.1 83 -9.5 0 0 962.2 NA 0.0000 9999 1020 0 0 0
2019/08/07 06:53:00 BASE 9.52 23 11.78 20 -7.1 83 -9.5 0 0 962.2 NA 0.0000 9999 1280 0 0 0
2019/08/07 06:54:00 BASE 9.41 22 11.78 20 -7.1 83 -9.4 0 0 962.2 NA 0.0000 9999 750 0 0 0
2019/08/07 06:55:00 BASE 9.31 22 11.78 20 -7.1 84 -9.4 0 0 962.2 NA 0.0000 9999 560 2530 0 0
2019/08/07 06:56:00 BASE 8.86 22 11.37 17 -7.1 84 -9.4 0 0 962.2 NA 0.0000 9999 750 2430 0 0
2019/08/07 06:57:00 BASE 8.69 22 11.32 24 -7.1 84 -9.3 0 0 962.2 NA 0.0000 -SN 9999 1410 0 0 0
2019/08/07 06:58:00 BASE 8.49 23 11.32 24 -7.0 84 -9.3 0 0 962.2 NA 0.0000 -SN 9999 1440 2330 0 0
2019/08/07 06:59:00 BASE 8.32 21 11.32 24 -7.0 84 -9.2 0 0 962.2 NA 0.0000 -SN 9999 1540 0 0 0
2019/08/07 07:00:00 BASE 8.52 20 10.49 23 -7.0 84 -9.2 0 0 962.2 NA 0.0000 -SN 9999 1540 2360 0 0
2019/08/07 07:01:00 BASE 9.03 18 10.49 23 -6.9 84 -9.1 0 0 962.3 NA 0.0000 -SN 9999 1510 0 0 0
2019/08/07 07:02:00 BASE 8.96 18 10.08 12 -6.9 84 -9.1 0 0 962.3 NA 0.0000 -SN 9999 1570 0 0 0
2019/08/07 07:03:00 BASE 8.14 20 10.08 12 -6.9 85 -9.0 0 0 962.3 NA 0.0000 -SN 9999 1610 0 0 0
2019/08/07 07:04:00 BASE 7.93 21 9.93 16 -6.9 85 -9.0 0 0 962.3 NA 0.0000 -SN 9999 1640 0 0 0
2019/08/07 07:05:00 BASE 7.83 23 9.93 16 -6.9 85 -9.0 0 0 962.3 NA 0.0000 -SN 9999 720 1610 0 0
2019/08/07 07:06:00 BASE 7.65 23 9.93 16 -6.8 85 -8.9 0 0 962.3 NA 0.0000 -SN 9999 620 1670 0 0
2019/08/07 07:07:00 BASE 7.45 22 9.93 16 -6.8 85 -8.9 0 0 962.3 NA 0.0000 -SN 9999 660 0 0 0
2019/08/07 07:08:00 BASE 7.40 20 9.93 16 -6.8 85 -8.9 0 0 962.3 NA 0.0000 -SN 9999 430 0 0 0
2019/08/07 07:09:00 BASE 7.72 19 9.93 16 -6.8 85 -8.9 0 0 962.3 NA 0.0000 -SN 9999 390 0 0 0
2019/08/07 07:10:00 BASE 8.04 15 9.93 16 -6.8 85 -8.9 0 0 962.3 NA 0.0000 -SN 9999 790 0 0 0
2019/08/07 07:11:00 BASE 8.23 15 9.11 14 -6.7 85 -8.8 0 0 962.3 NA 0.0000 -SN 9999 460 0 0 0
2019/08/07 07:12:00 BASE 8.45 16 9.62 9 -6.7 85 -8.8 0 0 962.4 NA 0.0000 -SN 9999 590 0 0 0
2019/08/07 07:13:00 BASE 8.62 15 9.62 9 -6.7 85 -8.8 0 0 962.4 NA 0.0000 -SN 9999 520 0 0 0
2019/08/07 07:14:00 BASE 8.63 13 9.72 7 -6.7 85 -8.8 0 0 962.5 NA 0.0000 -SN 9999 330 1440 0 0
2019/08/07 07:15:00 BASE 8.85 12 10.39 7 -6.7 85 -8.8 0 0 962.5 NA 0.0000 -SN 9999 390 0 0 0
2019/08/07 07:16:00 BASE 9.02 11 10.39 7 -6.7 85 -8.8 0 0 962.5 NA 0.0000 -SN 9999 360 0 0 0
2019/08/07 07:17:00 BASE 9.08 10 10.39 7 -6.7 85 -8.8 0 0 962.5 NA 0.0000 -SN 9999 360 0 0 0
2019/08/07 07:18:00 BASE 9.07 8 10.39 7 -6.7 85 -8.8 0 0 962.5 NA 0.0000 -SN 9999 260 0 0 0
2019/08/07 07:19:00 BASE 8.82 10 10.39 7 -6.7 85 -8.9 0 0 962.5 NA 0.0000 -SN 9999 230 0 0 0
2019/08/07 07:20:00 BASE 8.21 15 10.39 7 -6.7 85 -8.9 0 0 962.5 NA 0.0000 -SN 9999 230 0 0 0
2019/08/07 07:21:00 BASE 8.09 15 10.39 7 -6.7 85 -8.9 0 0 962.5 NA 0.0000 -SN 9999 390 1280 0 0
2019/08/07 07:22:00 BASE 8.71 12 10.39 7 -6.7 85 -8.9 0 0 962.5 NA 0.0000 -SN 9999 660 0 0 0
2019/08/07 07:23:00 BASE 8.72 13 10.39 7 -6.7 85 -8.9 0 0 962.5 NA 0.0000 -SN 9999 1480 0 0 0
2019/08/07 07:24:00 BASE 8.71 15 10.39 7 -6.7 85 -8.9 0 0 962.5 NA 0.0000 -SN 9999 1640 0 0 0
2019/08/07 07:25:00 BASE 9.02 16 10.34 13 -6.7 85 -8.8 0 0 962.5 NA 0.0000 -SN 9999 1480 0 0 0
2019/08/07 07:26:00 BASE 8.68 16 10.34 13 -6.8 85 -8.9 0 0 962.6 NA 0.0000 -SN 9999 1410 0 0 0
2019/08/07 07:27:00 BASE 8.34 14 10.34 13 -6.8 85 -8.9 0 0 962.6 NA 0.0000 -SN 9999 1180 0 0 0
2019/08/07 07:28:00 BASE 8.03 14 10.34 13 -6.8 85 -8.9 0 0 962.6 NA 0.0000 -SN 9999 850 0 0 0
2019/08/07 07:29:00 BASE 7.96 18 10.34 13 -6.8 85 -8.9 0 0 962.6 NA 0.0000 -SN 9999 890 0 0 0
2019/08/07 07:30:00 BASE 7.73 17 10.34 13 -6.8 85 -8.9 0 0 962.6 NA 0.0000 -SN 9999 750 0 0 0
2019/08/07 07:31:00 BASE 7.30 16 10.34 13 -6.8 85 -8.9 0 0 962.6 NA 0.0000 -SN 9999 660 0 0 0
2019/08/07 07:32:00 BASE 7.10 18 10.34 13 -6.8 85 -8.9 0 0 962.6 NA 0.0000 -SN 9999 430 0 0 0
2019/08/07 07:33:00 BASE 6.58 21 10.34 13 -6.8 85 -8.9 0 0 962.7 NA 0.0000 -SN 9999 390 0 0 0
2019/08/07 07:34:00 BASE 5.91 22 10.34 13 -6.8 85 -8.9 0 0 962.7 NA 0.0000 -SN 9999 390 0 0 0
2019/08/07 07:35:00 BASE 5.86 23 9.57 8 -6.8 85 -8.9 0 0 962.7 NA 0.0000 -SN 9999 360 0 0 0
2019/08/07 07:36:00 BASE 5.64 26 9.57 8 -6.8 85 -8.9 0 0 962.8 NA 0.0000 -SN 9999 300 0 0 0
2019/08/07 07:37:00 BASE 4.55 32 9.00 21 -6.9 85 -9.0 0 0 962.8 NA 0.0000 -SN 7000 0 0 0 1310
2019/08/07 07:38:00 BASE 4.05 32 9.00 21 -6.9 85 -9.0 0 0 962.8 NA 0.0000 -SN 4300 0 0 0 1310
2019/08/07 07:39:00 BASE 4.58 27 8.28 19 -6.9 85 -9.0 0 0 962.8 NA 0.0000 -SN BR 3800 0 0 0 1250
2019/08/07 07:40:00 BASE 4.63 26 8.28 19 -6.9 85 -9.0 0 0 962.8 NA 0.0000 -SN BR 3100 0 0 0 1050
2019/08/07 07:41:00 BASE 3.64 35 8.13 17 -6.9 85 -9.0 0 0 962.8 NA 0.0000 -SN BR 2300 0 0 0 1080
2019/08/07 07:42:00 BASE 2.83 46 7.00 17 -6.9 85 -9.0 0 0 962.9 NA 0.0000 -SN BR 2200 0 0 0 1080
2019/08/07 07:43:00 BASE 3.03 39 6.79 23 -7.0 86 -9.0 0 0 962.9 NA 0.0000 -SN BR 1800 0 0 0 1120
2019/08/07 07:44:00 BASE 3.40 42 6.79 23 -7.0 86 -9.0 0 0 962.9 NA 0.0000 -SN BR 2000 0 0 0 1410
2019/08/07 07:45:00 BASE 3.47 53 5.50 22 -7.1 86 -9.0 0 0 962.9 NA 0.0000 -SN BR 2000 0 0 0 1440
2019/08/07 07:46:00 BASE 3.81 51 5.45 25 -7.1 87 -9.0 0 0 962.9 NA 0.0000 -SN BR 1900 0 0 0 1480
2019/08/07 07:47:00 BASE 4.28 46 5.45 25 -7.1 87 -9.0 0 0 962.9 NA 0.0000 -SN BR 2000 0 0 0 1350
2019/08/07 07:48:00 BASE 4.31 40 5.45 25 -7.1 87 -8.9 0 0 962.9 NA 0.0000 -SN BR 2500 0 0 0 1350
2019/08/07 07:49:00 BASE 4.19 42 5.20 21 -7.2 87 -8.9 0 0 962.9 NA 0.0000 -SN BR 2700 0 0 0 1280
2019/08/07 07:50:00 BASE 4.49 45 5.20 48 -7.2 88 -8.9 0 0 962.9 NA 0.0000 -SN BR 2200 0 0 0 1210
2019/08/07 07:51:00 BASE 5.01 48 6.02 49 -7.3 88 -8.9 0 0 962.9 NA 0.0000 -SN BR 2200 0 0 0 1050
2019/08/07 07:52:00 BASE 5.39 48 6.43 55 -7.3 89 -8.9 0 0 962.9 NA 0.0000 -SN BR 1800 0 0 0 980
2019/08/07 07:53:00 BASE 5.08 46 6.43 55 -7.4 89 -8.9 0 0 962.9 NA 0.0000 -SN BR 1500 0 0 0 950
2019/08/07 07:54:00 BASE 5.00 45 6.43 55 -7.4 90 -8.8 0 0 962.9 NA 0.0000 -SN BR 1400 0 0 0 950
2019/08/07 07:55:00 BASE 5.38 39 6.43 55 -7.4 90 -8.8 0 0 963.0 NA 0.0000 -SN BR 1400 0 0 0 920
2019/08/07 07:56:00 BASE 4.79 30 6.43 55 -7.4 91 -8.7 0 0 963.1 NA 0.0000 -SN BR 1700 0 0 0 950
2019/08/07 07:57:00 BASE 4.15 25 6.43 55 -7.4 91 -8.6 0 0 963.1 NA 0.0000 -SN BR 2100 0 0 0 1020
2019/08/07 07:58:00 BASE 4.30 24 6.43 55 -7.4 92 -8.5 0 0 963.1 NA 0.0000 -SN BR 2300 0 0 0 980
2019/08/07 07:59:00 BASE 4.08 29 6.43 55 -7.4 92 -8.5 0 0 963.2 NA 0.0000 -SN BR 2300 0 0 0 980
2019/08/07 08:00:00 BASE 3.79 29 6.43 55 -7.5 93 -8.4 0 0 963.2 NA 0.0000 -SN BR 1700 0 0 0 980
2019/08/07 08:01:00 BASE 3.53 24 6.43 55 -7.5 93 -8.4 0 0 963.2 NA 0.0000 -SN BR 1300 0 0 0 950
2019/08/07 08:02:00 BASE 2.93 26 6.33 29 -7.5 94 -8.3 0 0 963.2 NA 0.0000 -SN BR 1300 0 0 0 950
2019/08/07 08:03:00 BASE 2.92 27 6.33 29 -7.5 94 -8.3 0 0 963.3 NA 0.0000 -SN BR 1400 0 0 0 1210
2019/08/07 08:04:10 BASE 3.05 21 6.33 29 -7.5 95 -8.2 0 0 963.3 NA 0.0000 -SN BR 1500 0 0 0 1310
2019/08/07 08:05:00 BASE 2.86 28 4.99 17 -7.5 95 -8.1 0 0 963.4 NA 0.0000 -SN BR 2100 0 0 0 2230
2019/08/07 08:06:00 BASE 2.86 42 4.99 17 -7.5 96 -8.1 0 0 963.4 NA 0.0000 -SN BR 2000 0 0 0 2330
2019/08/07 08:07:00 BASE 2.64 47 4.78 21 -7.5 96 -8.0 0 0 963.4 NA 0.0000 -SN BR 2200 0 0 0 2790
2019/08/07 08:08:00 BASE 1.97 55 4.37 16 -7.6 97 -8.0 0 0 963.5 NA 0.0000 -SN BR 2000 0 0 0 2990
2019/08/07 08:09:00 BASE 1.43 63 4.37 16 -7.6 97 -8.0 0 0 963.5 NA 0.0000 -SN BR 1900 0 0 0 3150
2019/08/07 08:10:00 BASE 1.53 64 3.96 44 -7.6 98 -7.9 0 0 963.5 NA 0.0000 -SN BR 2400 0 0 0 2850
2019/08/07 08:11:00 BASE 1.99 56 3.96 44 -7.6 98 -7.9 0 0 963.6 NA 0.0000 -SN BR 2600 0 0 0 2560
2019/08/07 08:12:00 BASE 1.87 50 3.96 44 -7.7 99 -7.8 0 0 963.6 NA 0.0000 -SN BR 2300 0 0 0 2690
2019/08/07 08:13:00 BASE 1.62 53 3.45 39 -7.7 99 -7.8 0 0 963.6 NA 0.0000 -SN BR 2600 230 0 0 0
2019/08/07 08:14:00 BASE 1.98 48 3.45 39 -7.7 99 -7.8 0 0 963.6 NA 0.0000 -SN BR 3200 0 0 0 2690
2019/08/07 08:15:00 BASE 1.95 38 3.09 51 -7.7 100 -7.7 0 0 963.6 NA 0.0000 -SN BR 3000 260 0 0 0
2019/08/07 08:16:00 BASE 1.64 49 3.09 51 -7.7 100 -7.7 0 0 963.6 NA 0.0000 -SN BR 3000 300 0 0 0
2019/08/07 08:17:00 BASE 1.45 59 2.83 46 -7.7 100 -7.7 0 0 963.6 NA 0.0000 -SN BR 3200 300 0 0 0
2019/08/07 08:18:00 BASE 1.05 49 2.83 46 -7.7 100 -7.7 0 0 963.6 NA 0.0000 -SN BR 3600 300 0 0 0
2019/08/07 08:19:00 BASE 1.05 27 2.98 16 -7.7 100 -7.7 0 0 963.6 NA 0.0000 -SN BR 4000 300 0 0 0
2019/08/07 08:20:00 BASE 2.36 11 3.55 17 -7.7 100 -7.7 0 0 963.6 NA 0.0000 -SN BR 4800 230 0 0 0
2019/08/07 08:21:00 BASE 2.93 15 3.55 17 -7.7 100 -7.7 0 0 963.6 NA 0.0000 -SN BR 5000 260 0 0 0
2019/08/07 08:22:00 BASE 3.25 19 4.58 26 -7.6 100 -7.6 0 0 963.6 NA 0.0000 -SN BR 4100 300 0 0 0
2019/08/07 08:23:00 BASE 3.90 22 4.73 20 -7.6 100 -7.6 0 0 963.6 NA 0.0000 -SN BR 3800 0 0 0 2430
2019/08/07 08:24:00 BASE 3.74 16 4.73 20 -7.6 100 -7.6 0 0 963.6 NA 0.0000 -SN BR 3900 0 0 0 1970
2019/08/07 08:25:00 BASE 3.81 12 4.73 20 -7.6 100 -7.6 0 0 963.6 NA 0.0000 -SN BR 4500 0 0 0 1380
2019/08/07 08:26:00 BASE 3.52 14 4.73 20 -7.5 100 -7.5 0 0 963.6 NA 0.0000 -SN BR 3700 0 0 0 1380
2019/08/07 08:27:00 BASE 3.42 10 4.73 20 -7.5 100 -7.5 0 0 963.6 NA 0.0000 -SN BR 3200 0 0 0 1510
2019/08/07 08:28:00 BASE 4.01 13 4.73 20 -7.5 100 -7.5 0 0 963.6 NA 0.0000 -SN BR 3300 0 0 0 1440
2019/08/07 08:29:00 BASE 4.25 19 5.04 17 -7.5 100 -7.5 0 0 963.6 NA 0.0000 -SN BR 2800 0 0 0 1440
2019/08/07 08:30:00 BASE 3.91 19 5.04 17 -7.5 100 -7.5 0 0 963.7 NA 0.0000 -SN BR 1900 0 0 0 1770
2019/08/07 08:31:00 BASE 3.90 26 5.04 17 -7.5 100 -7.5 0 0 963.7 NA 0.0000 -SN BR 1400 0 0 0 1900
2019/08/07 08:32:00 BASE 4.21 32 5.04 17 -7.5 100 -7.5 0 0 963.7 NA 0.0000 -SN BR 1300 0 0 0 1900
2019/08/07 08:33:00 BASE 4.32 30 5.04 28 -7.5 100 -7.5 0 0 963.7 NA 0.0000 -SN BR 1200 0 0 0 1670
2019/08/07 08:34:00 BASE 4.37 28 5.14 24 -7.5 100 -7.5 0 0 963.7 NA 0.0000 -SN BR 1200 0 0 0 1640
2019/08/07 08:35:00 BASE 4.19 28 5.14 24 -7.5 100 -7.5 0 0 963.8 NA 0.0000 -SN BR 1200 0 0 0 1640
2019/08/07 08:36:00 BASE 3.85 34 5.14 24 -7.5 100 -7.5 0 0 963.9 NA 0.0000 -SN BR 1200 0 0 0 1740
2019/08/07 08:37:00 BASE 3.59 41 5.14 24 -7.5 100 -7.5 0 0 963.9 NA 0.0000 -SN BR 1100 0 0 0 1770
2019/08/07 08:38:00 BASE 3.16 41 5.14 24 -7.5 100 -7.5 0 0 963.9 NA 0.0000 -SN BR 0900 0 0 0 1710
2019/08/07 08:39:00 BASE 2.91 38 5.14 24 -7.5 100 -7.5 0 0 963.9 NA 0.0000 -SN BR 1000 0 0 0 1770
2019/08/07 08:40:00 BASE 2.55 33 5.14 24 -7.5 100 -7.5 0 0 964.0 NA 0.0000 -SN BR 1300 0 0 0 1610
2019/08/07 08:41:00 BASE 1.81 37 5.14 24 -7.5 100 -7.5 0 0 964.0 NA 0.0000 -SN BR 1300 0 0 0 1510
2019/08/07 08:42:00 BASE 1.80 39 5.14 24 -7.5 100 -7.5 0 0 964.0 NA 0.0000 -SN BR 1200 0 0 0 1380
2019/08/07 08:43:00 BASE 2.01 30 5.14 24 -7.5 100 -7.5 0 0 964.0 NA 0.0000 -SN BR 1400 0 0 0 1310
2019/08/07 08:44:00 BASE 1.84 19 4.78 22 -7.5 100 -7.5 0 0 964.1 NA 0.0000 -SN BR 2100 0 0 0 1380
2019/08/07 08:45:00 BASE 1.86 16 4.32 41 -7.5 100 -7.5 0 0 964.1 NA 0.0000 -SN BR 1900 0 0 0 1440
2019/08/07 08:46:00 BASE 2.04 19 4.06 46 -7.5 100 -7.5 0 0 964.1 NA 0.0000 -SN BR 1600 0 0 0 1380
2019/08/07 08:47:00 BASE 1.89 15 3.45 11 -7.5 100 -7.5 0 0 964.1 NA 0.0000 -SN BR 1400 0 0 0 1410
2019/08/07 08:48:00 BASE 1.52 21 3.45 11 -7.5 100 -7.5 0 0 964.1 NA 0.0000 -SN BR 1400 0 0 0 1740
2019/08/07 08:49:00 BASE 1.77 32 3.04 22 -7.5 100 -7.5 0 0 964.1 NA 0.0000 -SN BR 1400 0 0 0 1670
2019/08/07 08:50:00 BASE 2.07 31 2.57 34 -7.5 100 -7.5 0 0 964.1 NA 0.0000 -SN BR 1300 0 0 0 1480
2019/08/07 08:51:00 BASE 1.75 30 2.57 34 -7.5 100 -7.5 0 0 964.2 NA 0.0000 -SN BR 1100 0 0 0 1610
2019/08/07 08:52:00 BASE 1.68 32 2.52 26 -7.5 100 -7.5 0 0 964.2 NA 0.0000 -SN BR 1300 0 0 0 1710
2019/08/07 08:53:00 BASE 1.62 32 2.52 26 -7.6 100 -7.6 0 0 964.2 NA 0.0000 -SN BR 1200 0 0 0 1970
2019/08/07 08:54:00 BASE 1.46 23 2.52 26 -7.6 100 -7.6 0 0 964.2 NA 0.0000 -SN BR 1100 0 0 0 1940
2019/08/07 08:55:00 BASE 1.63 11 2.52 26 -7.6 100 -7.6 0 0 964.2 NA 0.0000 -SN BR 1100 0 0 0 2170
2019/08/07 08:56:00 BASE 1.37 7 2.52 26 -7.6 100 -7.6 0 0 964.2 NA 0.0000 -SN BR 1200 0 0 0 2130
2019/08/07 08:57:00 BASE 1.28 351 2.52 26 -7.6 100 -7.6 0 0 964.3 NA 0.0000 -SN BR 1400 0 0 0 2170
2019/08/07 08:58:00 BASE 1.53 328 2.52 26 -7.6 100 -7.6 0 0 964.3 NA 0.0000 -SN BR 2300 0 0 0 2200
2019/08/07 08:59:00 BASE 1.36 317 2.21 34 -7.6 100 -7.6 0 0 964.3 NA 0.0000 -SN BR 2700 0 0 0 2200
2019/08/07 09:00:00 BASE 1.43 314 2.16 33 -7.6 100 -7.6 0 0 964.3 NA 0.0000 -SN BR 2400 0 0 0 2300
2019/08/07 09:01:00 BASE 1.63 321 2.06 308 -7.6 100 -7.6 0 0 964.3 NA 0.0000 -SN BR 2400 0 0 0 2300
2019/08/07 09:02:00 BASE 1.71 319 2.06 308 -7.6 100 -7.6 0 0 964.4 NA 0.0000 -SN BR 2700 1050 0 0 0
2019/08/07 09:03:00 BASE 1.70 313 2.06 308 -7.6 100 -7.6 0 0 964.4 NA 0.0000 -SN BR 3000 260 0 0 0
2019/08/07 09:04:00 BASE 1.55 314 2.06 308 -7.6 100 -7.6 0 0 964.5 NA 0.0000 -SN BR 2800 260 0 0 0
2019/08/07 09:05:00 BASE 1.40 321 2.06 308 -7.6 100 -7.6 0 0 964.5 NA 0.0000 -SN BR 3900 260 0 0 0
2019/08/07 09:06:00 BASE 1.22 329 2.06 308 -7.6 100 -7.6 0 0 964.5 NA 0.0000 -SN BR 3700 260 0 0 0
2019/08/07 09:07:00 BASE 1.44 329 2.11 323 -7.6 100 -7.6 0 0 964.5 NA 0.0000 -SN BR 3400 260 0 0 0
2019/08/07 09:08:00 BASE 1.73 335 2.11 323 -7.6 100 -7.6 0 0 964.5 NA 0.0000 -SN BR 3600 260 0 0 0
2019/08/07 09:09:00 BASE 1.51 322 2.11 323 -7.6 100 -7.6 0 0 964.6 NA 0.0000 -SN BR 3400 230 0 0 0
2019/08/07 09:10:00 BASE 1.58 301 2.11 323 -7.6 100 -7.6 0 0 964.6 NA 0.0000 -SN BR 3400 230 0 0 0
2019/08/07 09:11:00 BASE 1.69 300 2.11 323 -7.6 100 -7.6 0 0 964.6 NA 0.0000 -SN BR 3500 0 0 0 1710
2019/08/07 09:12:00 BASE 1.65 309 2.31 309 -7.6 100 -7.6 0 0 964.7 NA 0.0000 -SN BR 3300 0 0 0 1770
2019/08/07 09:13:00 BASE 1.82 322 2.31 309 -7.6 100 -7.6 0 0 964.7 NA 0.0000 -SN BR 3300 0 0 0 2070
2019/08/07 09:14:00 BASE 2.21 322 2.73 319 -7.6 100 -7.6 0 0 964.7 NA 0.0000 -SN BR 3600 0 0 0 2130
2019/08/07 09:15:00 BASE 2.55 320 2.83 323 -7.6 100 -7.6 0 0 964.7 NA 0.0000 -SN BR 3200 0 0 0 1900
2019/08/07 09:16:00 BASE 2.59 321 2.83 323 -7.6 100 -7.6 0 0 964.7 NA 0.0000 -SN BR 3000 0 0 0 1710
2019/08/07 09:17:00 BASE 2.73 320 3.09 321 -7.6 100 -7.6 0 0 964.7 NA 0.0000 -SN BR 3700 0 0 0 1440
2019/08/07 09:18:00 BASE 2.72 323 3.09 321 -7.6 100 -7.6 0 0 964.7 NA 0.0000 -SN BR 3800 0 0 0 1380
2019/08/07 09:19:00 BASE 2.91 325 3.45 330 -7.6 100 -7.6 0 0 964.7 NA 0.0000 -SN BR 3400 0 0 0 1310
2019/08/07 09:20:00 BASE 3.15 326 3.45 330 -7.6 100 -7.6 0 0 964.7 NA 0.0000 -SN BR 3800 0 0 0 1310
2019/08/07 09:21:00 BASE 3.13 327 3.55 324 -7.6 100 -7.6 0 0 964.7 NA 0.0000 -SN BR 3900 0 0 0 1210
2019/08/07 09:22:00 BASE 3.23 329 3.55 335 -7.6 100 -7.6 0 0 964.8 NA 0.0000 -SN BR 3500 0 0 0 1210
2019/08/07 09:23:00 BASE 3.00 331 3.55 335 -7.6 100 -7.6 0 0 964.8 NA 0.0000 -SN BR 3300 0 0 0 1180
2019/08/07 09:24:00 BASE 2.84 329 3.55 335 -7.6 100 -7.6 0 0 964.8 NA 0.0000 -SN BR 3100 0 0 0 1250
2019/08/07 09:25:00 BASE 2.74 325 3.55 335 -7.6 100 -7.6 0 0 964.8 NA 0.0000 -SN BR 3100 0 0 0 1380
2019/08/07 09:26:00 BASE 2.81 332 3.55 335 -7.6 100 -7.6 0 0 964.8 NA 0.0000 -SN BR 3000 0 0 0 1510
2019/08/07 09:27:00 BASE 2.73 347 3.55 335 -7.6 100 -7.6 0 0 964.8 NA 0.0000 -SN BR 2800 0 0 0 1710
2019/08/07 09:28:00 BASE 2.21 350 3.55 335 -7.6 100 -7.6 0 0 964.9 NA 0.0000 -SN BR 2700 0 0 0 1840
2019/08/07 09:29:00 BASE 1.79 351 3.55 335 -7.7 100 -7.7 0 0 964.9 NA 0.0000 -SN BR 2600 0 0 0 1940
2019/08/07 09:30:00 BASE 1.12 351 3.55 335 -7.7 100 -7.7 0 0 964.9 NA 0.0000 -SN BR 2500 0 0 0 1940
2019/08/07 09:31:00 BASE 0.38 339 3.55 335 -7.7 100 -7.7 0 0 964.9 NA 0.0000 -SN BR 2800 0 0 0 1870
2019/08/07 09:32:00 BASE 0.05 318 3.50 345 -7.7 100 -7.7 0 0 964.9 NA 0.0000 -SN BR 3200 0 0 0 1740
2019/08/07 09:33:00 BASE 0.72 309 3.50 345 -7.7 100 -7.7 0 0 965.0 NA 0.0000 -SN BR 3700 0 0 0 1940
2019/08/07 09:34:00 BASE 1.40 319 3.50 345 -7.7 100 -7.7 0 0 965.1 NA 0.0000 -SN BR 3800 0 0 0 1800
2019/08/07 09:35:00 BASE 0.72 331 3.50 345 -7.7 100 -7.7 0 0 965.1 NA 0.2540 -SN BR 3900 0 0 0 1710
2019/08/07 09:36:00 BASE 0.04 334 2.57 355 -7.7 100 -7.7 0 0 965.1 NA 0.0000 -SN BR 3900 0 0 0 1800
2019/08/07 09:37:00 BASE 0.54 334 2.21 348 -7.7 100 -7.7 0 0 965.1 NA 0.0000 -SN BR 3600 0 0 0 2790
2019/08/07 09:38:00 BASE 1.37 324 2.06 354 -7.7 100 -7.7 0 0 965.1 NA 0.0000 -SN BR 4200 0 0 0 2170
2019/08/07 09:39:00 BASE 1.63 309 2.16 291 -7.7 100 -7.7 0 0 965.2 NA 0.0000 -SN BR 6000 0 0 0 3350
2019/08/07 09:40:14 BASE 1.95 283 2.62 262 -7.7 100 -7.7 0 0 965.2 NA 0.0000 -SN BR 6000 0 0 0 3380
2019/08/07 09:41:00 BASE 2.25 283 2.62 262 -7.7 100 -7.7 0 0 965.2 NA 0.0000 -SN BR 5000 330 2690 0 0
2019/08/07 09:42:00 BASE 2.10 301 2.62 262 -7.7 100 -7.7 0 0 965.2 NA 0.0000 -SN BR 6000 330 2530 0 0
2019/08/07 09:43:00 BASE 2.11 302 2.98 294 -7.7 100 -7.7 0 0 965.2 NA 0.0000 -SN BR 9999 300 0 0 0
2019/08/07 09:44:00 BASE 2.82 304 3.55 310 -7.7 100 -7.7 0 0 965.2 NA 0.0000 -SN BR 9999 300 0 0 0
2019/08/07 09:45:00 BASE 2.84 299 3.86 286 -7.7 100 -7.7 0 0 965.2 NA 0.0000 -SN BR 9999 330 0 0 0
2019/08/07 09:46:00 BASE 2.08 303 3.86 286 -7.7 100 -7.7 0 0 965.3 NA 0.0000 -SN BR 9999 330 1840 0 0
2019/08/07 09:47:00 BASE 2.21 323 3.86 286 -7.7 100 -7.7 0 0 965.3 NA 0.0000 -SN BR 9000 360 5350 0 0
2019/08/07 09:48:00 BASE 2.69 336 3.86 286 -7.6 100 -7.6 0 0 965.3 NA 0.0000 -SN BR 9000 1900 2890 0 0
2019/08/07 09:49:00 BASE 2.64 345 3.86 286 -7.6 100 -7.6 0 0 965.4 NA 0.0000 -SN BR 7000 1610 0 0 0
2019/08/07 09:50:00 BASE 2.52 357 3.86 286 -7.6 100 -7.6 0 0 965.4 NA 0.0000 -SN BR 7000 1900 3080 0 0
2019/08/07 09:51:00 BASE 2.63 5 3.86 286 -7.6 100 -7.6 0 0 965.4 NA 0.0000 -SN BR 9999 2230 0 0 0
2019/08/07 09:52:00 BASE 2.66 2 3.86 286 -7.6 100 -7.6 0 0 965.4 NA 0.0000 -SN BR 9999 2030 0 0 0
2019/08/07 09:53:00 BASE 2.20 359 3.86 286 -7.7 100 -7.7 0 0 965.4 NA 0.0000 -SN BR 9999 1900 0 0 0
2019/08/07 09:54:00 BASE 1.70 357 3.86 286 -7.7 100 -7.7 0 0 965.4 NA 0.0000 -SN 9999 1870 3180 0 0
2019/08/07 09:55:00 BASE 1.53 1 3.04 327 -7.7 100 -7.7 0 0 965.4 NA 0.0000 -SN 9999 1440 0 0 0
2019/08/07 09:56:00 BASE 1.20 19 3.04 327 -7.7 100 -7.7 0 0 965.4 NA 0.0000 -SN 9999 1770 0 0 0
2019/08/07 09:57:00 BASE 1.34 28 2.98 6 -7.7 100 -7.7 0 0 965.4 NA 0.0000 -SN 9999 1670 0 0 0
2019/08/07 09:58:00 BASE 1.83 15 2.98 6 -7.7 100 -7.7 0 0 965.4 NA 0.0000 -SN 9999 1610 0 0 0
2019/08/07 09:59:00 BASE 2.23 5 2.98 6 -7.7 100 -7.7 0 0 965.4 NA 0.0000 -SN 9999 1380 0 0 0
2019/08/07 10:00:00 BASE 2.55 11 3.24 353 -7.7 100 -7.7 0 0 965.4 NA 0.0000 -SN 9999 1310 5250 0 0
2019/08/07 10:01:00 BASE 2.23 12 3.24 353 -7.7 100 -7.7 0 0 965.4 NA 0.0000 -SN 9999 1020 5870 0 0
2019/08/07 10:02:00 BASE 2.11 4 3.24 353 -7.7 100 -7.7 0 0 965.5 NA 0.0000 -SN 9999 980 2070 0 0
2019/08/07 10:03:00 BASE 2.55 3 3.24 3 -7.7 100 -7.7 0 0 965.4 NA 0.0000 -SN 9999 1380 6100 0 0
2019/08/07 10:04:00 BASE 2.94 359 3.34 351 -7.6 100 -7.6 0 0 965.5 NA 0.0000 -SN 9999 980 6100 0 0
2019/08/07 10:05:00 BASE 3.09 350 3.34 351 -7.6 100 -7.6 0 0 965.6 NA 0.0000 -SN 9999 2130 6230 0 0
2019/08/07 10:06:00 BASE 2.77 342 3.34 351 -7.6 100 -7.6 0 0 965.6 NA 0.0000 -SN 9999 2030 6170 0 0
2019/08/07 10:07:00 BASE 2.34 352 3.34 351 -7.6 100 -7.6 0 0 965.6 NA 0.0000 -SN 9999 2030 6330 0 0
2019/08/07 10:08:00 BASE 2.07 6 3.34 351 -7.6 100 -7.6 0 0 965.6 NA 0.0000 -SN 9999 1800 6530 0 0
2019/08/07 10:09:00 BASE 2.26 1 3.34 341 -7.6 100 -7.6 0 0 965.6 NA 0.0000 -SN 9999 1800 6660 0 0
2019/08/07 10:10:00 BASE 2.90 348 3.50 350 -7.6 100 -7.6 0 0 965.6 NA 0.0000 -SN 9999 2100 3050 0 0
2019/08/07 10:11:00 BASE 3.25 350 3.76 354 -7.6 100 -7.6 0 0 965.6 NA 0.0000 -SN 9999 1570 6760 0 0
2019/08/07 10:12:00 BASE 2.92 3 3.76 354 -7.7 100 -7.7 0 0 965.6 NA 0.0000 -SN 9999 2300 6760 0 0
2019/08/07 10:13:00 BASE 2.11 358 3.76 354 -7.7 100 -7.7 0 0 965.6 NA 0.0000 -SN 9999 2230 6820 0 0
2019/08/07 10:14:00 BASE 1.94 350 3.76 354 -7.6 100 -7.6 0 0 965.6 NA 0.0000 -SN 9999 2100 6890 0 0
2019/08/07 10:15:00 BASE 2.15 348 3.76 354 -7.6 100 -7.6 0 0 965.7 NA 0.0000 -SN 9999 6860 0 0 0
2019/08/07 10:16:00 BASE 2.12 346 3.76 354 -7.6 100 -7.6 0 0 965.8 NA 0.0000 -SN 9999 6730 0 0 0
2019/08/07 10:17:00 BASE 1.99 352 3.76 354 -7.6 100 -7.6 0 0 965.8 NA 0.0000 -SN 9999 6860 0 0 0
2019/08/07 10:18:00 BASE 1.91 359 3.76 354 -7.6 100 -7.6 0 0 965.8 NA 0.0000 -SN 9999 6760 0 0 0
2019/08/07 10:19:00 BASE 2.00 3 3.76 354 -7.7 100 -7.7 0 0 965.8 NA 0.0000 -SN 9999 6660 0 0 0
2019/08/07 10:20:00 BASE 2.17 13 3.76 354 -7.8 100 -7.8 0 0 965.8 NA 0.0000 9999 6730 0 0 0
2019/08/07 10:21:00 BASE 2.55 20 3.55 3 -7.8 100 -7.8 0 0 965.8 NA 0.0000 9999 2490 0 0 0
2019/08/07 10:22:00 BASE 2.76 14 3.09 17 -7.8 100 -7.8 0 0 965.8 NA 0.0000 9999 0 0 0 0
2019/08/07 10:23:00 BASE 2.46 8 3.09 17 -7.8 100 -7.8 0 0 965.9 NA 0.0000 9999 0 0 0 0
2019/08/07 10:24:00 BASE 2.29 21 3.09 17 -7.8 100 -7.8 0 0 965.9 NA 0.0000 9999 7810 0 0 0
2019/08/07 10:25:00 BASE 1.91 31 3.09 17 -7.7 100 -7.7 0 0 965.9 NA 0.0000 9999 0 0 0 0
2019/08/07 10:26:00 BASE 1.50 14 3.09 17 -7.7 100 -7.7 0 0 965.9 NA 0.0000 9999 0 0 0 0
2019/08/07 10:27:00 BASE 1.66 10 3.09 17 -7.7 100 -7.7 0 0 965.9 NA 0.0000 9999 0 0 0 0
2019/08/07 10:28:00 BASE 1.77 22 3.09 17 -7.7 100 -7.7 0 0 966.0 NA 0.0000 9999 0 0 0 0
2019/08/07 10:29:00 BASE 2.26 30 3.09 40 -7.7 100 -7.7 0 0 966.0 NA 0.0000 9999 0 0 0 0
2019/08/07 10:30:00 BASE 2.85 40 3.45 49 -7.7 100 -7.7 0 0 966.1 NA 0.0000 9999 0 0 0 0
2019/08/07 10:31:00 BASE 2.39 57 3.45 49 -7.8 100 -7.8 0 0 966.1 NA 0.0000 9999 6070 0 0 0
2019/08/07 10:32:00 BASE 1.19 82 3.45 49 -7.8 100 -7.8 0 0 966.2 NA 0.0000 9999 6170 0 0 0
2019/08/07 10:33:00 BASE 0.34 91 3.45 49 -8.0 100 -8.0 0 0 966.2 NA 0.0000 9999 6140 0 0 0
2019/08/07 10:34:00 BASE 0.04 98 3.45 49 -8.1 100 -8.1 0 0 966.2 NA 0.0000 9999 6000 0 0 0
2019/08/07 10:35:00 BASE 0.00 134 3.45 49 -8.2 100 -8.2 0 0 966.2 NA 0.0000 9999 5940 0 0 0
2019/08/07 10:36:00 BASE 0.00 143 3.45 49 -8.3 100 -8.3 0 0 966.2 NA 0.0000 9999 5940 0 0 0
2019/08/07 10:37:00 BASE 0.13 99 3.45 49 -8.3 100 -8.3 0 0 966.3 NA 0.0000 9999 6070 0 0 0
2019/08/07 10:38:00 BASE 0.25 40 3.45 49 -8.2 100 -8.2 0 0 966.3 NA 0.0000 9999 5970 0 0 0
2019/08/07 10:39:00 BASE 0.17 23 3.45 49 -8.2 100 -8.2 0 0 966.4 NA 0.0000 9999 5910 0 0 0
2019/08/07 10:40:00 BASE 0.24 30 2.57 51 -8.1 100 -8.1 0 0 966.4 NA 0.0000 9999 5940 0 0 0
2019/08/07 10:41:00 BASE 0.74 28 1.39 18 -8.1 100 -8.1 0 0 966.5 NA 0.0000 9999 5940 0 0 0
2019/08/07 10:42:00 BASE 1.04 10 1.49 339 -8.1 100 -8.1 0 0 966.5 NA 0.0000 9999 5740 0 0 0
2019/08/07 10:43:00 BASE 1.23 350 1.95 346 -8.1 100 -8.1 0 0 966.5 NA 0.0000 9999 5710 0 0 0
2019/08/07 10:44:00 BASE 1.66 345 1.95 346 -8.1 100 -8.1 0 0 966.5 NA 0.0000 9999 5710 6330 0 0
2019/08/07 10:45:00 BASE 1.88 351 2.06 354 -8.1 100 -8.1 0 0 966.6 NA 0.0000 9999 5810 0 0 0
2019/08/07 10:46:00 BASE 1.88 349 2.06 354 -8.0 100 -8.0 0 0 966.6 NA 0.0000 9999 5870 0 0 0
2019/08/07 10:47:00 BASE 1.48 348 2.06 354 -8.0 100 -8.0 0 0 966.6 NA 0.0000 9999 5940 0 0 0
2019/08/07 10:48:00 BASE 1.33 28 2.78 114 -8.1 100 -8.1 0 0 966.6 NA 0.0000 9999 6370 0 0 0
2019/08/07 10:49:00 BASE 1.56 117 2.78 114 -8.2 100 -8.2 0 0 966.6 NA 0.0000 9999 6530 0 0 0
2019/08/07 10:50:00 BASE 0.81 132 2.78 114 -8.3 100 -8.3 0 0 966.7 NA 0.0000 9999 0 0 0 0
2019/08/07 10:51:00 BASE 0.00 125 2.78 114 -8.3 100 -8.3 0 0 966.7 NA 0.0000 9999 0 0 0 0
2019/08/07 10:52:00 BASE 0.23 28 2.78 114 -8.3 100 -8.3 0 0 966.7 NA 0.0000 9999 0 0 0 0
2019/08/07 10:53:00 BASE 0.59 3 2.78 114 -8.2 100 -8.2 0 0 966.7 NA 0.0000 9999 0 0 0 0
2019/08/07 10:54:00 BASE 0.57 96 2.78 114 -8.0 100 -8.0 0 0 966.7 NA 0.0000 9999 0 0 0 0
2019/08/07 10:55:00 BASE 1.12 115 2.78 114 -7.9 100 -7.9 0 0 966.7 NA 0.0000 9999 0 0 0 0
2019/08/07 10:56:00 BASE 2.31 101 3.91 63 -7.9 100 -7.9 0 0 966.7 NA 0.0000 9999 4270 0 0 0
2019/08/07 10:57:00 BASE 1.56 112 3.91 63 -7.8 99 -7.9 0 0 966.7 NA 0.0000 9999 0 0 0 0
2019/08/07 10:58:00 BASE 0.75 131 3.91 63 -7.9 99 -8.1 0 0 966.7 NA 0.0000 9999 0 0 0 0
2019/08/07 10:59:00 BASE 1.14 134 3.91 63 -8.0 98 -8.3 0 0 966.8 NA 0.0000 9999 0 0 0 0
2019/08/07 11:00:00 BASE 2.21 145 4.94 136 -8.1 96 -8.6 0 0 966.8 NA 0.0000 9999 0 0 0 0
2019/08/07 11:01:00 BASE 3.28 139 4.94 136 -8.2 95 -8.9 0 0 966.9 NA 0.0000 9999 0 0 0 0
2019/08/07 11:02:00 BASE 3.85 126 5.09 113 -8.4 94 -9.2 0 0 967.0 NA 0.0000 9999 0 0 0 0
2019/08/07 11:03:00 BASE 5.06 127 6.84 132 -8.4 93 -9.4 0 0 967.0 NA 0.0000 9999 0 0 0 0
2019/08/07 11:04:00 BASE 5.07 123 6.84 132 -8.5 92 -9.6 0 0 967.0 NA 0.0000 9999 0 0 0 0
2019/08/07 11:05:00 BASE 4.89 117 6.84 132 -8.5 90 -9.8 0 0 967.0 NA 0.0000 9999 0 0 0 0
2019/08/07 11:06:00 BASE 4.89 119 6.84 132 -8.4 89 -9.9 0 0 967.0 NA 0.0000 9999 0 0 0 0
2019/08/07 11:07:00 BASE 4.26 122 6.84 132 -8.3 87 -10.1 0 0 967.1 NA 0.0000 9999 0 0 0 0
2019/08/07 11:08:00 BASE 4.53 125 6.84 132 -8.3 86 -10.3 0 0 967.1 NA 0.0000 9999 0 0 0 0
2019/08/07 11:09:00 BASE 5.44 123 6.84 132 -8.3 84 -10.5 0 0 967.2 NA 0.0000 9999 0 0 0 0
2019/08/07 11:10:00 BASE 5.71 120 6.84 132 -8.3 83 -10.7 0 0 967.2 NA 0.0000 9999 0 0 0 0
2019/08/07 11:11:00 BASE 5.51 118 6.94 129 -8.3 82 -10.8 0 0 967.2 NA 0.0000 9999 0 0 0 0
2019/08/07 11:12:00 BASE 5.81 119 6.94 129 -8.4 82 -10.9 0 0 967.3 NA 0.0000 9999 0 0 0 0
2019/08/07 11:13:00 BASE 6.27 119 7.25 116 -8.4 82 -10.9 0 0 967.3 NA 0.0000 9999 0 0 0 0
2019/08/07 11:14:00 BASE 6.28 117 7.25 116 -8.4 82 -10.9 0 0 967.3 NA 0.0000 9999 0 0 0 0
2019/08/07 11:15:00 BASE 6.72 122 8.23 117 -8.5 82 -11.0 0 0 967.3 NA 0.0000 9999 0 0 0 0
2019/08/07 11:16:18 BASE 6.43 123 8.23 117 -8.4 82 -11.0 0 0 967.3 NA 0.0000 9999 4100 0 0 0
2019/08/07 11:17:00 BASE 5.53 114 8.23 117 -8.4 80 -11.2 0 0 967.3 NA 0.0000 9999 3940 0 0 0
2019/08/07 11:18:00 BASE 5.23 106 8.23 117 -8.3 79 -11.2 0 0 967.4 NA 0.0000 9999 3900 0 0 0
2019/08/07 11:19:00 BASE 5.53 110 8.23 117 -8.1 78 -11.3 0 0 967.4 NA 0.0000 9999 4070 0 0 0
2019/08/07 11:20:00 BASE 5.65 118 8.23 117 -8.0 76 -11.4 0 0 967.4 NA 0.0000 9999 4000 0 0 0
2019/08/07 11:21:00 BASE 5.00 109 8.23 117 -8.0 75 -11.7 0 0 967.4 NA 0.0000 9999 3970 0 0 0
2019/08/07 11:22:00 BASE 4.82 96 8.23 117 -8.0 74 -11.9 0 0 967.4 NA 0.0000 9999 3610 0 0 0
2019/08/07 11:23:00 BASE 4.65 94 8.23 117 -8.0 73 -12.0 0 0 967.5 NA 0.0000 9999 3740 4230 0 0
2019/08/07 11:24:00 BASE 4.86 93 8.23 117 -8.1 73 -12.0 0 0 967.5 NA 0.0000 9999 4200 0 0 0
2019/08/07 11:25:00 BASE 5.79 95 6.64 102 -8.2 74 -12.0 0 0 967.5 NA 0.0000 9999 4130 0 0 0
2019/08/07 11:26:00 BASE 5.67 92 6.64 102 -8.3 75 -12.0 0 0 967.5 NA 0.0000 9999 4100 0 0 0
2019/08/07 11:27:00 BASE 5.16 86 6.64 102 -8.3 76 -11.9 0 0 967.5 NA 0.0000 9999 3970 0 0 0
2019/08/07 11:28:00 BASE 4.90 89 6.64 102 -8.3 76 -11.7 0 0 967.5 NA 0.0000 9999 3900 0 0 0
2019/08/07 11:29:00 BASE 4.45 93 6.64 102 -8.2 76 -11.7 0 0 967.5 NA 0.0000 9999 3870 0 0 0
2019/08/07 11:30:00 BASE 4.36 90 6.64 102 -8.1 76 -11.7 0 0 967.5 NA 0.0000 9999 3670 0 0 0
2019/08/07 11:31:00 BASE 4.73 89 6.64 102 -8.1 75 -11.8 0 0 967.6 NA 0.0000 9999 0 0 0 0
2019/08/07 11:32:00 BASE 5.10 93 6.64 102 -8.2 74 -11.9 0 0 967.7 NA 0.0000 9999 0 0 0 0
2019/08/07 11:33:00 BASE 5.38 92 6.64 102 -8.3 73 -12.3 0 0 967.7 NA 0.0000 9999 4100 0 0 0
2019/08/07 11:34:00 BASE 5.43 94 6.64 102 -8.6 73 -12.6 0 0 967.7 NA 0.0000 9999 3940 0 0 0
2019/08/07 11:35:00 BASE 5.72 93 6.33 82 -8.7 72 -12.8 0 0 967.8 NA 0.0000 9999 4040 0 0 0
2019/08/07 11:36:00 BASE 5.79 84 6.33 82 -8.8 72 -13.0 0 0 967.8 NA 0.0000 9999 0 0 0 0
2019/08/07 11:37:00 BASE 5.40 85 6.33 82 -8.9 71 -13.2 0 0 967.8 NA 0.0000 9999 4040 0 0 0
2019/08/07 11:38:00 BASE 5.50 92 6.33 82 -9.0 70 -13.4 0 0 967.8 NA 0.0000 9999 0 0 0 0
2019/08/07 11:39:00 BASE 5.52 98 6.33 82 -9.0 70 -13.5 0 0 967.9 NA 0.0000 9999 0 0 0 0
2019/08/07 11:40:00 BASE 5.41 102 6.48 114 -8.8 69 -13.5 0 0 967.9 NA 0.0000 9999 0 0 0 0
2019/08/07 11:41:00 BASE 5.61 98 6.48 114 -8.8 68 -13.7 0 0 967.9 NA 0.0000 9999 0 0 0 0
2019/08/07 11:42:00 BASE 5.73 97 6.58 101 -8.7 67 -13.8 0 0 967.9 NA 0.0000 9999 0 0 0 0
2019/08/07 11:43:00 BASE 5.87 97 6.69 95 -8.7 65 -14.0 0 0 967.9 NA 0.0000 9999 0 0 0 0
2019/08/07 11:44:00 BASE 6.11 96 6.74 99 -8.6 64 -14.2 0 0 967.9 NA 0.0000 9999 4200 0 0 0
2019/08/07 11:45:00 BASE 6.19 93 6.74 99 -8.8 63 -14.5 0 0 967.9 NA 0.0000 9999 0 0 0 0
2019/08/07 11:46:00 BASE 6.40 88 6.94 83 -8.9 62 -14.8 0 0 967.9 NA 0.0000 9999 0 0 0 0
2019/08/07 11:47:00 BASE 6.97 85 7.77 86 -9.0 62 -15.1 0 0 967.9 NA 0.0000 9999 0 0 0 0
2019/08/07 11:48:00 BASE 7.37 84 7.77 87 -9.2 61 -15.3 0 0 968.0 NA 0.0000 9999 3900 0 0 0
2019/08/07 11:49:00 BASE 7.45 84 7.77 87 -9.2 61 -15.3 0 0 968.1 NA 0.0000 9999 3810 0 0 0
2019/08/07 11:50:00 BASE 7.41 83 7.77 87 -9.2 62 -15.2 0 0 968.1 NA 0.0000 9999 3640 0 0 0
2019/08/07 11:51:00 BASE 7.29 85 7.77 87 -9.2 62 -15.2 0 0 968.1 NA 0.0000 9999 3740 0 0 0
2019/08/07 11:52:00 BASE 7.04 87 7.77 87 -9.1 62 -15.1 0 0 968.1 NA 0.0000 9999 3610 0 0 0
2019/08/07 11:53:00 BASE 6.60 84 7.77 87 -9.0 63 -14.9 0 0 968.2 NA 0.0000 9999 3710 0 0 0
2019/08/07 11:54:00 BASE 6.47 85 7.77 87 -9.0 63 -14.8 0 0 968.2 NA 0.0000 9999 3810 0 0 0
2019/08/07 11:55:00 BASE 6.52 86 7.77 87 -9.0 62 -14.9 0 0 968.2 NA 0.0000 9999 3870 0 0 0
2019/08/07 11:56:00 BASE 6.22 83 7.77 87 -9.0 62 -14.8 0 0 968.2 NA 0.0000 9999 3900 0 0 0
2019/08/07 11:57:00 BASE 5.75 79 7.77 87 -8.9 62 -14.8 0 0 968.2 NA 0.0000 9999 3870 0 0 0
2019/08/07 11:58:00 BASE 5.97 75 7.67 86 -8.9 62 -14.9 0 0 968.2 NA 0.0000 9999 3810 0 0 0
2019/08/07 11:59:00 BASE 6.70 75 7.46 87 -8.9 62 -14.8 0 0 968.2 NA 0.0000 9999 3900 0 0 0
2019/08/07 12:00:00 BASE 6.34 74 7.41 87 -8.8 62 -14.8 0 0 968.2 NA 0.0000 9999 3770 0 0 0
2019/08/07 12:01:00 BASE 5.27 73 7.20 87 -8.8 62 -14.8 0 0 968.3 NA 0.0000 9999 3870 0 0 0
2019/08/07 12:02:00 BASE 5.13 74 7.15 75 -8.7 62 -14.8 0 0 968.3 NA 0.0000 9999 3870 0 0 0
2019/08/07 12:03:00 BASE 5.79 73 7.15 75 -8.7 61 -14.8 0 0 968.3 NA 0.0000 9999 3770 0 0 0
2019/08/07 12:04:00 BASE 6.07 74 7.15 75 -8.6 61 -14.7 0 0 968.3 NA 0.0000 9999 3710 0 0 0
2019/08/07 12:05:00 BASE 5.76 77 7.15 75 -8.5 61 -14.7 0 0 968.3 NA 0.0000 9999 3670 0 0 0
2019/08/07 12:06:00 BASE 5.06 87 7.15 75 -8.3 60 -14.7 0 0 968.4 NA 0.0000 9999 3710 0 0 0
2019/08/07 12:07:00 BASE 5.44 93 7.15 75 -8.3 59 -14.9 0 0 968.4 NA 0.0000 9999 3840 0 0 0
2019/08/07 12:08:00 BASE 6.35 89 7.15 75 -8.2 59 -14.9 0 0 968.4 NA 0.0000 9999 3740 0 0 0
2019/08/07 12:09:00 BASE 5.94 85 6.84 88 -8.2 58 -15.0 0 0 968.5 NA 0.0000 9999 3810 0 0 0
2019/08/07 12:10:00 BASE 4.94 78 6.84 88 -8.2 58 -15.0 1 0 968.5 NA 0.0000 9999 3670 0 0 0
2019/08/07 12:11:00 BASE 4.79 75 6.84 88 -8.2 58 -15.1 1 0 968.6 NA 0.0000 9999 3770 0 0 0
2019/08/07 12:12:00 BASE 5.05 75 6.84 88 -8.1 58 -15.0 1 0 968.5 NA 0.0000 9999 3670 0 0 0
2019/08/07 12:13:00 BASE 4.52 71 6.84 88 -8.0 57 -15.0 1 0 968.5 NA 0.0000 9999 3810 0 0 0
2019/08/07 12:14:00 BASE 3.85 71 6.84 88 -7.9 56 -15.2 1 0 968.6 NA 0.0000 9999 3640 0 0 0
2019/08/07 12:15:00 BASE 4.40 76 6.84 88 -8.0 56 -15.3 1 0 968.6 NA 0.0000 9999 3670 0 0 0
2019/08/07 12:16:00 BASE 5.72 81 6.84 88 -7.9 55 -15.3 1 0 968.5 NA 0.0000 9999 3840 0 0 0
2019/08/07 12:17:00 BASE 5.25 83 6.84 88 -7.8 55 -15.3 1 0 968.6 NA 0.0000 9999 3810 0 0 0
2019/08/07 12:18:00 BASE 3.85 81 6.58 89 -7.8 54 -15.4 1 0 968.7 NA 0.0000 9999 3670 0 0 0
2019/08/07 12:19:00 BASE 3.34 85 6.58 89 -7.8 54 -15.5 1 0 968.7 NA 0.0000 9999 3580 0 0 0
2019/08/07 12:20:00 BASE 2.61 93 6.58 89 -7.8 54 -15.5 1 0 968.7 NA 0.0000 9999 3380 0 0 0
2019/08/07 12:21:00 BASE 2.08 95 6.58 89 -7.7 54 -15.5 1 0 968.7 NA 0.0000 9999 3670 0 0 0
2019/08/07 12:22:00 BASE 2.96 129 6.58 89 -7.7 54 -15.5 1 0 968.7 NA 0.0000 9999 3450 0 0 0
2019/08/07 12:23:00 BASE 3.90 163 6.58 89 -7.8 54 -15.4 2 0 968.7 NA 0.0000 9999 3250 0 0 0
2019/08/07 12:24:00 BASE 4.05 132 6.58 89 -7.6 55 -15.2 2 0 968.6 NA 0.0000 9999 3150 0 0 0
2019/08/07 12:25:00 BASE 3.60 172 6.58 89 -7.5 55 -15.0 2 0 968.7 NA 0.0000 9999 3310 0 0 0
2019/08/07 12:26:00 BASE 3.88 249 7.82 262 -7.6 55 -15.0 2 0 968.7 NA 0.0000 9999 3510 0 0 0
2019/08/07 12:27:00 BASE 3.52 256 7.82 262 -7.5 55 -14.9 2 0 968.7 NA 0.0000 9999 3450 0 0 0
2019/08/07 12:28:00 BASE 2.15 270 7.82 262 -7.5 55 -14.9 2 0 968.7 NA 0.0000 9999 3350 0 0 0
2019/08/07 12:29:00 BASE 1.37 298 7.82 262 -7.5 56 -14.9 2 0 968.7 NA 0.0000 9999 3480 0 0 0
2019/08/07 12:30:00 BASE 1.36 319 7.82 262 -7.6 56 -14.9 2 0 968.7 NA 0.0000 9999 3280 0 0 0
2019/08/07 12:31:00 BASE 1.13 268 7.82 262 -7.5 56 -14.8 2 0 968.7 NA 0.0000 9999 3510 0 0 0
2019/08/07 12:32:00 BASE 2.42 202 9.31 239 -7.5 56 -14.7 3 0 968.7 NA 0.0000 9999 3510 0 0 0
2019/08/07 12:33:00 BASE 6.04 224 9.31 239 -7.4 57 -14.5 3 0 968.7 NA 0.0000 9999 3580 0 0 0
2019/08/07 12:34:00 BASE 8.94 241 11.88 250 -7.2 57 -14.3 3 0 968.7 NA 0.0000 9999 3540 0 0 0
2019/08/07 12:35:00 BASE 9.79 243 11.88 250 -7.1 58 -13.9 3 0 968.7 NA 0.0000 9999 14310 0 0 0
2019/08/07 12:36:00 BASE 10.14 244 12.55 245 -7.0 60 -13.6 3 0 968.7 NA 0.0000 9999 14400 0 0 0
2019/08/07 12:37:00 BASE 11.54 246 13.99 242 -6.9 61 -13.2 3 0 968.7 NA 0.0000 9999 14760 0 0 0
2019/08/07 12:38:00 BASE 11.23 251 13.99 242 -6.8 61 -13.1 4 0 968.7 NA 0.0000 9999 14630 0 0 0
2019/08/07 12:39:00 BASE 9.69 261 13.99 242 -6.8 61 -13.0 4 0 968.7 NA 0.0000 9999 15880 0 0 0
2019/08/07 12:40:00 BASE 8.56 256 13.99 242 -6.8 61 -13.1 4 0 968.7 NA 0.0000 9999 16210 0 0 0
2019/08/07 12:41:00 BASE 8.79 239 13.99 242 -6.8 60 -13.2 5 0 968.7 NA 0.0000 9999 16210 0 0 0
2019/08/07 12:42:00 BASE 10.02 239 13.99 242 -6.8 60 -13.3 5 0 968.7 NA 0.0000 9999 16010 0 0 0
2019/08/07 12:43:00 BASE 9.98 246 13.99 242 -6.8 59 -13.4 6 0 968.7 NA 0.0000 9999 15680 0 0 0
2019/08/07 12:44:00 BASE 10.03 249 13.99 242 -6.7 59 -13.5 6 0 968.7 NA 0.0000 9999 0 0 0 0
2019/08/07 12:45:00 BASE 9.36 244 13.99 242 -6.8 58 -13.6 7 0 968.7 NA 0.0000 9999 0 0 0 0
2019/08/07 12:46:00 BASE 7.08 245 13.99 242 -6.8 58 -13.7 7 0 968.7 NA 0.0000 9999 3870 0 0 0
2019/08/07 12:47:00 BASE 6.24 257 13.17 255 -6.8 58 -13.7 7 0 968.8 NA 0.0000 9999 3870 0 0 0
2019/08/07 12:48:00 BASE 7.01 264 13.17 255 -6.8 58 -13.6 7 0 968.9 NA 0.0000 9999 4170 0 0 0
2019/08/07 12:49:00 BASE 7.39 263 13.17 255 -6.7 59 -13.5 7 0 968.9 NA 0.0000 9999 3970 0 0 0
2019/08/07 12:50:00 BASE 6.83 254 13.17 255 -6.7 59 -13.4 7 0 968.9 NA 0.0000 9999 3900 0 0 0
2019/08/07 12:51:00 BASE 8.70 242 13.17 255 -6.6 59 -13.2 7 0 968.9 NA 0.0000 9999 4100 0 0 0
2019/08/07 12:52:00 BASE 12.19 242 15.07 257 -6.5 60 -13.0 7 0 968.9 NA 0.0000 9999 4170 0 0 0
2019/08/07 12:53:00 BASE 12.31 251 15.07 257 -6.4 60 -12.9 7 0 968.9 NA 0.0000 9999 3810 0 0 0
2019/08/07 12:54:00 BASE 11.91 254 15.59 243 -6.4 61 -12.7 7 0 968.8 NA 0.0000 9999 3840 0 0 0
2019/08/07 12:55:00 BASE 11.82 253 15.59 243 -6.4 62 -12.4 8 0 968.8 NA 0.0000 9999 3870 12660 0 0
2019/08/07 12:56:00 BASE 12.54 244 16.57 230 -6.3 63 -12.2 8 0 968.8 NA 0.0000 9999 12960 0 0 0
2019/08/07 12:57:00 BASE 12.48 237 16.57 230 -6.3 64 -12.1 8 0 968.9 NA 0.0000 9999 12800 0 0 0
2019/08/07 12:58:00 BASE 10.22 245 16.57 230 -6.3 64 -12.1 8 0 968.9 NA 0.0000 9999 4100 12760 0 0
2019/08/07 12:59:00 BASE 9.11 245 16.57 230 -6.3 63 -12.3 8 0 969.0 NA 0.0000 9999 4330 12630 0 0
2019/08/07 13:00:00 BASE 8.17 237 16.57 230 -6.3 61 -12.5 8 0 968.9 NA 0.0000 9999 4130 0 0 0
2019/08/07 13:01:00 BASE 8.92 232 16.57 230 -6.3 59 -12.9 8 0 968.9 NA 0.0000 9999 13480 0 0 0
2019/08/07 13:02:00 BASE 10.22 228 16.57 230 -6.2 58 -13.2 8 0 968.9 NA 0.0000 9999 12630 0 0 0
2019/08/07 13:03:00 BASE 10.96 231 16.57 230 -6.1 57 -13.2 8 0 968.9 NA 0.0000 9999 12530 0 0 0
2019/08/07 13:04:00 BASE 12.12 240 16.57 230 -6.1 58 -13.1 8 0 968.9 NA 0.0000 9999 3610 12860 0 0
2019/08/07 13:05:00 BASE 13.56 242 16.57 230 -6.1 58 -13.0 9 0 968.8 NA 0.0000 9999 12600 0 0 0
2019/08/07 13:06:00 BASE 13.90 231 16.20 249 -6.1 59 -12.7 9 0 968.8 NA 0.0000 9999 12530 0 0 0
2019/08/07 13:07:00 BASE 13.03 221 16.20 249 -6.1 60 -12.5 9 0 968.8 NA 0.0000 9999 12140 0 0 0
2019/08/07 13:08:00 BASE 13.43 220 16.20 249 -6.1 61 -12.5 10 0 968.8 NA 0.0000 9999 12300 0 0 0
2019/08/07 13:09:00 BASE 12.88 227 16.20 249 -6.1 61 -12.4 10 0 968.9 NA 0.0000 9999 12070 0 0 0
2019/08/07 13:10:00 BASE 12.32 229 16.20 249 -6.0 61 -12.4 11 0 968.9 NA 0.0000 9999 12040 0 0 0
2019/08/07 13:11:00 BASE 14.28 224 16.51 221 -6.0 61 -12.4 11 0 968.9 NA 0.0000 9999 11880 0 0 0
2019/08/07 13:12:00 BASE 14.85 221 16.51 221 -6.0 60 -12.5 12 0 969.0 NA 0.0000 9999 0 0 0 0
2019/08/07 13:13:00 BASE 14.30 219 16.51 221 -6.0 60 -12.5 12 0 969.0 NA 0.0000 9999 11840 0 0 0
2019/08/07 13:14:00 BASE 14.57 218 16.51 221 -6.0 61 -12.3 13 0 969.0 NA 0.0000 9999 10110 0 0 0
2019/08/07 13:15:00 BASE 14.47 216 16.51 221 -5.9 61 -12.2 13 0 969.0 NA 0.0000 9999 11650 0 0 0
2019/08/07 13:16:00 BASE 14.11 215 16.51 221 -5.9 61 -12.1 14 0 969.1 NA 0.0000 9999 11320 0 0 0
2019/08/07 13:17:00 BASE 13.11 213 16.51 221 -5.9 62 -12.1 14 0 969.0 NA 0.0000 9999 12170 13160 0 0
2019/08/07 13:18:00 BASE 13.79 213 16.87 209 -5.8 62 -12.0 14 0 969.0 NA 0.0000 9999 0 0 0 0
2019/08/07 13:19:00 BASE 15.83 210 17.29 205 -5.8 61 -12.1 15 0 968.9 NA 0.0000 9999 13520 0 0 0
2019/08/07 13:20:00 BASE 16.86 208 19.34 212 -5.9 61 -12.2 15 0 968.9 NA 0.0000 9999 12990 0 0 0
2019/08/07 13:21:00 BASE 16.87 211 19.34 212 -5.9 60 -12.4 15 0 968.9 NA 0.0000 -SN 9000 12660 0 0 0
2019/08/07 13:22:00 BASE 16.98 213 20.47 209 -5.9 60 -12.5 15 0 968.9 NA 0.0000 -SN 9999 12340 0 0 0
2019/08/07 13:23:00 BASE 17.50 213 20.47 209 -5.9 59 -12.6 16 0 969.0 NA 0.0000 -SN 9999 12300 0 0 0
2019/08/07 13:24:00 BASE 16.31 209 20.47 209 -5.9 59 -12.7 16 0 969.1 NA 0.0000 -SN 9999 0 0 0 0
2019/08/07 13:25:00 BASE 15.10 204 20.47 209 -5.9 58 -12.8 16 0 969.1 NA 0.0000 -SN 9999 0 0 0 0
2019/08/07 13:26:00 BASE 14.75 208 20.47 209 -5.9 58 -12.8 17 0 969.1 NA 0.0000 -SN 9999 14310 0 0 0
2019/08/07 13:27:00 BASE 15.95 217 20.47 209 -5.9 58 -12.8 17 0 969.1 NA 0.0000 -SN 9999 19060 0 0 0
2019/08/07 13:28:00 BASE 15.40 215 20.47 209 -5.9 58 -12.9 17 0 969.1 NA 0.0000 -SN 9999 0 0 0 0
2019/08/07 13:29:00 BASE 10.92 191 20.47 209 -5.9 58 -12.9 18 0 969.2 NA 0.0000 -SN 9999 13680 0 0 0
2019/08/07 13:30:00 BASE 8.00 169 20.47 209 -5.9 58 -13.0 18 0 969.1 NA 0.0000 -SN 9999 14110 0 0 0
2019/08/07 13:31:00 BASE 7.00 182 20.47 209 -5.9 57 -13.1 18 0 969.2 NA 0.0000 -SN 9999 13390 0 0 0
2019/08/07 13:32:00 BASE 6.72 191 19.19 218 -6.0 57 -13.1 18 0 969.3 NA 0.0000 -SN 9999 13190 0 0 0
2019/08/07 13:33:00 BASE 7.06 187 19.19 218 -6.0 57 -13.3 18 0 969.3 NA 0.0000 -SN 9999 0 0 0 0
2019/08/07 13:34:00 BASE 6.95 195 19.19 218 -6.1 56 -13.4 19 0 969.3 NA 0.0000 9999 0 0 0 0
2019/08/07 13:35:00 BASE 7.37 207 19.19 218 -6.1 56 -13.5 19 0 969.3 NA 0.0000 9999 0 0 0 0
2019/08/07 13:36:00 BASE 7.20 205 19.19 218 -6.1 56 -13.4 19 0 969.3 NA 0.0000 9999 0 0 0 0
2019/08/07 13:37:00 BASE 9.91 196 16.51 218 -6.1 56 -13.4 20 0 969.3 NA 0.0000 9999 0 0 0 0
2019/08/07 13:38:00 BASE 12.34 189 15.64 193 -6.1 57 -13.2 20 0 969.3 NA 0.0000 9999 0 0 0 0
2019/08/07 13:39:00 BASE 14.53 194 19.55 193 -6.1 57 -13.1 21 0 969.2 NA 0.0000 9999 0 0 0 0
2019/08/07 13:40:00 BASE 18.29 206 21.35 208 -6.1 58 -13.0 22 0 969.1 NA 0.0000 7000 0 0 0 0
2019/08/07 13:41:00 BASE 19.77 212 23.10 219 -6.0 59 -12.8 23 0 969.0 NA 0.0000 -SN 8000 0 0 0 0
2019/08/07 13:42:00 BASE 21.35 213 23.10 219 -6.0 60 -12.6 24 0 969.0 NA 0.0000 -SN 7000 0 0 0 0
2019/08/07 13:43:00 BASE 20.77 214 23.10 219 -6.0 61 -12.4 25 0 969.1 NA 0.0000 -SN 7000 0 0 0 0
2019/08/07 13:44:00 BASE 19.42 218 23.10 219 -6.0 62 -12.1 26 0 969.1 NA 0.0000 -SN 7000 0 0 0 0
2019/08/07 13:45:00 BASE 17.11 214 23.10 219 -6.0 63 -11.9 27 0 969.2 NA 0.0000 -SN 9999 0 0 0 0
2019/08/07 13:46:00 BASE 14.34 207 23.10 219 -6.0 64 -11.7 28 0 969.3 NA 0.0000 -SN 9999 0 0 0 0
2019/08/07 13:47:00 BASE 13.06 205 23.10 219 -5.9 64 -11.7 29 0 969.3 NA 0.0000 -SN 9999 0 0 0 0
2019/08/07 13:48:00 BASE 11.88 194 23.10 219 -5.9 63 -11.8 31 0 969.4 NA 0.0000 -SN 9999 0 0 0 0
2019/08/07 13:49:00 BASE 10.97 181 23.10 219 -6.0 63 -11.9 32 0 969.5 NA 0.0000 -SN 9999 0 0 0 0
2019/08/07 13:50:00 BASE 11.18 174 23.10 219 -6.0 62 -12.2 33 0 969.4 NA 0.0000 -SN 9999 10660 0 0 0
2019/08/07 13:51:00 BASE 11.59 168 23.05 208 -6.1 61 -12.4 33 0 969.5 NA 0.0000 -SN 9999 11220 0 0 0
2019/08/07 13:52:00 BASE 11.26 167 22.43 214 -6.2 60 -12.6 34 0 969.6 NA 0.0000 -SN 9999 10300 0 0 0
2019/08/07 13:53:00 BASE 11.01 175 21.14 224 -6.2 60 -12.7 35 0 969.6 NA 0.0000 9999 10240 0 0 0
2019/08/07 13:54:00 BASE 11.46 194 17.75 209 -6.3 60 -12.8 35 0 969.6 NA 0.0000 9999 10340 0 0 0
2019/08/07 13:55:00 BASE 11.99 202 15.79 206 -6.2 60 -12.7 36 0 969.7 NA 0.0000 9999 11290 0 0 0
2019/08/07 13:56:00 BASE 12.01 195 14.71 184 -6.2 60 -12.6 37 0 969.7 NA 0.0000 9999 11020 0 0 0
2019/08/07 13:57:00 BASE 11.45 190 14.71 184 -6.1 60 -12.6 38 0 969.7 NA 0.0000 9999 0 0 0 0
2019/08/07 13:58:00 BASE 11.54 188 14.71 184 -6.0 60 -12.5 38 0 969.8 NA 0.0000 9999 19880 0 0 0
2019/08/07 13:59:00 BASE 13.17 186 15.48 189 -6.0 60 -12.5 39 0 969.7 NA 0.0000 9999 0 0 0 0
2019/08/07 14:00:00 BASE 14.24 189 15.74 193 -6.1 61 -12.4 40 0 969.8 NA 0.0000 9999 19650 0 0 0
2019/08/07 14:01:00 BASE 13.05 199 15.74 193 -6.1 61 -12.5 40 0 969.8 NA 0.0000 9999 0 0 0 0
2019/08/07 14:02:00 BASE 13.67 207 20.47 214 -6.1 61 -12.5 41 0 969.8 NA 0.0000 9999 20570 0 0 0
2019/08/07 14:03:00 BASE 16.28 210 21.61 220 -6.1 61 -12.4 41 0 969.7 NA 0.0000 9999 0 0 0 0
2019/08/07 14:04:00 BASE 16.08 206 21.61 220 -6.0 62 -12.2 42 0 969.8 NA 0.0000 9999 19460 0 0 0
2019/08/07 14:05:00 BASE 14.21 198 21.61 220 -6.0 62 -12.1 43 0 969.8 NA 0.0000 9999 0 0 0 0
2019/08/07 14:06:00 BASE 12.15 185 21.61 220 -6.0 62 -12.0 43 0 969.9 NA 0.0000 9999 0 0 0 0
2019/08/07 14:07:00 BASE 10.52 174 21.61 220 -6.0 62 -12.0 44 0 969.9 NA 0.0000 9999 20900 0 0 0
2019/08/07 14:08:00 BASE 9.20 171 21.61 220 -6.1 62 -12.1 45 0 970.0 NA 0.0000 9999 20640 0 0 0
2019/08/07 14:09:00 BASE 9.30 181 21.61 220 -6.2 62 -12.3 46 0 970.1 NA 0.0000 9999 22020 0 0 0
2019/08/07 14:10:00 BASE 11.15 197 21.61 220 -6.3 61 -12.5 46 0 970.0 NA 0.0000 9999 3540 0 0 0
2019/08/07 14:11:00 BASE 15.03 200 22.38 194 -6.3 61 -12.5 47 0 969.9 NA 0.0000 6000 13420 0 0 0
2019/08/07 14:12:00 BASE 17.51 201 22.38 194 -6.3 61 -12.5 47 0 970.0 NA 0.0000 HZ 3100 0 0 0 0
2019/08/07 14:13:00 BASE 16.39 203 22.38 194 -6.3 62 -12.4 47 0 970.0 NA 0.0000 HZ 4100 0 0 0 0
2019/08/07 14:14:00 BASE 13.12 198 22.38 194 -6.2 63 -12.1 48 0 970.1 NA 0.0000 HZ 9000 0 0 0 0
2019/08/07 14:15:00 BASE 9.11 182 22.38 194 -6.2 64 -11.9 48 0 970.2 NA 0.0000 HZ 9999 0 0 0 0
2019/08/07 14:16:00 BASE 6.94 156 22.38 194 -6.3 64 -11.9 48 0 970.2 NA 0.0000 HZ 9999 0 0 0 0
2019/08/07 14:17:00 BASE 7.11 166 22.38 194 -6.3 64 -11.9 48 0 970.3 NA 0.0000 HZ 9999 0 0 0 0
2019/08/07 14:18:00 BASE 8.78 189 22.38 194 -6.4 64 -12.1 49 0 970.3 NA 0.0000 HZ 9999 0 0 0 0
2019/08/07 14:19:00 BASE 12.05 195 22.38 194 -6.4 63 -12.3 49 0 970.2 NA 0.0000 HZ 9999 0 0 0 0
2019/08/07 14:20:00 BASE 13.39 203 22.38 194 -6.5 63 -12.4 50 0 970.2 NA 0.0000 HZ 9999 13520 0 0 0
2019/08/07 14:21:00 BASE 13.86 204 18.62 203 -6.4 62 -12.5 51 0 970.2 NA 0.0000 HZ 9999 13480 0 0 0
2019/08/07 14:22:00 BASE 15.76 204 19.09 201 -6.4 62 -12.5 52 0 970.2 NA 0.0000 9999 13290 0 0 0
2019/08/07 14:23:00 BASE 14.86 202 19.09 201 -6.3 62 -12.4 52 0 970.3 NA 0.0000 9000 13940 0 0 0
2019/08/07 14:24:00 BASE 13.77 199 19.09 201 -6.2 62 -12.3 53 0 970.3 NA 0.0000 8000 13580 0 0 0
2019/08/07 14:25:00 BASE 14.88 203 19.09 201 -6.2 62 -12.3 54 0 970.3 NA 0.0000 9999 13550 0 0 0
2019/08/07 14:26:00 BASE 15.13 203 19.09 201 -6.2 62 -12.3 54 0 970.3 NA 0.0000 9999 13580 0 0 0
2019/08/07 14:27:00 BASE 13.44 192 19.09 201 -6.2 62 -12.3 54 0 970.4 NA 0.0000 9999 13390 0 0 0
2019/08/07 14:28:00 BASE 11.68 180 19.09 201 -6.2 62 -12.4 54 0 970.4 NA 0.0000 9999 13710 0 0 0
2019/08/07 14:29:00 BASE 11.65 182 19.09 201 -6.2 62 -12.4 54 0 970.4 NA 0.0000 9999 13290 0 0 0
2019/08/07 14:30:00 BASE 13.19 189 19.09 201 -6.3 62 -12.4 54 0 970.4 NA 0.0000 9999 12660 0 0 0
2019/08/07 14:31:00 BASE 13.73 187 19.09 201 -6.3 62 -12.5 54 0 970.5 NA 0.0000 9999 14110 0 0 0
2019/08/07 14:32:00 BASE 13.21 190 18.16 206 -6.4 62 -12.5 54 0 970.5 NA 0.0000 9999 12600 22570 0 0
2019/08/07 14:33:00 BASE 12.15 197 18.16 206 -6.4 61 -12.6 54 0 970.6 NA 0.0000 9999 12990 0 0 0
2019/08/07 14:34:00 BASE 13.09 202 18.16 206 -6.3 61 -12.7 55 0 970.4 NA 0.0000 9999 12990 0 0 0
2019/08/07 14:35:00 BASE 13.60 201 16.20 196 -6.3 60 -12.7 56 0 970.5 NA 0.0000 9999 12570 0 0 0
2019/08/07 14:36:00 BASE 12.44 195 15.54 202 -6.2 60 -12.8 56 0 970.6 NA 0.0000 9999 12600 0 0 0
2019/08/07 14:37:00 BASE 12.24 188 15.54 202 -6.2 59 -12.9 55 0 970.6 NA 0.0000 9999 12890 0 0 0
2019/08/07 14:38:00 BASE 11.96 194 15.54 202 -6.2 59 -12.9 55 0 970.6 NA 0.0000 9999 13580 0 0 0
2019/08/07 14:39:00 BASE 12.09 204 15.54 202 -6.1 59 -12.9 56 0 970.6 NA 0.0000 9999 13580 0 0 0
2019/08/07 14:40:00 BASE 11.79 201 15.54 202 -6.1 58 -13.0 56 0 970.6 NA 0.0000 9999 13420 0 0 0
2019/08/07 14:41:00 BASE 10.76 190 15.54 202 -6.2 58 -13.1 56 0 970.7 NA 0.0000 9999 13350 0 0 0
2019/08/07 14:42:00 BASE 9.92 189 15.54 202 -6.2 58 -13.2 57 0 970.8 NA 0.0000 9999 13710 0 0 0
2019/08/07 14:43:00 BASE 10.37 190 15.54 202 -6.2 57 -13.3 58 0 970.7 NA 0.0000 9999 12430 0 0 0
2019/08/07 14:44:00 BASE 10.41 192 14.30 209 -6.2 56 -13.5 58 0 970.7 NA 0.0000 9999 13290 0 0 0
2019/08/07 14:45:00 BASE 9.84 198 14.30 209 -6.2 56 -13.6 59 0 970.8 NA 0.0000 9999 0 0 0 0
2019/08/07 14:46:00 BASE 10.08 196 14.30 209 -6.2 55 -13.8 61 0 970.8 NA 0.0000 9999 0 0 0 0
2019/08/07 14:47:00 BASE 9.85 190 14.30 209 -6.1 54 -13.9 63 0 970.8 NA 0.0000 9999 12800 0 0 0
2019/08/07 14:48:00 BASE 9.52 186 14.30 209 -6.1 54 -13.9 67 0 970.9 NA 0.0000 9999 13350 0 0 0
2019/08/07 14:49:00 BASE 8.68 185 12.19 203 -6.2 55 -13.8 72 0 970.9 NA 0.0000 9999 13780 0 0 0
2019/08/07 14:50:00 BASE 7.68 187 11.94 189 -6.2 55 -13.8 73 0 971.0 NA 0.0000 9999 12630 0 0 0
2019/08/07 14:51:00 BASE 8.87 196 12.45 209 -6.2 56 -13.6 67 0 971.0 NA 0.0000 9999 0 0 0 0
2019/08/07 14:52:00 BASE 11.22 201 14.20 203 -6.2 56 -13.6 64 0 970.9 NA 0.0000 9999 0 0 0 0
2019/08/07 14:53:00 BASE 12.05 200 14.20 203 -6.2 56 -13.6 63 0 970.9 NA 0.0000 9999 0 0 0 0
2019/08/07 14:54:00 BASE 11.76 202 14.20 203 -6.1 55 -13.6 63 0 970.9 NA 0.0000 9999 0 0 0 0
2019/08/07 14:55:00 BASE 12.34 207 14.20 203 -6.1 55 -13.6 64 0 970.9 NA 0.0000 9999 23260 0 0 0
2019/08/07 14:56:00 BASE 14.62 209 17.29 212 -6.0 56 -13.4 64 0 970.9 NA 0.0000 9999 3770 0 0 0
2019/08/07 14:57:00 BASE 14.73 210 17.29 212 -6.0 56 -13.3 64 0 970.9 NA 0.0000 9999 0 0 0 0
2019/08/07 14:58:00 BASE 13.51 212 17.29 212 -6.0 57 -13.1 64 0 971.0 NA 0.0000 9999 14110 0 0 0
2019/08/07 14:59:00 BASE 12.96 217 17.29 212 -6.0 59 -12.8 64 0 971.0 NA 0.0000 9999 0 0 0 0
2019/08/07 15:00:00 BASE 12.63 218 17.29 212 -6.0 60 -12.6 65 0 971.0 NA 0.0000 9999 0 0 0 0
2019/08/07 15:01:00 BASE 13.63 220 17.29 212 -6.0 60 -12.5 66 0 971.1 NA 0.0000 9999 0 0 0 0
2019/08/07 15:02:00 BASE 14.31 227 17.29 212 -6.1 61 -12.3 68 0 971.1 NA 0.0000 9999 0 0 0 0
2019/08/07 15:03:00 BASE 14.38 230 17.29 212 -6.1 62 -12.2 69 0 971.1 NA 0.0000 9999 0 0 0 0
2019/08/07 15:04:00 BASE 14.02 229 17.29 212 -6.1 63 -12.1 72 0 971.1 NA 0.0000 9999 0 0 0 0
2019/08/07 15:05:00 BASE 13.94 225 17.29 212 -6.2 63 -12.0 75 0 971.1 NA 0.0000 9999 13350 0 0 0
2019/08/07 15:06:00 BASE 13.26 223 15.95 231 -6.2 64 -11.9 76 0 971.2 NA 0.0000 9999 13420 0 0 0
2019/08/07 15:07:00 BASE 12.35 221 15.95 231 -6.1 64 -11.8 76 0 971.2 NA 0.0000 9999 12860 0 0 0
2019/08/07 15:08:00 BASE 11.91 225 15.95 231 -6.1 64 -11.8 77 0 971.2 NA 0.0000 9999 3380 12890 0 0
2019/08/07 15:09:00 BASE 11.13 231 15.95 231 -6.1 64 -11.8 78 0 971.2 NA 0.0000 9999 0 0 0 0
2019/08/07 15:10:00 BASE 9.66 234 15.95 231 -6.0 64 -11.8 78 0 971.2 NA 0.0000 9999 0 0 0 0
2019/08/07 15:11:00 BASE 9.80 228 15.95 231 -6.0 63 -11.8 79 0 971.2 NA 0.0000 9999 0 0 0 0
2019/08/07 15:12:00 BASE 11.46 211 15.95 231 -6.0 63 -11.9 79 0 971.2 NA 0.0000 9999 14370 0 0 0
2019/08/07 15:13:00 BASE 10.83 204 15.18 228 -6.0 62 -12.1 79 0 971.2 NA 0.0000 9999 0 0 0 0
2019/08/07 15:14:00 BASE 9.79 209 15.18 228 -6.0 61 -12.4 79 0 971.2 NA 0.0000 9999 0 0 0 0
2019/08/07 15:15:00 BASE 10.56 210 14.15 218 -6.0 59 -12.7 78 0 971.2 NA 0.0000 9999 0 0 0 0
2019/08/07 15:16:00 BASE 11.45 204 14.15 218 -6.0 58 -12.9 79 0 971.2 NA 0.0000 9999 0 0 0 0
2019/08/07 15:17:00 BASE 10.45 196 14.15 218 -6.0 57 -13.2 79 0 971.2 NA 0.0000 9999 17850 0 0 0
2019/08/07 15:18:00 BASE 9.07 195 14.15 218 -6.0 56 -13.3 79 0 971.3 NA 0.0000 9999 0 0 0 0
2019/08/07 15:19:00 BASE 8.72 207 14.15 218 -5.9 56 -13.4 80 0 971.3 NA 0.0000 9999 0 0 0 0
2019/08/07 15:20:00 BASE 9.38 218 14.15 218 -5.9 56 -13.3 80 0 971.2 NA 0.0000 9999 0 0 0 0
2019/08/07 15:21:00 BASE 9.93 222 13.48 208 -5.9 56 -13.2 81 0 971.2 NA 0.0000 9999 0 0 0 0
2019/08/07 15:22:00 BASE 10.56 213 13.02 196 -5.8 57 -13.1 82 0 971.2 NA 0.0000 9999 0 0 0 0
2019/08/07 15:23:00 BASE 10.42 201 13.02 196 -5.8 57 -13.0 85 0 971.3 NA 0.0000 9999 0 0 0 0
2019/08/07 15:24:00 BASE 8.60 195 13.02 196 -5.8 58 -12.8 87 0 971.4 NA 0.0000 9999 0 0 0 0
2019/08/07 15:25:00 BASE 7.71 195 13.02 196 -5.8 58 -12.8 90 0 971.5 NA 0.0000 9999 0 0 0 0
2019/08/07 15:26:00 BASE 8.55 201 12.14 205 -5.9 58 -12.9 98 0 971.5 NA 0.0000 9999 0 0 0 0
2019/08/07 15:27:00 BASE 9.53 207 12.14 205 -5.9 57 -13.0 112 0 971.5 NA 0.0000 9999 0 0 0 0
2019/08/07 15:28:00 BASE 10.95 208 14.35 230 -5.9 57 -13.0 107 0 971.5 NA 0.0000 9999 0 0 0 0
2019/08/07 15:29:00 BASE 10.58 205 14.35 230 -5.9 57 -13.0 112 0 971.6 NA 0.0000 9999 0 0 0 0
2019/08/07 15:30:00 BASE 9.76 206 14.35 230 -5.8 57 -13.0 124 0 971.6 NA 0.0000 9999 0 0 0 0
2019/08/07 15:31:00 BASE 10.62 208 14.35 230 -5.8 57 -13.0 97 0 971.6 NA 0.0000 9999 0 0 0 0
2019/08/07 15:32:00 BASE 10.93 206 14.35 230 -5.7 57 -13.0 102 0 971.6 NA 0.0000 9999 0 0 0 0
2019/08/07 15:33:00 BASE 11.26 207 14.35 230 -5.7 56 -13.0 122 0 971.6 NA 0.0000 9999 0 0 0 0
2019/08/07 15:34:00 BASE 11.07 211 14.35 230 -5.7 56 -13.1 138 0 971.6 NA 0.0000 9999 0 0 0 0
2019/08/07 15:35:00 BASE 10.28 215 14.35 230 -5.7 55 -13.2 156 0 971.7 NA 0.0000 9999 0 0 0 0
2019/08/07 15:36:00 BASE 10.38 216 14.35 230 -5.7 55 -13.4 181 0 971.7 NA 0.0000 9999 0 0 0 0
2019/08/07 15:37:00 BASE 10.54 212 14.35 230 -5.7 54 -13.5 176 0 971.7 NA 0.0000 9999 0 0 0 0
2019/08/07 15:38:00 BASE 10.94 203 12.71 195 -5.7 54 -13.5 167 0 971.7 NA 0.0000 9999 0 0 0 0
2019/08/07 15:39:00 BASE 11.65 197 12.71 195 -5.7 54 -13.6 149 0 971.7 NA 0.0000 9999 0 0 0 0
2019/08/07 15:40:00 BASE 10.53 197 12.71 195 -5.7 54 -13.6 156 0 971.7 NA 0.0000 9999 0 0 0 0
2019/08/07 15:41:00 BASE 9.45 197 12.71 195 -5.7 54 -13.5 132 0 971.7 NA 0.0000 9999 0 0 0 0
2019/08/07 15:42:00 BASE 9.18 198 12.71 195 -5.7 54 -13.6 125 0 971.8 NA 0.0000 9999 0 0 0 0
2019/08/07 15:43:00 BASE 8.69 196 12.71 195 -5.8 54 -13.6 126 0 971.8 NA 0.0000 9999 0 0 0 0
2019/08/07 15:44:00 BASE 8.47 194 12.71 195 -5.8 54 -13.6 132 0 971.8 NA 0.0000 9999 0 0 0 0
2019/08/07 15:45:00 BASE 8.66 197 12.71 195 -5.8 54 -13.6 126 0 971.8 NA 0.0000 9999 0 0 0 0
2019/08/07 15:46:00 BASE 8.67 202 12.71 195 -5.8 54 -13.6 125 0 971.8 NA 0.0000 9999 0 0 0 0
2019/08/07 15:47:00 BASE 8.61 204 12.71 195 -5.8 54 -13.6 126 0 971.8 NA 0.0000 9999 0 0 0 0
2019/08/07 15:48:00 BASE 9.06 203 12.14 199 -5.8 54 -13.6 128 0 971.9 NA 0.0000 9999 0 0 0 0
2019/08/07 15:49:00 BASE 9.39 198 10.91 197 -5.8 54 -13.6 128 0 971.9 NA 0.0000 9999 12600 0 0 0
2019/08/07 15:50:00 BASE 8.97 197 10.44 195 -5.8 54 -13.7 128 0 971.9 NA 0.0000 9999 0 0 0 0
2019/08/07 15:51:00 BASE 8.41 199 10.44 195 -5.8 54 -13.7 133 0 972.0 NA 0.0000 9999 0 0 0 0
2019/08/07 15:52:00 BASE 8.44 204 10.44 195 -5.8 53 -13.8 173 0 972.0 NA 0.0000 9999 0 0 0 0
2019/08/07 15:53:00 BASE 8.92 205 10.44 195 -5.8 53 -13.8 209 0 972.0 NA 0.0000 9999 0 0 0 0
2019/08/07 15:54:00 BASE 9.18 200 10.44 195 -5.8 53 -13.9 212 0 972.0 NA 0.0000 9999 0 0 0 0
2019/08/07 15:55:00 BASE 8.41 203 10.44 195 -5.8 52 -14.0 213 0 972.0 NA 0.0000 9999 0 0 0 0
2019/08/07 15:56:00 BASE 7.71 204 10.44 195 -5.7 52 -14.0 198 0 972.0 NA 0.0000 9999 19290 0 0 0
2019/08/07 15:57:00 BASE 8.13 204 10.44 195 -5.7 52 -14.0 188 0 972.0 NA 0.0000 9999 0 0 0 0
2019/08/07 15:58:00 BASE 7.56 197 10.34 202 -5.7 52 -14.0 175 0 972.1 NA 0.0000 9999 0 0 0 0
2019/08/07 15:59:00 BASE 7.00 183 10.34 202 -5.7 52 -14.0 171 0 972.1 NA 0.0000 9999 13260 0 0 0
2019/08/07 16:00:00 BASE 7.01 181 10.34 202 -5.7 53 -13.9 167 0 972.1 NA 0.0000 9999 12830 0 0 0
2019/08/07 16:01:00 BASE 6.42 185 10.34 202 -5.7 53 -13.8 153 0 972.1 NA 0.0000 9999 13160 0 0 0
2019/08/07 16:02:00 BASE 6.18 186 10.34 202 -5.8 53 -13.8 149 0 972.1 NA 0.0000 9999 0 0 0 0
2019/08/07 16:03:00 BASE 6.53 181 10.34 202 -5.8 54 -13.7 133 0 972.1 NA 0.0000 9999 0 0 0 0
2019/08/07 16:04:26 BASE 6.78 177 9.52 211 -5.9 54 -13.7 129 0 972.1 NA 0.0000 9999 0 0 0 0
2019/08/07 16:05:00 BASE 6.42 181 9.52 211 -5.9 53 -13.8 117 0 M NA 0.0000 9999 0 0 0 0
2019/08/07 16:06:00 BASE 5.53 188 9.52 211 -5.9 53 -14.0 119 0 972.2 NA 0.0000 9999 0 0 0 0
2019/08/07 16:07:00 BASE 5.39 187 8.13 184 -5.9 52 -14.1 121 0 972.2 NA 0.0000 9999 0 0 0 0
2019/08/07 16:08:00 BASE 5.21 184 8.03 185 -5.9 52 -14.2 109 0 972.2 NA 0.0000 9999 20240 21460 0 0
2019/08/07 16:09:00 BASE 4.61 178 7.41 175 -5.9 52 -14.2 106 0 972.2 NA 0.0000 9999 0 0 0 0
2019/08/07 16:10:00 BASE 4.33 168 7.41 175 -5.9 52 -14.2 104 0 972.2 NA 0.0000 9999 0 0 0 0
2019/08/07 16:11:00 BASE 4.22 156 7.41 175 -6.0 53 -14.1 103 0 972.2 NA 0.0000 9999 13060 0 0 0
2019/08/07 16:12:00 BASE 3.76 152 7.41 175 -6.0 53 -14.1 101 0 972.2 NA 0.0000 9999 12960 0 0 0
2019/08/07 16:13:00 BASE 3.66 153 7.41 175 -6.1 53 -14.1 99 0 972.2 NA 0.0000 9999 0 0 0 0
2019/08/07 16:14:00 BASE 3.94 165 6.53 184 -6.1 53 -14.2 97 0 972.3 NA 0.0000 9999 0 0 0 0
2019/08/07 16:15:00 BASE 4.30 178 6.02 187 -6.2 53 -14.2 94 0 972.3 NA 0.0000 9999 0 0 0 0
2019/08/07 16:16:00 BASE 4.32 177 6.02 187 -6.2 53 -14.2 92 0 972.3 NA 0.0000 9999 0 0 0 0
2019/08/07 16:17:00 BASE 4.16 170 5.40 184 -6.2 53 -14.2 92 0 972.3 NA 0.0000 9999 0 0 0 0
2019/08/07 16:18:00 BASE 3.91 162 5.30 186 -6.2 53 -14.2 92 0 972.3 NA 0.0000 9999 0 0 0 0
2019/08/07 16:19:00 BASE 3.62 139 5.14 163 -6.3 53 -14.3 90 0 972.3 NA 0.0000 9999 13710 0 0 0
2019/08/07 16:20:00 BASE 3.94 114 5.40 105 -6.4 53 -14.4 85 0 972.3 NA 0.0000 9999 13390 0 0 0
2019/08/07 16:21:00 BASE 4.94 102 6.12 100 -6.5 54 -14.4 85 0 972.3 NA 0.0000 9999 0 0 0 0
2019/08/07 16:22:00 BASE 5.07 102 6.12 100 -6.6 54 -14.4 86 0 972.3 NA 0.0000 9999 0 0 0 0
2019/08/07 16:23:00 BASE 4.78 104 6.12 100 -6.6 54 -14.3 89 0 972.3 NA 0.0000 9999 15130 0 0 0
2019/08/07 16:24:00 BASE 5.23 104 6.22 100 -6.6 55 -14.2 92 0 972.3 NA 0.0000 9999 0 0 0 0
2019/08/07 16:25:00 BASE 5.58 105 6.28 106 -6.5 55 -14.1 86 0 972.3 NA 0.0000 9999 0 0 0 0
2019/08/07 16:26:00 BASE 5.78 102 6.28 106 -6.5 55 -14.2 85 0 972.3 NA 0.0000 9999 0 0 0 0
2019/08/07 16:27:00 BASE 5.79 98 6.28 106 -6.6 54 -14.3 83 0 972.3 NA 0.0000 9999 0 0 0 0
2019/08/07 16:28:00 BASE 5.66 94 6.28 106 -6.6 54 -14.4 83 0 972.3 NA 0.0000 9999 0 0 0 0
2019/08/07 16:29:00 BASE 5.79 94 6.43 97 -6.7 54 -14.6 84 0 972.3 NA 0.0000 9999 0 0 0 0
2019/08/07 16:30:00 BASE 5.73 97 6.43 97 -6.7 54 -14.6 86 0 972.3 NA 0.0000 9999 0 0 0 0
2019/08/07 16:31:00 BASE 5.58 95 6.43 97 -6.8 53 -14.7 91 0 972.4 NA 0.0000 9999 0 0 0 0
2019/08/07 16:32:00 BASE 5.93 90 6.84 85 -6.9 54 -14.7 96 0 972.4 NA 0.0000 9999 0 0 0 0
2019/08/07 16:33:00 BASE 6.70 85 7.61 85 -6.9 54 -14.7 102 0 972.5 NA 0.0000 9999 0 0 0 0
2019/08/07 16:34:00 BASE 7.35 85 8.49 91 -7.0 54 -14.7 102 0 972.6 NA 0.0000 9999 0 0 0 0
2019/08/07 16:35:00 BASE 7.61 90 8.64 91 -7.1 54 -14.8 93 0 972.6 NA 0.0000 9999 0 0 0 0
2019/08/07 16:36:00 BASE 7.67 92 8.64 91 -7.0 55 -14.7 88 0 972.6 NA 0.0000 9999 0 0 0 0
2019/08/07 16:37:00 BASE 7.24 92 8.64 91 -7.1 55 -14.7 81 0 972.6 NA 0.0000 9999 0 0 0 0
2019/08/07 16:38:00 BASE 6.34 92 8.64 91 -7.0 55 -14.6 76 0 972.5 NA 0.0000 9999 0 0 0 0
2019/08/07 16:39:00 BASE 5.35 92 8.64 91 -7.0 54 -14.6 73 0 972.6 NA 0.0000 9999 0 0 0 0
2019/08/07 16:40:00 BASE 4.51 95 8.64 91 -6.9 54 -14.6 69 0 972.6 NA 0.0000 9999 0 0 0 0
2019/08/07 16:41:00 BASE 3.73 103 8.64 91 -6.8 54 -14.6 70 0 972.6 NA 0.0000 9999 0 0 0 0
2019/08/07 16:42:00 BASE 3.37 111 8.64 91 -6.7 54 -14.6 70 0 972.6 NA 0.0000 9999 0 0 0 0
2019/08/07 16:43:00 BASE 3.59 108 8.64 91 -6.6 53 -14.6 66 0 972.6 NA 0.0000 9999 0 0 0 0
2019/08/07 16:44:00 BASE 3.99 107 8.64 91 -6.5 53 -14.5 62 0 972.5 NA 0.0000 9999 0 0 0 0
2019/08/07 16:45:00 BASE 4.12 110 8.03 93 -6.4 53 -14.5 61 0 972.6 NA 0.0000 9999 0 0 0 0
2019/08/07 16:46:00 BASE 4.20 109 7.56 90 -6.3 52 -14.6 68 0 972.7 NA 0.0000 9999 0 0 0 0
2019/08/07 16:47:00 BASE 4.84 106 6.12 87 -6.3 52 -14.6 63 0 972.7 NA 0.0000 9999 0 0 0 0
2019/08/07 16:48:00 BASE 6.03 107 7.25 110 -6.5 51 -14.9 61 0 972.7 NA 0.0000 9999 0 0 0 0
2019/08/07 16:49:00 BASE 6.65 111 7.25 110 -6.7 52 -15.1 62 0 972.7 NA 0.0000 9999 17420 0 0 0
2019/08/07 16:50:00 BASE 6.78 112 7.31 113 -7.0 52 -15.2 68 0 972.8 NA 0.0000 9999 0 0 0 0
2019/08/07 16:51:00 BASE 6.82 112 7.31 113 -7.3 53 -15.4 70 0 972.8 NA 0.0000 9999 0 0 0 0
2019/08/07 16:52:00 BASE 6.50 110 7.31 113 -7.6 53 -15.5 71 0 972.8 NA 0.0000 9999 0 0 0 0
2019/08/07 16:53:00 BASE 6.13 108 7.31 113 -7.8 54 -15.4 75 0 972.8 NA 0.0000 9999 0 0 0 0
2019/08/07 16:54:00 BASE 5.94 107 7.31 113 -7.8 55 -15.3 71 0 972.9 NA 0.0000 9999 0 0 0 0
2019/08/07 16:55:00 BASE 6.06 107 7.31 113 -7.7 55 -15.3 67 0 972.9 NA 0.0000 9999 0 0 0 0
2019/08/07 16:56:00 BASE 6.08 108 7.31 113 -7.6 55 -15.2 74 0 972.9 NA 0.0000 9999 0 0 0 0
2019/08/07 16:57:00 BASE 6.27 111 7.31 113 -7.5 55 -15.1 84 0 972.9 NA 0.0000 9999 0 0 0 0
2019/08/07 16:58:00 BASE 6.69 115 7.31 118 -7.4 54 -15.0 88 0 972.9 NA 0.0000 9999 0 0 0 0
2019/08/07 16:59:00 BASE 7.04 116 8.03 120 -7.4 54 -15.0 92 0 973.0 NA 0.0000 9999 0 0 0 0
2019/08/07 17:00:00 BASE 7.09 117 8.03 120 -7.5 54 -15.1 99 0 973.0 NA 0.0000 9999 0 0 0 0
2019/08/07 17:01:00 BASE 7.03 116 8.03 120 -7.6 55 -15.2 108 0 973.0 NA 0.0000 9999 0 0 0 0
2019/08/07 17:02:00 BASE 7.11 114 8.03 120 -7.8 55 -15.2 112 0 973.0 NA 0.0000 9999 0 0 0 0
2019/08/07 17:03:00 BASE 7.15 112 8.03 120 -7.9 56 -15.1 108 0 973.0 NA 0.0000 9999 0 0 0 0
2019/08/07 17:04:00 BASE 7.19 107 8.03 120 -7.9 57 -14.9 114 0 973.0 NA 0.0000 9999 0 0 0 0
2019/08/07 17:05:00 BASE 7.65 103 8.28 100 -7.8 58 -14.8 122 0 973.0 NA 0.0000 9999 0 0 0 0
2019/08/07 17:06:00 BASE 8.27 98 8.75 95 -7.9 58 -14.7 118 0 973.1 NA 0.0000 9999 0 0 0 0
2019/08/07 17:07:00 BASE 8.61 94 9.36 92 -8.0 58 -14.9 121 0 973.2 NA 0.0000 9999 0 0 0 0
2019/08/07 17:08:00 BASE 8.63 93 9.36 92 -8.2 58 -15.0 119 0 973.2 NA 0.0000 9999 0 0 0 0
2019/08/07 17:09:00 BASE 8.48 93 9.36 92 -8.4 58 -15.1 122 0 973.2 NA 0.0000 9999 0 0 0 0
2019/08/07 17:10:00 BASE 8.56 93 9.36 92 -8.6 59 -15.3 133 0 973.2 NA 0.0000 9999 0 0 0 0
2019/08/07 17:11:00 BASE 8.56 92 9.36 92 -8.7 59 -15.3 142 0 973.2 NA 0.0000 9999 0 0 0 0
2019/08/07 17:12:00 BASE 8.60 91 9.36 92 -8.8 59 -15.3 151 0 973.2 NA 0.0000 9999 0 0 0 0
2019/08/07 17:13:00 BASE 8.79 93 9.36 92 -8.9 60 -15.4 152 0 973.2 NA 0.0000 9999 0 0 0 0
2019/08/07 17:14:00 BASE 9.05 94 9.67 100 -9.0 60 -15.3 149 0 973.2 NA 0.0000 9999 0 0 0 0
2019/08/07 17:15:00 BASE 9.25 96 9.88 98 -9.1 61 -15.3 147 0 973.3 NA 0.0000 9999 0 0 0 0
2019/08/07 17:16:00 BASE 9.31 97 9.88 98 -9.2 61 -15.3 148 0 973.3 NA 0.0000 9999 0 0 0 0
2019/08/07 17:17:00 BASE 9.38 96 9.88 98 -9.1 61 -15.3 149 0 973.3 NA 0.0000 9999 0 0 0 0
2019/08/07 17:18:00 BASE 9.13 97 9.88 98 -9.1 61 -15.2 149 0 973.3 NA 0.0000 9999 0 0 0 0
2019/08/07 17:19:00 BASE 8.97 97 9.88 98 -9.1 61 -15.3 150 0 973.3 NA 0.0000 9999 0 0 0 0
2019/08/07 17:20:00 BASE 8.79 95 9.88 98 -9.1 61 -15.3 153 0 973.3 NA 0.0000 9999 0 0 0 0
2019/08/07 17:21:00 BASE 8.20 96 9.88 98 -9.0 61 -15.3 153 0 973.3 NA 0.0000 9999 0 0 0 0
2019/08/07 17:22:00 BASE 8.05 97 9.88 98 -8.9 60 -15.3 153 0 973.3 NA 0.0000 9999 0 0 0 0
2019/08/07 17:23:00 BASE 8.21 97 9.88 98 -8.8 60 -15.2 153 0 973.4 NA 0.0000 9999 0 0 0 0
2019/08/07 17:24:00 BASE 7.99 96 9.88 98 -8.7 59 -15.2 153 0 973.4 NA 0.0000 9999 0 0 0 0
2019/08/07 17:25:00 BASE 7.79 96 9.83 96 -8.7 59 -15.2 153 0 973.4 NA 0.0000 9999 0 0 0 0
2019/08/07 17:26:00 BASE 8.14 93 9.77 95 -8.6 59 -15.2 152 0 973.4 NA 0.0000 9999 0 0 0 0
2019/08/07 17:27:00 BASE 8.38 91 9.77 95 -8.5 58 -15.2 152 0 973.4 NA 0.0000 9999 0 0 0 0
2019/08/07 17:28:00 BASE 7.98 89 9.77 95 -8.5 58 -15.3 151 0 973.4 NA 0.0000 9999 0 0 0 0
2019/08/07 17:29:00 BASE 7.83 87 8.85 90 -8.6 58 -15.4 151 0 973.5 NA 0.0000 9999 0 0 0 0
2019/08/07 17:30:00 BASE 8.29 91 8.85 93 -8.6 58 -15.4 150 0 973.5 NA 0.0000 9999 0 0 0 0
2019/08/07 17:31:00 BASE 8.37 97 8.85 93 -8.7 58 -15.4 151 0 973.5 NA 0.0000 9999 0 0 0 0
2019/08/07 17:32:00 BASE 7.65 98 8.85 93 -8.7 59 -15.4 150 0 973.5 NA 0.0000 9999 0 0 0 0
2019/08/07 17:33:00 BASE 6.95 99 8.85 93 -8.6 59 -15.2 151 0 973.6 NA 0.0000 9999 0 0 0 0
2019/08/07 17:34:00 BASE 6.34 99 8.85 93 -8.5 59 -15.1 150 0 973.6 NA 0.0000 9999 0 0 0 0
2019/08/07 17:35:00 BASE 5.43 100 8.85 93 -8.2 58 -14.9 150 0 973.6 NA 0.0000 9999 0 0 0 0
2019/08/07 17:36:00 BASE 4.57 100 8.85 93 -8.0 58 -14.8 150 0 973.6 NA 0.0000 9999 0 0 0 0
2019/08/07 17:37:00 BASE 4.33 97 8.85 93 -7.7 57 -14.8 150 0 973.6 NA 0.0000 9999 0 0 0 0
2019/08/07 17:38:00 BASE 4.47 92 8.85 93 -7.6 56 -14.9 149 0 973.6 NA 0.0000 9999 0 0 0 0
2019/08/07 17:39:00 BASE 4.77 93 8.85 93 -7.5 55 -14.9 149 0 973.7 NA 0.0000 9999 0 0 0 0
2019/08/07 17:40:00 BASE 5.06 94 8.59 96 -7.5 55 -15.0 148 0 973.7 NA 0.0000 9999 0 0 0 0
2019/08/07 17:41:00 BASE 4.80 95 7.61 101 -7.4 54 -15.1 148 0 973.7 NA 0.0000 9999 0 0 0 0
2019/08/07 17:42:00 BASE 4.49 98 6.94 99 -7.4 54 -15.2 149 0 973.7 NA 0.0000 9999 0 0 0 0
2019/08/07 17:43:00 BASE 4.56 100 6.48 99 -7.4 53 -15.2 149 0 973.8 NA 0.0000 9999 0 0 0 0
2019/08/07 17:44:00 BASE 4.87 100 5.45 91 -7.3 53 -15.3 149 0 973.9 NA 0.0000 9999 0 0 0 0
2019/08/07 17:45:00 BASE 5.43 96 6.33 90 -7.4 53 -15.4 148 0 973.9 NA 0.0000 9999 0 0 0 0
2019/08/07 17:46:00 BASE 6.10 92 6.74 94 -7.5 53 -15.5 148 0 973.9 NA 0.0000 9999 0 0 0 0
2019/08/07 17:47:00 BASE 6.66 91 7.00 87 -7.7 53 -15.7 148 0 973.9 NA 0.0000 9999 0 0 0 0
2019/08/07 17:48:00 BASE 7.02 90 7.61 85 -7.8 53 -15.7 148 0 973.9 NA 0.0000 9999 0 0 0 0
2019/08/07 17:49:00 BASE 7.38 87 8.03 86 -7.9 54 -15.6 148 0 973.9 NA 0.0000 9999 0 0 0 0
2019/08/07 17:50:00 BASE 7.69 89 8.03 91 -7.9 54 -15.6 147 0 973.9 NA 0.0000 9999 0 0 0 0
2019/08/07 17:51:00 BASE 7.88 93 8.33 89 -8.0 54 -15.6 147 0 974.0 NA 0.0000 9999 0 0 0 0
2019/08/07 17:52:00 BASE 7.80 93 8.33 89 -8.0 54 -15.6 147 0 974.0 NA 0.0000 9999 0 0 0 0
2019/08/07 17:53:00 BASE 7.63 92 8.33 89 -8.0 54 -15.6 146 0 974.1 NA 0.0000 9999 0 0 0 0
2019/08/07 17:54:00 BASE 7.44 89 8.33 89 -8.2 54 -15.7 146 0 974.1 NA 0.0000 9999 0 0 0 0
2019/08/07 17:55:00 BASE 6.96 86 8.33 89 -8.1 55 -15.7 146 0 974.1 NA 0.0000 9999 0 0 0 0
2019/08/07 17:56:00 BASE 6.40 84 8.33 89 -7.9 55 -15.5 145 0 974.2 NA 0.0000 9999 0 0 0 0
2019/08/07 17:57:00 BASE 6.24 87 8.33 89 -7.8 54 -15.5 144 0 974.2 NA 0.0000 9999 0 0 0 0
2019/08/07 17:58:00 BASE 6.42 90 8.33 89 -7.7 53 -15.5 143 0 974.2 NA 0.0000 9999 0 0 0 0
2019/08/07 17:59:00 BASE 6.52 90 8.33 89 -7.6 53 -15.6 142 0 974.2 NA 0.0000 9999 0 0 0 0
2019/08/07 18:00:00 BASE 6.56 88 8.33 89 -7.6 52 -15.7 141 0 974.2 NA 0.0000 9999 0 0 0 0
2019/08/07 18:01:00 BASE 6.10 88 7.87 92 -7.6 52 -15.8 139 0 974.2 NA 0.0000 9999 0 0 0 0
2019/08/07 18:02:00 BASE 5.58 89 7.87 92 -7.6 51 -15.9 138 0 974.2 NA 0.0000 9999 0 0 0 0
2019/08/07 18:03:00 BASE 5.85 88 7.56 89 -7.5 51 -15.9 137 0 974.2 NA 0.0000 9999 0 0 0 0
2019/08/07 18:04:00 BASE 6.10 89 6.94 86 -7.5 51 -16.0 136 0 974.2 NA 0.0000 9999 0 0 0 0
2019/08/07 18:05:00 BASE 6.27 90 7.61 93 -7.4 50 -16.0 135 0 974.2 NA 0.0000 9999 0 0 0 0
2019/08/07 18:06:00 BASE 6.72 95 7.61 93 -7.5 50 -16.2 134 0 974.3 NA 0.0000 9999 0 0 0 0
2019/08/07 18:07:00 BASE 6.46 102 7.61 93 -7.5 50 -16.3 133 0 974.3 NA 0.0000 9999 0 0 0 0
2019/08/07 18:08:00 BASE 5.87 105 7.61 93 -7.5 49 -16.3 132 0 974.3 NA 0.0000 9999 0 0 0 0
2019/08/07 18:09:00 BASE 5.75 104 7.61 93 -7.5 49 -16.3 131 0 974.3 NA 0.0000 9999 0 0 0 0
2019/08/07 18:10:00 BASE 5.77 103 7.61 93 -7.5 49 -16.3 130 0 974.3 NA 0.0000 9999 0 0 0 0
2019/08/07 18:11:00 BASE 5.58 100 7.61 93 -7.4 49 -16.3 129 0 974.2 NA 0.0000 9999 0 0 0 0
2019/08/07 18:12:00 BASE 5.45 97 7.61 93 -7.4 49 -16.3 127 0 974.2 NA 0.0000 9999 0 0 0 0
2019/08/07 18:13:00 BASE 5.78 93 7.61 93 -7.5 49 -16.4 126 0 974.2 NA 0.0000 9999 0 0 0 0
2019/08/07 18:14:00 BASE 6.16 92 7.61 93 -7.6 49 -16.4 126 0 974.2 NA 0.0000 9999 0 0 0 0
2019/08/07 18:15:00 BASE 5.98 94 7.41 98 -7.6 49 -16.4 125 0 974.3 NA 0.0000 9999 0 0 0 0
2019/08/07 18:16:00 BASE 5.41 97 6.58 89 -7.6 50 -16.3 124 0 974.3 NA 0.0000 9999 0 0 0 0
2019/08/07 18:17:00 BASE 4.98 97 6.58 89 -7.6 50 -16.2 123 0 974.3 NA 0.0000 9999 0 0 0 0
2019/08/07 18:18:00 BASE 4.55 90 6.58 89 -7.5 50 -16.1 122 0 974.3 NA 0.0000 9999 0 0 0 0
2019/08/07 18:19:00 BASE 4.38 84 6.58 89 -7.3 50 -16.0 120 0 974.3 NA 0.0000 9999 0 0 0 0
2019/08/07 18:20:00 BASE 4.57 80 6.58 89 -7.2 50 -15.9 119 0 974.3 NA 0.0000 9999 0 0 0 0
2019/08/07 18:21:00 BASE 4.77 80 6.58 89 -7.1 50 -15.9 118 0 974.4 NA 0.0000 9999 0 0 0 0
2019/08/07 18:22:00 BASE 4.72 79 6.58 89 -7.1 50 -15.8 117 0 974.5 NA 0.0000 9999 0 0 0 0
2019/08/07 18:23:00 BASE 4.48 75 6.58 89 -7.2 50 -15.8 116 0 974.5 NA 0.0000 9999 0 0 0 0
2019/08/07 18:24:00 BASE 4.25 72 6.07 91 -7.2 51 -15.7 115 0 974.6 NA 0.0000 9999 0 0 0 0
2019/08/07 18:25:00 BASE 3.99 75 5.45 96 -7.2 51 -15.7 113 0 974.6 NA 0.0000 9999 0 0 0 0
2019/08/07 18:26:00 BASE 3.85 82 5.14 82 -7.2 51 -15.6 113 0 974.6 NA 0.0000 9999 0 0 0 0
2019/08/07 18:27:00 BASE 3.96 100 5.14 82 -7.2 51 -15.6 112 0 974.6 NA 0.0000 9999 0 0 0 0
2019/08/07 18:28:00 BASE 4.06 118 5.14 82 -7.3 51 -15.7 111 0 974.7 NA 0.0000 9999 22840 0 0 0
2019/08/07 18:29:00 BASE 3.98 124 5.14 82 -7.4 51 -15.8 110 0 974.7 NA 0.0000 9999 0 0 0 0
2019/08/07 18:30:00 BASE 3.89 128 5.14 82 -7.5 52 -15.8 105 0 974.7 NA 0.0000 9999 0 0 0 0
2019/08/07 18:31:00 BASE 3.70 134 4.89 77 -7.6 52 -15.8 72 0 974.8 NA 0.0000 9999 0 0 0 0
2019/08/07 18:32:00 BASE 3.30 135 4.68 122 -7.8 53 -15.8 74 0 974.8 NA 0.0000 9999 0 0 0 0
2019/08/07 18:33:00 BASE 3.61 131 4.68 122 -7.9 53 -15.7 64 0 974.8 NA 0.0000 9999 0 0 0 0
2019/08/07 18:34:00 BASE 4.16 128 4.68 122 -8.0 54 -15.7 75 0 974.7 NA 0.0000 9999 0 0 0 0
2019/08/07 18:35:00 BASE 4.35 127 4.94 123 -8.0 54 -15.6 70 0 974.8 NA 0.0000 9999 0 0 0 0
2019/08/07 18:36:00 BASE 4.49 124 4.99 125 -8.0 55 -15.5 56 0 974.8 NA 0.0000 9999 0 0 0 0
2019/08/07 18:37:00 BASE 4.35 119 4.99 125 -7.7 54 -15.3 87 0 974.8 NA 0.0000 9999 0 0 0 0
2019/08/07 18:38:00 BASE 4.54 120 5.09 130 -7.5 54 -15.3 66 0 974.9 NA 0.0000 9999 0 0 0 0
2019/08/07 18:39:00 BASE 4.93 128 5.20 135 -7.3 53 -15.4 74 0 975.0 NA 0.0000 9999 0 0 0 0
2019/08/07 18:40:00 BASE 4.96 133 5.20 135 -7.2 52 -15.5 75 0 975.1 NA 0.0000 9999 0 0 0 0
2019/08/07 18:41:00 BASE 4.86 132 5.20 135 -7.2 51 -15.7 91 0 975.1 NA 0.0000 9999 0 0 0 0
2019/08/07 18:42:00 BASE 4.75 128 6.28 134 -7.3 50 -15.9 87 0 975.1 NA 0.0000 9999 0 0 0 0
2019/08/07 18:43:00 BASE 4.98 127 6.28 134 -7.4 50 -16.0 88 0 975.2 NA 0.0000 9999 0 0 0 0
2019/08/07 18:44:00 BASE 4.67 128 6.28 134 -7.4 51 -15.8 88 0 975.2 NA 0.0000 9999 0 0 0 0
2019/08/07 18:45:00 BASE 4.11 128 6.28 134 -7.4 51 -15.8 87 0 975.2 NA 0.0000 9999 0 0 0 0
2019/08/07 18:46:00 BASE 4.12 128 6.28 134 -7.4 51 -15.8 87 0 975.2 NA 0.0000 9999 4490 0 0 0
2019/08/07 18:47:00 BASE 4.17 129 6.28 134 -7.3 52 -15.6 86 0 975.3 NA 0.0000 9999 0 0 0 0
2019/08/07 18:48:00 BASE 4.49 135 6.28 134 -7.3 52 -15.4 85 0 975.3 NA 0.0000 9999 0 0 0 0
2019/08/07 18:49:00 BASE 4.66 138 6.28 134 -7.3 53 -15.4 85 0 975.4 NA 0.0000 9999 0 0 0 0
2019/08/07 18:50:00 BASE 4.49 137 6.28 134 -7.3 54 -15.1 84 0 975.3 NA 0.0000 9999 0 0 0 0
2019/08/07 18:51:00 BASE 4.20 136 6.28 134 -7.2 54 -14.9 82 0 975.4 NA 0.0000 9999 0 0 0 0
2019/08/07 18:52:00 BASE 3.90 134 6.17 127 -7.2 54 -14.9 81 0 975.4 NA 0.0000 9999 0 0 0 0
2019/08/07 18:53:00 BASE 3.75 131 5.04 145 -7.3 54 -14.9 80 0 975.4 NA 0.0000 9999 0 0 0 0
2019/08/07 18:54:00 BASE 3.75 131 5.04 145 -7.4 55 -15.0 81 0 975.3 NA 0.0000 9999 0 0 0 0
2019/08/07 18:55:00 BASE 4.04 137 5.04 145 -7.4 55 -15.0 81 0 975.4 NA 0.0000 9999 4460 0 0 0
2019/08/07 18:56:00 BASE 3.60 139 5.04 145 -7.4 55 -15.0 80 0 975.4 NA 0.0000 9999 4400 0 0 0
2019/08/07 18:57:00 BASE 3.02 136 5.04 145 -7.4 55 -14.9 79 0 975.4 NA 0.0000 9999 0 0 0 0
2019/08/07 18:58:00 BASE 2.98 137 4.89 141 -7.3 55 -14.8 79 0 975.5 NA 0.0000 9999 0 0 0 0
2019/08/07 18:59:00 BASE 2.91 142 4.89 141 -7.2 55 -14.7 79 0 975.5 NA 0.0000 9999 4130 0 0 0
2019/08/07 19:00:00 BASE 2.73 144 4.89 141 -7.1 55 -14.7 79 0 975.6 NA 0.0000 9999 4130 0 0 0
2019/08/07 19:01:00 BASE 2.46 145 4.89 141 -7.0 54 -14.7 78 0 975.6 NA 0.0000 9999 4130 0 0 0
2019/08/07 19:02:00 BASE 2.27 150 4.89 141 -6.9 54 -14.6 79 0 975.6 NA 0.0000 9999 4070 0 0 0
2019/08/07 19:03:00 BASE 2.54 152 4.89 141 -6.9 54 -14.7 79 0 975.6 NA 0.0000 9999 4200 0 0 0
2019/08/07 19:04:00 BASE 2.93 153 4.89 141 -7.0 54 -14.7 74 0 975.6 NA 0.0000 9999 4000 0 0 0
2019/08/07 19:05:00 BASE 2.64 157 3.29 142 -7.0 54 -14.7 68 0 975.6 NA 0.0000 9999 4100 0 0 0
2019/08/07 19:06:00 BASE 2.53 177 3.29 142 -7.1 55 -14.7 64 0 975.7 NA 0.0000 9999 3940 0 0 0
2019/08/07 19:07:00 BASE 3.54 203 5.92 220 -7.1 55 -14.6 62 0 975.8 NA 0.0000 9999 3940 0 0 0
2019/08/07 19:08:00 BASE 4.77 212 5.92 229 -7.2 55 -14.6 61 0 975.9 NA 0.0000 9999 3870 0 0 0
2019/08/07 19:09:00 BASE 6.48 225 12.60 218 -7.2 56 -14.5 60 0 975.8 NA 0.0000 9999 3940 0 0 0
2019/08/07 19:10:00 BASE 10.79 232 18.11 224 -7.2 57 -14.2 60 0 975.7 NA 0.0000 9999 4040 0 0 0
2019/08/07 19:11:00 BASE 14.54 216 18.47 213 -7.0 58 -13.8 58 0 975.6 NA 0.0000 SQ 9999 4000 0 0 0
2019/08/07 19:12:00 BASE 15.73 205 18.67 208 -6.7 59 -13.4 56 0 975.6 NA 0.0000 9999 3900 0 0 0
2019/08/07 19:13:00 BASE 16.68 205 18.98 205 -6.5 60 -12.9 52 0 975.6 NA 0.0000 9999 3870 0 0 0
2019/08/07 19:14:00 BASE 17.43 212 20.73 220 -6.2 60 -12.6 48 0 975.6 NA 0.0000 9999 3840 0 0 0
2019/08/07 19:15:00 BASE 18.71 216 22.43 219 -5.9 61 -12.3 46 0 975.6 NA 0.0000 9999 0 0 0 0
2019/08/07 19:16:00 BASE 19.68 216 22.43 219 -5.8 61 -12.2 44 0 975.7 NA 0.0000 9999 4040 0 0 0
2019/08/07 19:17:00 BASE 19.93 216 22.43 219 -5.8 60 -12.3 42 0 975.7 NA 0.0000 9999 4040 0 0 0
2019/08/07 19:18:00 BASE 20.19 216 22.43 219 -5.8 60 -12.3 40 0 975.8 NA 0.0000 9999 0 0 0 0
2019/08/07 19:19:00 BASE 20.23 216 22.43 219 -5.9 60 -12.3 38 0 975.8 NA 0.0000 9999 0 0 0 0
2019/08/07 19:20:00 BASE 19.42 219 22.43 219 -5.9 60 -12.4 36 0 975.8 NA 0.0000 9999 0 0 0 0
2019/08/07 19:21:00 BASE 18.56 220 22.43 219 -5.9 60 -12.5 35 0 975.8 NA 0.0000 9999 0 0 0 0
2019/08/07 19:22:00 BASE 18.64 220 22.43 219 -6.0 60 -12.5 33 0 975.8 NA 0.0000 9999 0 0 0 0
2019/08/07 19:23:00 BASE 18.10 222 22.43 219 -6.0 60 -12.5 32 0 975.8 NA 0.0000 9999 0 0 0 0
2019/08/07 19:24:00 BASE 17.99 226 22.43 219 -6.0 60 -12.5 31 0 975.8 NA 0.0000 9999 0 0 0 0
2019/08/07 19:25:00 BASE 18.04 225 21.40 219 -6.0 61 -12.4 30 0 975.9 NA 0.0000 9999 0 0 0 0
2019/08/07 19:26:00 BASE 18.52 220 21.40 219 -6.0 61 -12.3 28 0 975.8 NA 0.0000 9999 0 0 0 0
2019/08/07 19:27:01 BASE 18.68 216 21.40 219 -6.1 62 -12.3 27 0 975.9 NA 0.0000 9999 0 0 0 0
2019/08/07 19:28:01 BASE 18.38 218 21.40 219 -6.1 61 -12.3 26 0 975.9 NA 0.0000 9999 0 0 0 0
2019/08/07 19:29:01 BASE 18.26 221 20.89 221 -6.2 61 -12.4 25 0 975.9 NA 0.0000 9999 0 0 0 0
2019/08/07 19:30:01 BASE 17.38 219 20.89 221 -6.2 61 -12.5 24 0 976.0 NA 0.0000 9999 0 0 0 0
2019/08/07 19:31:01 BASE 17.17 215 20.89 221 -6.2 60 -12.6 23 0 975.9 NA 0.0000 9999 0 0 0 0
2019/08/07 19:32:01 BASE 17.58 216 20.89 221 -6.2 60 -12.7 22 0 975.9 NA 0.0000 9999 0 0 0 0
2019/08/07 19:33:01 BASE 16.69 220 20.89 221 -6.2 60 -12.8 20 0 975.9 NA 0.0000 9999 0 0 0 0
2019/08/07 19:34:01 BASE 16.49 219 20.89 221 -6.2 59 -12.9 19 0 976.0 NA 0.0000 9999 0 0 0 0
2019/08/07 19:35:01 BASE 16.26 216 20.89 221 -6.3 59 -13.1 19 0 976.0 NA 0.0000 9999 0 0 0 0
2019/08/07 19:36:01 BASE 16.48 215 20.89 221 -6.3 58 -13.1 18 0 976.0 NA 0.0000 9999 0 0 0 0
2019/08/07 19:37:01 BASE 17.17 216 20.89 221 -6.2 58 -13.3 18 0 976.1 NA 0.0000 9999 0 0 0 0
2019/08/07 19:38:01 BASE 15.33 218 19.91 220 -6.2 57 -13.3 17 0 976.2 NA 0.0000 9999 0 0 0 0
2019/08/07 19:39:01 BASE 14.11 218 19.24 218 -6.2 57 -13.3 17 0 976.2 NA 0.0000 9999 0 0 0 0
2019/08/07 19:40:01 BASE 15.54 211 19.60 205 -6.2 57 -13.3 15 0 976.2 NA 0.0000 9999 0 0 0 0
2019/08/07 19:41:01 BASE 16.85 209 19.60 205 -6.2 57 -13.3 15 0 976.2 NA 0.0000 9999 0 0 0 0
2019/08/07 19:42:01 BASE 15.85 213 19.60 205 -6.2 57 -13.3 14 0 976.2 NA 0.0000 9999 0 0 0 0
2019/08/07 19:43:01 BASE 15.38 218 19.60 205 -6.3 58 -13.2 14 0 976.2 NA 0.0000 9999 0 0 0 0
2019/08/07 19:44:01 BASE 15.77 223 19.60 205 -6.3 58 -13.2 14 0 976.2 NA 0.0000 9999 0 0 0 0
2019/08/07 19:45:01 BASE 14.90 221 19.60 205 -6.3 58 -13.1 13 0 976.2 NA 0.0000 9999 0 0 0 0
2019/08/07 19:46:01 BASE 14.39 219 19.60 205 -6.3 59 -13.1 13 0 976.2 NA 0.0000 9999 0 0 0 0
2019/08/07 19:47:01 BASE 14.92 221 19.60 205 -6.3 59 -13.0 13 0 976.2 NA 0.0000 9999 0 0 0 0
2019/08/07 19:48:01 BASE 14.42 222 19.60 205 -6.3 59 -12.9 12 0 976.3 NA 0.0000 9999 0 0 0 0
2019/08/07 19:49:01 BASE 13.82 225 19.60 205 -6.4 60 -12.9 12 0 976.3 NA 0.0000 9999 0 0 0 0
2019/08/07 19:50:01 BASE 13.82 224 18.67 215 -6.4 60 -13.0 12 0 976.4 NA 0.0000 9999 0 0 0 0
2019/08/07 19:51:01 BASE 12.85 221 17.54 225 -6.4 60 -13.0 12 0 976.4 NA 0.0000 9999 0 0 0 0
2019/08/07 19:52:01 BASE 12.52 224 17.54 225 -6.4 59 -13.1 11 0 976.4 NA 0.0000 9999 0 0 0 0
2019/08/07 19:53:01 BASE 12.80 225 17.44 222 -6.4 59 -13.1 11 0 976.4 NA 0.0000 9999 0 0 0 0
2019/08/07 19:54:01 BASE 12.58 226 15.84 222 -6.4 59 -13.2 11 0 976.4 NA 0.0000 9999 0 0 0 0
2019/08/07 19:55:01 BASE 12.01 227 15.84 222 -6.4 59 -13.2 10 0 976.5 NA 0.0000 9999 0 0 0 0
2019/08/07 19:56:01 BASE 10.95 225 15.79 221 -6.4 59 -13.1 10 0 976.5 NA 0.0000 9999 0 0 0 0
2019/08/07 19:57:01 BASE 11.69 223 15.28 216 -6.4 59 -13.1 10 0 976.4 NA 0.0000 9999 0 0 0 0
2019/08/07 19:58:01 BASE 12.70 222 14.92 224 -6.3 59 -13.0 10 0 976.4 NA 0.0000 9999 0 0 0 0
2019/08/07 19:59:01 BASE 11.55 224 14.92 224 -6.3 60 -12.8 9 0 976.5 NA 0.0000 9999 0 0 0 0
2019/08/07 20:00:01 BASE 11.97 225 15.38 232 -6.3 60 -12.7 9 0 976.5 NA 0.0000 9999 0 0 0 0
2019/08/07 20:01:01 BASE 12.96 225 15.38 232 -6.3 61 -12.5 9 0 976.5 NA 0.0000 9999 0 0 0 0
2019/08/07 20:02:01 BASE 12.80 225 15.38 232 -6.2 61 -12.5 9 0 976.5 NA 0.0000 9999 0 0 0 0
2019/08/07 20:03:01 BASE 12.50 222 15.38 232 -6.2 62 -12.4 8 0 976.5 NA 0.0000 9999 0 0 0 0
2019/08/07 20:04:01 BASE 11.27 220 15.38 232 -6.3 62 -12.4 8 0 976.6 NA 0.0000 9999 0 0 0 0
2019/08/07 20:05:01 BASE 11.60 219 15.38 232 -6.3 61 -12.5 8 0 976.5 NA 0.0000 9999 0 0 0 0
2019/08/07 20:06:01 BASE 13.08 221 15.38 232 -6.3 61 -12.5 8 0 976.5 NA 0.0000 9999 0 0 0 0
2019/08/07 20:07:01 BASE 12.67 222 15.38 232 -6.3 61 -12.6 7 0 976.6 NA 0.0000 9999 0 0 0 0
2019/08/07 20:08:01 BASE 11.92 218 15.38 232 -6.2 60 -12.7 7 0 976.6 NA 0.0000 9999 0 0 0 0
2019/08/07 20:09:01 BASE 11.74 218 15.38 232 -6.2 60 -12.7 7 0 976.6 NA 0.0000 9999 0 0 0 0
2019/08/07 20:10:01 BASE 11.83 219 14.76 227 -6.2 60 -12.7 7 0 976.7 NA 0.0000 9999 0 0 0 0
2019/08/07 20:11:01 BASE 12.23 215 14.76 227 -6.2 60 -12.7 7 0 976.7 NA 0.0000 9999 0 0 0 0
2019/08/07 20:12:01 BASE 11.97 218 14.76 227 -6.2 60 -12.7 6 0 976.7 NA 0.0000 9999 0 0 0 0
2019/08/07 20:13:01 BASE 11.26 223 14.76 227 -6.1 60 -12.7 6 0 976.7 NA 0.0000 9999 0 0 0 0
2019/08/07 20:14:01 BASE 11.63 220 14.76 227 -6.1 60 -12.6 6 0 976.7 NA 0.0000 9999 0 0 0 0
2019/08/07 20:15:01 BASE 11.95 211 14.76 227 -6.1 60 -12.6 6 0 976.7 NA 0.0000 9999 0 0 0 0
2019/08/07 20:16:00 BASE 11.48 203 13.89 219 -6.1 60 -12.6 6 0 976.7 NA 0.0000 9999 0 0 0 0
2019/08/07 20:17:00 BASE 11.11 204 13.89 219 -6.1 61 -12.5 5 0 976.7 NA 0.0000 9999 0 0 0 0
2019/08/07 20:18:00 BASE 10.11 208 13.89 219 -6.1 61 -12.5 5 0 976.7 NA 0.0000 9999 0 0 0 0
2019/08/07 20:19:00 BASE 10.76 206 13.89 219 -6.1 61 -12.5 5 0 976.7 NA 0.0000 9999 0 0 0 0
2019/08/07 20:20:00 BASE 11.72 204 13.17 207 -6.1 60 -12.5 5 0 976.7 NA 0.0000 9999 0 0 0 0
2019/08/07 20:21:00 BASE 11.64 210 13.17 207 -6.1 60 -12.6 4 0 976.7 NA 0.0000 9999 0 0 0 0
2019/08/07 20:22:00 BASE 11.60 219 13.17 207 -6.1 60 -12.6 4 0 976.8 NA 0.0000 9999 0 0 0 0
2019/08/07 20:23:00 BASE 11.20 220 13.17 207 -6.1 60 -12.6 4 0 976.8 NA 0.0000 9999 0 0 0 0
2019/08/07 20:24:00 BASE 11.41 211 13.68 210 -6.1 60 -12.5 4 0 976.8 NA 0.0000 9999 0 0 0 0
2019/08/07 20:25:00 BASE 11.48 208 13.68 210 -6.1 60 -12.5 4 0 976.8 NA 0.0000 9999 0 0 0 0
2019/08/07 20:26:00 BASE 10.62 211 13.68 210 -6.1 60 -12.6 3 0 976.9 NA 0.0000 9999 0 0 0 0
2019/08/07 20:27:00 BASE 9.21 212 13.68 210 -6.1 59 -12.7 3 0 977.0 NA 0.0000 9999 0 0 0 0
2019/08/07 20:28:00 BASE 8.80 212 13.68 210 -6.1 59 -12.8 3 0 977.0 NA 0.0000 9999 0 0 0 0
2019/08/07 20:29:00 BASE 9.98 210 13.68 210 -6.1 58 -13.0 2 0 977.0 NA 0.0000 9999 0 0 0 0
2019/08/07 20:30:00 BASE 10.23 208 13.68 210 -6.1 58 -13.1 2 0 977.0 NA 0.0000 9999 0 0 0 0
2019/08/07 20:31:00 BASE 10.51 204 13.68 210 -6.0 57 -13.1 2 0 977.0 NA 0.0000 9999 0 0 0 0
2019/08/07 20:32:00 BASE 10.70 200 13.68 210 -6.0 57 -13.1 2 0 977.0 NA 0.0000 9999 0 0 0 0
2019/08/07 20:33:00 BASE 9.92 205 13.68 210 -6.0 57 -13.1 2 0 977.0 NA 0.0000 9999 0 0 0 0
2019/08/07 20:34:00 BASE 9.40 214 12.24 217 -6.0 57 -13.1 2 0 977.1 NA 0.0000 9999 0 0 0 0
2019/08/07 20:35:00 BASE 9.13 219 12.04 214 -5.9 58 -13.0 2 0 977.1 NA 0.0000 9999 0 0 0 0
2019/08/07 20:36:00 BASE 9.87 213 12.04 214 -5.9 58 -12.8 1 0 977.0 NA 0.0000 9999 0 0 0 0
2019/08/07 20:37:00 BASE 9.80 207 12.04 214 -5.9 59 -12.6 1 0 977.1 NA 0.0000 9999 0 0 0 0
2019/08/07 20:38:00 BASE 9.87 211 12.35 217 -5.8 60 -12.4 1 0 977.1 NA 0.0000 9999 0 0 0 0
2019/08/07 20:39:00 BASE 11.54 216 15.02 214 -5.8 60 -12.3 1 0 977.1 NA 0.0000 9999 0 0 0 0
2019/08/07 20:40:00 BASE 12.69 219 15.02 214 -5.8 61 -12.1 1 0 977.1 NA 0.0000 9999 0 0 0 0
2019/08/07 20:41:00 BASE 13.24 218 15.84 217 -5.7 61 -12.1 1 0 977.0 NA 0.0000 9999 0 0 0 0
2019/08/07 20:42:00 BASE 13.45 216 15.84 217 -5.6 61 -12.0 1 0 977.0 NA 0.0000 9999 0 0 0 0
2019/08/07 20:43:00 BASE 13.23 217 15.84 217 -5.6 60 -12.1 1 0 977.0 NA 0.0000 9999 0 0 0 0
2019/08/07 20:44:00 BASE 13.55 218 15.84 217 -5.5 60 -12.0 1 0 977.0 NA 0.0000 9999 0 0 0 0
2019/08/07 20:45:00 BASE 14.45 215 16.31 213 -5.4 60 -12.0 1 0 977.0 NA 0.0000 9999 0 0 0 0
2019/08/07 20:46:00 BASE 13.79 215 16.31 213 -5.4 59 -12.1 1 0 977.0 NA 0.0000 9999 0 0 0 0
2019/08/07 20:47:00 BASE 12.31 222 16.31 213 -5.3 59 -12.2 0 0 977.1 NA 0.0000 9999 0 0 0 0
2019/08/07 20:48:00 BASE 11.28 226 16.31 213 -5.3 58 -12.2 0 0 977.1 NA 0.0000 9999 0 0 0 0
2019/08/07 20:49:00 BASE 12.22 222 16.31 213 -5.3 58 -12.4 0 0 977.1 NA 0.0000 9999 0 0 0 0
2019/08/07 20:50:00 BASE 12.90 214 16.31 213 -5.3 57 -12.5 0 0 977.1 NA 0.0000 9999 0 0 0 0
2019/08/07 20:51:00 BASE 11.12 210 16.31 213 -5.3 57 -12.5 0 0 977.2 NA 0.0000 9999 0 0 0 0
2019/08/07 20:52:00 BASE 10.65 207 16.31 213 -5.3 57 -12.5 0 0 977.2 NA 0.0000 9999 0 0 0 0
2019/08/07 20:53:00 BASE 10.77 200 16.31 213 -5.3 57 -12.5 0 0 977.2 NA 0.0000 9999 0 0 0 0
2019/08/07 20:54:00 BASE 10.13 197 16.31 213 -5.3 57 -12.6 0 0 977.2 NA 0.0000 9999 0 0 0 0
2019/08/07 20:55:00 BASE 10.08 201 16.20 219 -5.3 56 -12.7 0 0 977.2 NA 0.0000 9999 0 0 0 0
2019/08/07 20:56:00 BASE 10.85 199 16.20 219 -5.4 55 -12.9 0 0 977.2 NA 0.0000 9999 0 0 0 0
2019/08/07 20:57:00 BASE 10.99 198 16.20 219 -5.4 55 -13.1 0 0 977.3 NA 0.0000 9999 0 0 0 0
2019/08/07 20:58:00 BASE 11.12 204 16.20 219 -5.5 54 -13.3 0 0 977.3 NA 0.0000 9999 0 0 0 0
2019/08/07 20:59:00 BASE 11.42 210 13.94 205 -5.5 54 -13.4 0 0 977.3 NA 0.0000 9999 0 0 0 0
2019/08/07 21:00:00 BASE 11.47 206 12.91 219 -5.5 53 -13.5 0 0 977.3 NA 0.0000 9999 0 0 0 0
2019/08/07 21:01:00 BASE 11.28 200 12.91 219 -5.5 53 -13.6 0 0 977.3 NA 0.0000 9999 0 0 0 0
2019/08/07 21:02:00 BASE 10.99 201 12.91 219 -5.4 53 -13.6 0 0 977.3 NA 0.0000 9999 0 0 0 0
2019/08/07 21:03:00 BASE 10.83 201 12.91 219 -5.4 53 -13.5 0 0 977.3 NA 0.0000 9999 0 0 0 0
2019/08/07 21:04:00 BASE 10.29 194 12.91 219 -5.4 54 -13.4 0 0 977.3 NA 0.0000 9999 0 0 0 0
2019/08/07 21:05:00 BASE 9.61 192 12.91 219 -5.5 54 -13.4 0 0 977.4 NA 0.0000 9999 0 0 0 0
2019/08/07 21:06:00 BASE 9.80 197 13.32 192 -5.5 54 -13.4 0 0 977.4 NA 0.0000 9999 0 0 0 0
2019/08/07 21:07:01 BASE 10.68 196 13.32 192 -5.6 54 -13.4 0 0 977.4 NA 0.0000 9999 0 0 0 0
2019/08/07 21:08:01 BASE 10.52 191 13.32 192 -5.6 54 -13.5 0 0 977.4 NA 0.0000 9999 0 0 0 0
2019/08/07 21:09:01 BASE 10.02 188 13.32 192 -5.7 54 -13.5 0 0 977.4 NA 0.0000 9999 0 0 0 0
2019/08/07 21:10:01 BASE 10.03 194 14.15 203 -5.7 54 -13.4 0 0 977.4 NA 0.0000 9999 0 0 0 0
2019/08/07 21:11:01 BASE 12.35 199 16.26 207 -5.7 55 -13.3 0 0 977.4 NA 0.0000 9999 0 0 0 0
2019/08/07 21:12:01 BASE 13.97 199 16.26 207 -5.7 55 -13.2 0 0 977.5 NA 0.0000 9999 0 0 0 0
2019/08/07 21:13:01 BASE 13.59 202 16.26 207 -5.6 55 -13.2 0 0 977.5 NA 0.0000 9999 0 0 0 0
2019/08/07 21:14:01 BASE 16.73 207 23.00 209 -5.5 55 -13.1 0 0 977.4 NA 0.0000 9999 0 0 0 0
2019/08/07 21:15:01 BASE 19.83 211 23.00 209 -5.5 55 -13.1 0 0 977.3 NA 0.0000 9999 0 0 0 0
2019/08/07 21:16:01 BASE 20.01 211 23.61 215 -5.4 55 -13.1 0 0 977.4 NA 0.0000 9999 0 0 0 0
2019/08/07 21:17:01 BASE 20.06 213 23.61 215 -5.4 55 -13.1 0 0 977.4 NA 0.0000 9999 0 0 0 0
2019/08/07 21:18:01 BASE 20.31 213 23.61 215 -5.4 55 -13.0 0 0 977.4 NA 0.0000 9999 0 0 0 0
2019/08/07 21:19:01 BASE 19.21 215 23.61 215 -5.4 55 -13.0 0 0 977.5 NA 0.0000 9999 0 0 0 0
2019/08/07 21:20:01 BASE 18.21 214 23.61 215 -5.4 56 -12.9 0 0 977.5 NA 0.0000 9999 0 0 0 0
2019/08/07 21:21:01 BASE 18.77 208 23.61 215 -5.4 56 -12.8 0 0 977.5 NA 0.0000 9999 0 0 0 0
2019/08/07 21:22:01 BASE 18.84 208 23.61 215 -5.4 57 -12.6 0 0 977.6 NA 0.0000 9999 0 0 0 0
2019/08/07 21:23:01 BASE 19.02 208 23.61 215 -5.4 57 -12.6 0 0 977.6 NA 0.0000 9999 0 0 0 0
2019/08/07 21:24:01 BASE 19.26 204 23.61 215 -5.4 57 -12.6 0 0 977.6 NA 0.0000 9999 0 0 0 0
2019/08/07 21:25:01 BASE 18.15 205 23.61 215 -5.4 57 -12.6 0 0 977.7 NA 0.0000 9999 0 0 0 0
2019/08/07 21:26:01 BASE 17.79 211 21.81 215 -5.3 57 -12.6 0 0 977.7 NA 0.0000 9999 0 0 0 0
2019/08/07 21:27:01 BASE 19.74 213 22.17 210 -5.3 57 -12.6 0 0 977.6 NA 0.0000 9999 0 0 0 0
2019/08/07 21:28:01 BASE 20.18 208 22.17 210 -5.3 57 -12.6 0 0 977.7 NA 0.0000 9999 0 0 0 0
2019/08/07 21:29:01 BASE 18.62 208 22.17 210 -5.3 57 -12.6 0 0 977.8 NA 0.0000 9999 0 0 0 0
2019/08/07 21:30:01 BASE 18.29 211 22.17 210 -5.4 57 -12.5 0 0 977.7 NA 0.0000 9999 0 0 0 0
2019/08/07 21:31:01 BASE 18.29 208 22.17 210 -5.4 57 -12.6 0 0 977.8 NA 0.0000 9999 0 0 0 0
2019/08/07 21:32:01 BASE 18.44 204 22.17 210 -5.4 56 -12.7 0 0 977.7 NA 0.0000 9999 0 0 0 0
2019/08/07 21:33:01 BASE 18.25 203 22.17 210 -5.5 56 -12.9 0 0 977.7 NA 0.0000 9999 0 0 0 0
2019/08/07 21:34:01 BASE 18.43 203 22.17 210 -5.5 55 -13.0 0 0 977.7 NA 0.0000 9999 0 0 0 0
2019/08/07 21:35:01 BASE 19.04 202 22.17 210 -5.5 55 -13.1 0 0 977.7 NA 0.0000 9999 0 0 0 0
2019/08/07 21:36:01 BASE 18.43 203 22.17 210 -5.6 55 -13.3 0 0 977.8 NA 0.0000 9999 0 0 0 0
2019/08/07 21:37:01 BASE 17.23 206 21.66 205 -5.7 54 -13.5 0 0 977.8 NA 0.0000 9999 0 0 0 0
2019/08/07 21:38:01 BASE 16.86 207 21.66 205 -5.7 54 -13.6 0 0 977.8 NA 0.0000 9999 0 0 0 0
2019/08/07 21:39:01 BASE 16.02 208 21.66 205 -5.7 54 -13.5 0 0 977.9 NA 0.0000 9999 0 0 0 0
2019/08/07 21:40:01 BASE 14.87 211 21.66 205 -5.7 54 -13.4 0 0 977.9 NA 0.0000 9999 0 0 0 0
2019/08/07 21:41:01 BASE 14.92 212 21.50 204 -5.6 55 -13.3 0 0 977.9 NA 0.0000 9999 0 0 0 0
2019/08/07 21:42:01 BASE 15.69 213 21.50 204 -5.6 56 -13.1 0 0 977.9 NA 0.0000 9999 0 0 0 0
2019/08/07 21:43:01 BASE 16.31 210 21.50 204 -5.6 56 -12.9 0 0 977.9 NA 0.0000 9999 0 0 0 0
2019/08/07 21:44:01 BASE 16.43 207 20.27 204 -5.6 57 -12.8 0 0 977.9 NA 0.0000 9999 0 0 0 0
2019/08/07 21:45:01 BASE 16.09 213 20.17 206 -5.6 57 -12.8 0 0 978.0 NA 0.0000 9999 0 0 0 0
2019/08/07 21:46:01 BASE 15.41 220 19.24 207 -5.6 57 -12.7 0 0 978.0 NA 0.0000 9999 0 0 0 0
2019/08/07 21:47:01 BASE 16.14 219 19.24 207 -5.7 58 -12.6 0 0 978.0 NA 0.0000 9999 0 0 0 0
2019/08/07 21:48:01 BASE 16.58 214 17.80 214 -5.7 59 -12.4 0 0 978.0 NA 0.0000 9999 0 0 0 0
2019/08/07 21:49:01 BASE 14.84 210 17.80 214 -5.7 60 -12.2 0 0 978.1 NA 0.0000 9999 0 0 0 0
2019/08/07 21:50:01 BASE 14.63 210 17.80 214 -5.7 60 -12.1 0 0 978.0 NA 0.0000 9999 0 0 0 0
2019/08/07 21:51:01 BASE 14.76 209 17.80 214 -5.7 61 -12.0 0 0 978.1 NA 0.0000 9999 0 0 0 0
2019/08/07 21:52:01 BASE 14.97 211 18.57 218 -5.7 61 -11.9 0 0 978.0 NA 0.0000 9999 0 0 0 0
2019/08/07 21:53:01 BASE 16.28 215 18.57 218 -5.7 62 -11.9 0 0 978.1 NA 0.0000 9999 0 0 0 0
2019/08/07 21:54:01 BASE 16.10 220 18.57 218 -5.7 62 -11.8 0 0 978.1 NA 0.0000 9999 0 0 0 0
2019/08/07 21:55:01 BASE 16.52 218 18.57 218 -5.8 62 -11.8 0 0 978.1 NA 0.0000 9999 0 0 0 0
2019/08/07 21:56:01 BASE 16.27 218 18.57 218 -5.8 63 -11.8 0 0 978.1 NA 0.0000 9999 0 0 0 0
2019/08/07 21:57:01 BASE 15.36 222 18.57 218 -5.8 62 -11.8 0 0 978.1 NA 0.0000 9999 0 0 0 0
2019/08/07 21:58:01 BASE 14.77 221 18.57 218 -5.8 62 -11.8 0 0 978.1 NA 0.0000 9999 0 0 0 0
2019/08/07 21:59:01 BASE 14.83 220 18.57 218 -5.8 63 -11.8 0 0 978.1 NA 0.0000 9999 0 0 0 0
2019/08/07 22:00:01 BASE 14.68 221 18.57 218 -5.8 63 -11.7 0 0 978.1 NA 0.0000 9999 0 0 0 0
2019/08/07 22:01:01 BASE 14.46 220 18.57 218 -5.8 64 -11.6 0 0 978.2 NA 0.0000 9999 0 0 0 0
2019/08/07 22:04:07 BASE M M M M -5.8 65 -11.3 0 0 M NA 0.0000 M 0 0 0 0
2019/08/07 22:05:00 BASE M M M M -5.8 64 -11.6 0 0 978.3 NA 0.0000 9999 0 0 0 0
2019/08/07 22:06:00 BASE 13.85 216 M M -5.9 63 -11.8 0 0 978.3 NA 0.0000 9999 0 0 0 0
2019/08/07 22:07:00 BASE 13.58 218 M M -5.9 62 -12.1 0 0 978.4 NA 0.0000 9999 0 0 0 0
2019/08/07 22:08:00 BASE 12.59 219 M M -6.0 60 -12.4 0 0 978.4 NA 0.0000 9999 0 0 0 0
2019/08/07 22:09:00 BASE 13.16 220 M M -6.0 60 -12.5 0 0 978.4 NA 0.0000 9999 0 0 0 0
2019/08/07 22:10:00 BASE 14.41 220 M M -6.0 60 -12.6 0 0 978.4 NA 0.0000 9999 0 0 0 0
2019/08/07 22:11:00 BASE 14.35 220 M M -6.0 59 -12.7 0 0 978.4 NA 0.0000 9999 0 0 0 0
2019/08/07 22:12:01 BASE 13.16 228 15.84 213 -6.0 58 -12.8 0 0 978.4 NA 0.0000 9999 0 0 0 0
2019/08/07 22:13:00 BASE 13.13 232 15.84 213 -6.0 58 -12.9 0 0 978.4 NA 0.0000 9999 0 0 0 0
2019/08/07 22:14:01 BASE 13.11 227 15.84 213 -6.0 58 -12.9 0 0 978.4 NA 0.0000 9999 0 0 0 0
2019/08/07 22:15:00 BASE 11.94 225 15.84 213 -6.0 59 -12.8 0 0 978.5 NA 0.0000 9999 0 0 0 0
2019/08/07 22:16:00 BASE 12.29 220 15.43 230 -6.1 59 -12.7 0 0 978.4 NA 0.0000 9999 0 0 0 0
2019/08/07 22:17:00 BASE 13.50 219 15.43 230 -6.1 60 -12.6 0 0 978.5 NA 0.0000 9999 0 0 0 0
2019/08/07 22:18:00 BASE 14.20 225 15.48 224 -6.1 61 -12.4 0 0 978.5 NA 0.0000 9999 0 0 0 0
2019/08/07 22:19:00 BASE 14.42 229 15.54 237 -6.1 61 -12.3 0 0 978.5 NA 0.0000 9999 0 0 0 0
2019/08/07 22:20:01 BASE 13.90 228 15.54 237 -6.1 61 -12.3 0 0 978.5 NA 0.0000 9999 0 0 0 0
2019/08/07 22:21:00 BASE 12.15 230 15.54 237 -6.1 61 -12.4 0 0 978.5 NA 0.0000 9999 0 0 0 0
2019/08/07 22:22:00 BASE 11.27 233 15.54 237 -6.1 61 -12.4 0 0 978.5 NA 0.0000 9999 0 0 0 0
2019/08/07 22:23:00 BASE 12.35 229 15.59 226 -6.1 61 -12.4 0 0 978.5 NA 0.0000 9999 0 0 0 0
2019/08/07 22:24:00 BASE 12.81 227 15.59 226 -6.2 62 -12.3 0 0 978.6 NA 0.0000 9999 0 0 0 0
2019/08/07 22:25:01 BASE 13.12 223 16.26 217 -6.2 62 -12.3 0 0 978.6 NA 0.0000 9999 0 0 0 0
2019/08/07 22:26:01 BASE 14.56 217 16.57 215 -6.2 62 -12.2 0 0 978.6 NA 0.0000 9999 0 0 0 0
2019/08/07 22:27:00 BASE 14.86 217 16.57 215 -6.2 62 -12.3 0 0 978.7 NA 0.0000 9999 0 0 0 0
2019/08/07 22:28:00 BASE 14.35 218 16.57 215 -6.1 61 -12.4 0 0 978.7 NA 0.0000 9999 0 0 0 0
2019/08/07 22:29:00 BASE 13.29 217 16.57 215 -6.1 60 -12.6 0 0 978.7 NA 0.0000 9999 0 0 0 0
2019/08/07 22:30:00 BASE 12.07 215 16.57 215 -6.1 59 -12.7 0 0 978.7 NA 0.0000 9999 0 0 0 0
2019/08/07 22:31:00 BASE 12.21 215 16.57 215 -6.0 59 -12.8 0 0 978.7 NA 0.0000 9999 0 0 0 0
2019/08/07 22:32:00 BASE 13.46 219 16.57 215 -6.0 59 -12.8 0 0 978.7 NA 0.0000 9999 0 0 0 0
2019/08/07 22:33:00 BASE 13.45 221 16.57 215 -6.0 58 -12.9 0 0 978.8 NA 0.0000 9999 0 0 0 0
2019/08/07 22:34:00 BASE 12.31 220 16.57 215 -6.0 58 -13.0 0 0 978.8 NA 0.0000 9999 0 0 0 0
2019/08/07 22:35:00 BASE 12.46 223 16.57 215 -6.0 57 -13.1 0 0 978.8 NA 0.0000 9999 0 0 0 0
2019/08/07 22:36:00 BASE 13.39 224 16.05 217 -6.0 57 -13.1 0 0 978.8 NA 0.0000 9999 0 0 0 0
2019/08/07 22:37:00 BASE 13.88 220 15.59 218 -6.0 56 -13.2 0 0 978.9 NA 0.0000 9999 0 0 0 0
2019/08/07 22:38:00 BASE 14.26 216 15.64 212 -5.9 56 -13.2 0 0 978.9 NA 0.0000 9999 0 0 0 0
2019/08/07 22:39:00 BASE 14.38 213 15.64 212 -5.9 56 -13.2 0 0 978.9 NA 0.0000 9999 0 0 0 0
2019/08/07 22:40:00 BASE 14.26 212 15.95 214 -5.9 56 -13.2 0 0 978.9 NA 0.0000 9999 0 0 0 0
2019/08/07 22:41:00 BASE 13.76 213 15.95 214 -5.8 56 -13.2 0 0 978.9 NA 0.0000 9999 0 0 0 0
2019/08/07 22:42:00 BASE 14.27 215 15.95 215 -5.8 57 -13.1 0 0 978.9 NA 0.0000 9999 0 0 0 0
2019/08/07 22:43:00 BASE 14.13 216 15.95 215 -5.8 57 -13.0 0 0 979.0 NA 0.0000 9999 0 0 0 0
2019/08/07 22:44:00 BASE 13.12 217 15.95 215 -5.8 58 -12.8 0 0 979.0 NA 0.0000 9999 0 0 0 0
2019/08/07 22:45:00 BASE 13.94 217 15.95 215 -5.8 59 -12.6 0 0 978.9 NA 0.0000 9999 0 0 0 0
2019/08/07 22:46:00 BASE 14.54 214 15.95 215 -5.8 60 -12.4 0 0 978.9 NA 0.0000 9999 0 0 0 0
2019/08/07 22:47:00 BASE 14.86 216 16.77 223 -5.8 60 -12.3 0 0 979.0 NA 0.0000 9999 0 0 0 0
2019/08/07 22:48:00 BASE 16.18 219 18.73 223 -5.8 60 -12.2 0 0 979.0 NA 0.0000 9999 0 0 0 0
2019/08/07 22:49:00 BASE 16.11 218 18.73 223 -5.8 60 -12.3 0 0 979.0 NA 0.0000 9999 0 0 0 0
2019/08/07 22:50:00 BASE 14.87 221 18.73 223 -5.8 60 -12.3 0 0 979.0 NA 0.0000 9999 0 0 0 0
2019/08/07 22:51:00 BASE 14.88 221 18.73 223 -5.8 60 -12.3 0 0 979.0 NA 0.0000 9999 0 0 0 0
2019/08/07 22:52:00 BASE 14.09 214 18.73 223 -5.8 60 -12.3 0 0 979.0 NA 0.0000 9999 0 0 0 0
2019/08/07 22:53:00 BASE 13.33 210 18.73 223 -5.8 60 -12.4 0 0 979.0 NA 0.0000 9999 0 0 0 0
2019/08/07 22:54:00 BASE 13.94 210 18.73 223 -5.8 60 -12.4 0 0 979.0 NA 0.0000 9999 0 0 0 0
2019/08/07 22:55:00 BASE 14.73 209 18.73 223 -5.8 59 -12.5 0 0 979.1 NA 0.0000 9999 0 0 0 0
2019/08/07 22:56:00 BASE 15.35 211 18.73 223 -5.8 59 -12.6 0 0 979.1 NA 0.0000 9999 0 0 0 0
2019/08/07 22:57:00 BASE 15.83 213 18.73 223 -5.8 58 -12.8 0 0 979.1 NA 0.0000 9999 0 0 0 0
2019/08/07 22:58:00 BASE 16.31 214 19.09 212 -5.7 57 -12.8 0 0 979.1 NA 0.0000 9999 0 0 0 0
2019/08/07 22:59:00 BASE 16.70 216 19.09 212 -5.7 57 -12.9 0 0 979.1 NA 0.0000 9999 0 0 0 0
2019/08/07 23:00:00 BASE 15.75 217 19.09 212 -5.7 56 -13.0 0 0 979.1 NA 0.0000 9999 0 0 0 0
2019/08/07 23:01:00 BASE 13.98 215 19.09 212 -5.7 56 -13.1 0 0 979.1 NA 0.0000 9999 0 0 0 0
2019/08/07 23:02:00 BASE 12.94 211 19.09 212 -5.8 57 -13.0 0 0 979.2 NA 0.0000 9999 0 0 0 0
2019/08/07 23:03:00 BASE 13.35 211 19.09 212 -5.8 57 -13.0 0 0 979.1 NA 0.0000 9999 0 0 0 0
2019/08/07 23:04:00 BASE 14.92 210 19.09 212 -5.8 57 -13.0 0 0 979.1 NA 0.0000 9999 0 0 0 0
2019/08/07 23:05:00 BASE 15.17 212 19.09 212 -5.8 57 -12.9 0 0 979.2 NA 0.0000 9999 0 0 0 0
2019/08/07 23:06:00 BASE 14.84 215 19.09 212 -5.8 57 -12.9 0 0 979.2 NA 0.0000 9999 0 0 0 0
2019/08/07 23:07:00 BASE 14.34 214 19.09 212 -5.7 57 -13.0 0 0 979.2 NA 0.0000 9999 0 0 0 0
2019/08/07 23:08:00 BASE 14.09 217 18.47 215 -5.7 56 -13.0 0 0 979.2 NA 0.0000 9999 0 0 0 0
2019/08/07 23:09:00 BASE 14.41 220 17.03 211 -5.7 56 -13.0 0 0 979.3 NA 0.0000 9999 0 0 0 0
2019/08/07 23:10:00 BASE 15.22 217 17.18 215 -5.7 56 -13.1 0 0 979.2 NA 0.0000 9999 0 0 0 0
2019/08/07 23:11:00 BASE 15.74 217 17.18 215 -5.7 56 -13.0 0 0 979.3 NA 0.0000 9999 0 0 0 0
2019/08/07 23:12:00 BASE 14.74 221 17.18 215 -5.7 56 -13.0 0 0 979.3 NA 0.0000 9999 0 0 0 0
2019/08/07 23:13:00 BASE 14.90 221 17.54 222 -5.7 57 -13.0 0 0 979.3 NA 0.0000 9999 0 0 0 0
2019/08/07 23:14:00 BASE 15.48 219 17.54 222 -5.7 57 -12.9 0 0 979.3 NA 0.0000 9999 0 0 0 0
2019/08/07 23:15:00 BASE 14.73 220 17.54 222 -5.7 57 -12.8 0 0 979.3 NA 0.0000 9999 0 0 0 0
2019/08/07 23:16:00 BASE 14.48 217 17.54 222 -5.7 58 -12.8 0 0 979.3 NA 0.0000 9999 0 0 0 0
2019/08/07 23:17:00 BASE 14.72 212 17.54 222 -5.7 58 -12.7 0 0 979.3 NA 0.0000 9999 0 0 0 0
2019/08/07 23:18:00 BASE 15.22 211 17.54 222 -5.7 58 -12.6 0 0 979.3 NA 0.0000 9999 0 0 0 0
2019/08/07 23:19:00 BASE 14.74 217 17.54 218 -5.7 59 -12.5 0 0 979.3 NA 0.0000 9999 0 0 0 0
2019/08/07 23:20:00 BASE 12.90 217 17.54 218 -5.7 59 -12.4 0 0 979.3 NA 0.0000 9999 0 0 0 0
2019/08/07 23:21:00 BASE 12.78 211 17.54 218 -5.7 60 -12.2 0 0 979.4 NA 0.0000 9999 0 0 0 0
2019/08/07 23:22:00 BASE 13.32 216 17.54 218 -5.7 61 -12.1 0 0 979.5 NA 0.0000 9999 0 0 0 0
2019/08/07 23:23:00 BASE 12.99 221 17.54 218 -5.7 61 -11.9 0 0 979.5 NA 0.0000 9999 0 0 0 0
2019/08/07 23:24:00 BASE 12.48 219 17.54 218 -5.7 62 -11.9 0 0 979.5 NA 0.0000 9999 0 0 0 0
2019/08/07 23:25:00 BASE 14.52 215 18.16 216 -5.7 62 -11.8 0 0 979.4 NA 0.0000 9999 0 0 0 0
2019/08/07 23:26:00 BASE 15.26 213 18.16 216 -5.7 61 -11.9 0 0 979.5 NA 0.0000 9999 0 0 0 0
2019/08/07 23:27:00 BASE 12.43 210 18.16 216 -5.7 61 -12.1 0 0 979.6 NA 0.0000 9999 0 0 0 0
2019/08/07 23:28:00 BASE 10.92 208 18.16 216 -5.7 60 -12.2 0 0 979.6 NA 0.0000 9999 0 0 0 0
2019/08/07 23:29:00 BASE 12.07 213 18.16 216 -5.7 60 -12.2 0 0 979.6 NA 0.0000 9999 0 0 0 0
2019/08/07 23:30:00 BASE 13.65 212 18.16 216 -5.7 60 -12.1 0 0 979.6 NA 0.0000 9999 0 0 0 0
2019/08/07 23:31:00 BASE 14.04 207 18.16 216 -5.7 61 -12.0 0 0 979.6 NA 0.0000 9999 0 0 0 0
2019/08/07 23:32:00 BASE 13.82 206 18.16 216 -5.7 62 -11.8 0 0 979.6 NA 0.0000 9999 0 0 0 0
2019/08/07 23:33:00 BASE 13.68 204 18.16 216 -5.7 64 -11.5 0 0 979.6 NA 0.0000 9999 0 0 0 0
2019/08/07 23:34:00 BASE 14.48 210 18.16 216 -5.7 64 -11.4 0 0 979.6 NA 0.0000 9999 0 0 0 0
2019/08/07 23:35:00 BASE 14.79 215 16.98 225 -5.8 65 -11.3 0 0 979.6 NA 0.0000 9999 0 0 0 0
2019/08/07 23:36:00 BASE 14.21 212 16.98 225 -5.8 65 -11.3 0 0 979.6 NA 0.0000 9999 0 0 0 0
2019/08/07 23:37:00 BASE 14.37 208 16.98 225 -5.8 65 -11.3 0 0 979.6 NA 0.0000 9999 0 0 0 0
2019/08/07 23:38:00 BASE 15.67 206 17.80 209 -5.8 65 -11.3 0 0 979.5 NA 0.0000 9999 0 0 0 0
2019/08/07 23:39:00 BASE 15.89 207 17.80 209 -5.8 65 -11.3 0 0 979.5 NA 0.0000 9999 0 0 0 0
2019/08/07 23:40:00 BASE 14.63 207 17.80 209 -5.8 65 -11.3 0 0 979.6 NA 0.0000 9999 0 0 0 0
2019/08/07 23:41:00 BASE 13.93 208 17.80 209 -5.8 65 -11.3 0 0 979.6 NA 0.0000 9999 0 0 0 0
2019/08/07 23:42:00 BASE 14.01 211 17.80 209 -5.8 65 -11.2 0 0 979.6 NA 0.0000 9999 0 0 0 0
2019/08/07 23:43:00 BASE 15.03 207 17.80 209 -5.7 65 -11.2 0 0 979.6 NA 0.0000 9999 0 0 0 0
2019/08/07 23:44:00 BASE 15.23 202 17.80 209 -5.7 65 -11.2 0 0 979.6 NA 0.0000 9999 0 0 0 0
2019/08/07 23:45:00 BASE 14.36 204 17.80 209 -5.7 65 -11.2 0 0 979.6 NA 0.0000 9999 0 0 0 0
2019/08/07 23:46:00 BASE 14.83 208 17.80 209 -5.7 65 -11.2 0 0 979.6 NA 0.0000 9999 0 0 0 0
2019/08/07 23:47:00 BASE 15.10 208 17.80 209 -5.7 64 -11.4 0 0 979.6 NA 0.0000 9999 0 0 0 0
2019/08/07 23:48:00 BASE 14.77 205 17.75 208 -5.7 64 -11.5 0 0 979.6 NA 0.0000 9999 0 0 0 0
2019/08/07 23:49:00 BASE 15.20 201 17.75 201 -5.7 63 -11.5 0 0 979.7 NA 0.0000 9999 0 0 0 0
2019/08/07 23:50:00 BASE 15.66 202 18.47 210 -5.7 63 -11.6 0 0 979.7 NA 0.0000 9999 0 0 0 0
2019/08/07 23:51:00 BASE 16.70 204 18.98 200 -5.7 63 -11.6 0 0 979.6 NA 0.0000 9999 0 0 0 0
2019/08/07 23:52:00 BASE 18.17 202 20.01 207 -5.6 63 -11.6 0 0 979.6 NA 0.0000 9999 0 0 0 0
2019/08/07 23:53:00 BASE 17.57 201 20.01 207 -5.6 62 -11.8 0 0 979.7 NA 0.0000 9999 0 0 0 0
2019/08/07 23:54:00 BASE 16.12 200 20.01 207 -5.6 61 -11.9 0 0 979.7 NA 0.0000 9999 0 0 0 0
2019/08/07 23:55:00 BASE 15.61 201 20.01 207 -5.6 61 -12.0 0 0 979.7 NA 0.0000 9999 0 0 0 0
2019/08/07 23:56:00 BASE 15.38 200 20.01 207 -5.6 60 -12.1 0 0 979.7 NA 0.0000 9999 0 0 0 0
2019/08/07 23:57:00 BASE 15.88 199 20.01 207 -5.6 60 -12.1 0 0 979.7 NA 0.0000 9999 0 0 0 0
2019/08/07 23:58:00 BASE 16.14 201 20.01 207 -5.6 60 -12.2 0 0 979.8 NA 0.0000 9999 0 0 0 0
2019/08/07 23:59:00 BASE 14.68 200 20.01 207 -5.6 60 -12.2 0 0 979.8 NA 0.0000 9999 0 0 0 0